[[{"header":{"parameterUnit":"m.s-1","parameterCategory":1,"la1":30.6,"la2":28.766,"lo1":-90.7593,"lo2":-88.6598,"dy":0.0162,"dx":0.0183,"nx":116,"ny":114,"refTime":"2024-05-19T12:00:00:Z","depth":0,"parameterNumber":2,"parameterNumberName":"U-component_of_WINDS"},"data":[0.0,0.0,0.0,0.0,0.0,0.0,0.0,0.0,0.0,0.0,0.0,0.0,0.0,0.0,0.0,0.0,0.0,0.0,0.0,0.0,0.0,0.0,0.0,0.0,0.0,0.0,0.0,0.0,0.0,0.0,0.0,0.0,0.0,0.0,0.0,0.0,0.0,0.0,0.0,0.0,0.0,0.0,0.0,0.0,0.0,0.0,0.0,0.0,0.0,0.0,0.0,0.0,0.0,0.0,0.0,0.0,0.0,0.0,0.0,0.0,0.0,0.0,0.0,0.0,0.0,0.0,0.0,0.0,0.0,0.0,0.0,0.0,0.0,0.0,0.0,0.0,0.0,0.0,0.0,0.0,0.0,0.0,0.0,0.0,0.0,0.0,0.0,0.0,0.0,0.0,0.0,0.0,0.0,0.0,0.0,0.0,0.0,0.0,0.0,0.0,0.0,0.0,0.0,0.0,0.0,0.0,0.0,0.0,0.0,0.0,0.0,0.0,0.0,0.0,0.0,0.0,0.0,0.0,0.0,0.0,0.0,0.0,0.0,0.0,0.0,0.0,0.0,0.0,0.0,0.0,0.0,0.0,0.0,0.0,0.0,0.0,0.0,0.0,0.0,0.0,0.0,0.0,0.0,0.0,0.0,0.0,0.0,0.0,0.0,0.0,0.0,0.0,0.0,0.0,0.0,0.0,0.0,0.0,0.0,0.0,0.0,0.0,0.0,0.0,0.0,0.0,0.0,0.0,0.0,0.0,0.0,0.0,0.0,0.0,0.0,0.0,0.0,0.0,0.0,0.0,0.0,0.0,0.0,0.0,0.0,0.0,0.0,0.0,0.0,0.0,0.0,0.0,0.0,0.0,0.0,0.0,0.0,0.0,0.0,0.0,0.0,0.0,0.0,0.0,0.0,0.0,0.0,0.0,0.0,0.0,0.0,0.0,0.0,0.0,0.0,0.0,0.0,0.0,0.0,0.0,0.0,0.0,0.0,0.0,0.0,0.0,0.0,0.0,0.0,0.0,0.0,0.0,0.0,0.0,0.0,0.0,0.0,0.0,0.0,0.0,0.0,0.0,0.0,0.0,0.0,0.0,0.0,0.0,0.0,0.0,0.0,0.0,0.0,0.0,0.0,0.0,0.0,0.0,0.0,0.0,0.0,0.0,0.0,0.0,0.0,0.0,0.0,0.0,0.0,0.0,0.0,0.0,0.0,0.0,0.0,0.0,0.0,0.0,0.0,0.0,0.0,0.0,0.0,0.0,0.0,0.0,0.0,0.0,0.0,0.0,0.0,0.0,0.0,0.0,0.0,0.0,0.0,0.0,0.0,0.0,0.0,0.0,0.0,0.0,0.0,0.0,0.0,0.0,0.0,0.0,0.0,0.0,0.0,0.0,0.0,0.0,0.0,0.0,0.0,0.0,0.0,0.0,0.0,0.0,0.0,0.0,0.0,0.0,0.0,0.0,0.0,0.0,0.0,0.0,0.0,0.0,0.0,0.0,0.0,0.0,0.0,0.0,0.0,0.0,0.0,0.0,0.0,0.0,0.0,0.0,0.0,0.0,0.0,0.0,0.0,0.0,0.0,0.0,0.0,0.0,0.0,0.0,0.0,0.0,0.0,0.0,0.0,0.0,0.0,0.0,0.0,0.0,0.0,0.0,0.0,0.0,0.0,0.0,0.0,0.0,0.0,0.0,0.0,0.0,0.0,0.0,0.0,0.0,0.0,0.0,0.0,0.0,0.0,0.0,0.0,0.0,0.0,0.0,0.0,0.0,0.0,0.0,0.0,0.0,0.0,0.0,0.0,0.0,0.0,0.0,0.0,0.0,0.0,0.0,0.0,0.0,0.0,0.0,0.0,0.0,0.0,0.0,0.0,0.0,0.0,0.0,0.0,0.0,0.0,0.0,0.0,0.0,0.0,0.0,0.0,0.0,0.0,0.0,0.0,0.0,0.0,0.0,0.0,0.0,0.0,0.0,0.0,0.0,0.0,0.0,0.0,0.0,0.0,0.0,0.0,0.0,0.0,0.0,0.0,0.0,0.0,0.0,0.0,0.0,0.0,0.0,0.0,0.0,0.0,0.0,0.0,0.0,0.0,0.0,0.0,0.0,0.0,0.0,0.0,0.0,0.0,0.0,0.0,0.0,0.0,0.0,0.0,0.0,0.0,0.0,0.0,0.0,0.0,0.0,0.0,0.0,0.0,0.0,0.0,0.0,0.0,0.0,0.0,0.0,0.0,0.0,0.0,0.0,0.0,0.0,0.0,0.0,0.0,0.0,0.0,0.0,0.0,0.0,0.0,0.0,0.0,0.0,0.0,0.0,0.0,0.0,0.0,0.0,0.0,0.0,0.0,0.0,0.0,0.0,0.0,0.0,0.0,0.0,0.0,0.0,0.0,0.0,0.0,0.0,0.0,0.0,0.0,0.0,0.0,0.0,0.0,0.0,0.0,0.0,0.0,0.0,0.0,0.0,0.0,0.0,0.0,0.0,0.0,0.0,0.0,0.0,0.0,0.0,0.0,0.0,0.0,0.0,0.0,0.0,0.0,0.0,0.0,0.0,0.0,0.0,0.0,0.0,0.0,0.0,0.0,0.0,0.0,0.0,0.0,0.0,0.0,0.0,0.0,0.0,0.0,0.0,0.0,0.0,0.0,0.0,0.0,0.0,0.0,0.0,0.0,0.0,0.0,0.0,0.0,0.0,0.0,0.0,0.0,0.0,0.0,0.0,0.0,0.0,0.0,0.0,0.0,0.0,0.0,0.0,0.0,0.0,0.0,0.0,0.0,0.0,0.0,0.0,0.0,0.0,0.0,0.0,0.0,0.0,0.0,0.0,0.0,0.0,0.0,0.0,0.0,0.0,0.0,0.0,0.0,0.0,0.0,0.0,0.0,0.0,0.0,0.0,0.0,0.0,0.0,0.0,0.0,0.0,0.0,0.0,0.0,0.0,0.0,0.0,0.0,0.0,0.0,0.0,0.0,0.0,0.0,0.0,0.0,0.0,0.0,0.0,0.0,0.0,0.0,0.0,0.0,0.0,0.0,0.0,0.0,0.0,0.0,0.0,0.0,0.0,0.0,0.0,0.0,0.0,0.0,0.0,0.0,0.0,0.0,0.0,0.0,0.0,0.0,0.0,0.0,0.0,0.0,0.0,0.0,0.0,0.0,0.0,0.0,0.0,0.0,0.0,0.0,0.0,0.0,0.0,0.0,0.0,0.0,0.0,0.0,0.0,0.0,0.0,0.0,0.0,0.0,0.0,0.0,0.0,0.0,0.0,0.0,0.0,0.0,0.0,0.0,0.0,0.0,0.0,0.0,0.0,0.0,0.0,0.0,0.0,0.0,0.0,0.0,0.0,0.0,0.0,0.0,0.0,0.0,0.0,0.0,0.0,0.0,0.0,0.0,0.0,0.0,0.0,0.0,0.0,0.0,0.0,0.0,0.0,0.0,0.0,0.0,0.0,0.0,0.0,0.0,0.0,0.0,0.0,0.0,0.0,0.0,0.0,0.0,0.0,0.0,0.0,0.0,0.0,0.0,0.0,0.0,0.0,0.0,0.0,0.0,0.0,0.0,0.0,0.0,0.0,0.0,0.0,0.0,0.0,0.0,0.0,0.0,0.0,0.0,0.0,0.0,0.0,0.0,0.0,0.0,0.0,0.0,0.0,0.0,0.0,0.0,0.0,0.0,0.0,0.0,0.0,0.0,0.0,0.0,0.0,0.0,0.0,0.0,0.0,0.0,0.0,0.0,0.0,0.0,0.0,0.0,0.0,0.0,0.0,0.0,0.0,0.0,0.0,0.0,0.0,0.0,0.0,0.0,0.0,0.0,0.0,0.0,0.0,0.0,0.0,0.0,0.0,0.0,0.0,0.0,0.0,0.0,0.0,0.0,0.0,0.0,0.0,0.0,0.0,0.0,0.0,0.0,0.0,0.0,0.0,0.0,0.0,0.0,0.0,0.0,0.0,0.0,0.0,0.0,0.0,0.0,0.0,0.0,0.0,0.0,0.0,0.0,0.0,0.0,0.0,0.0,0.0,0.0,0.0,0.0,0.0,0.0,0.0,0.0,0.0,0.0,0.0,0.0,0.0,0.0,0.0,0.0,0.0,0.0,0.0,0.0,0.0,0.0,0.0,0.0,0.0,0.0,0.0,0.0,0.0,0.0,0.0,0.0,0.0,0.0,0.0,0.0,0.0,0.0,0.0,0.0,0.0,0.0,0.0,0.0,0.0,0.0,0.0,0.0,0.0,0.0,0.0,0.0,0.0,0.0,0.0,0.0,0.0,0.0,0.0,0.0,0.0,0.0,0.0,0.0,0.0,0.0,0.0,0.0,0.0,0.0,0.0,0.0,0.0,0.0,0.0,0.0,0.0,0.0,0.0,0.0,0.0,0.0,0.0,0.0,0.0,0.0,0.0,0.0,0.0,0.0,0.0,0.0,0.0,0.0,0.0,0.0,0.0,0.0,0.0,0.0,0.0,0.0,0.0,0.0,0.0,0.0,0.0,0.0,0.0,0.0,0.0,0.0,0.0,0.0,0.0,0.0,0.0,0.0,0.0,0.0,0.0,0.0,0.0,0.0,0.0,0.0,0.0,0.0,0.0,0.0,0.0,0.0,0.0,0.0,0.0,0.0,0.0,0.0,0.0,0.0,0.0,0.0,0.0,0.0,0.0,0.0,0.0,0.0,0.0,0.0,0.0,0.0,0.0,0.0,0.0,0.0,0.0,0.0,0.0,0.0,0.0,0.0,0.0,0.0,0.0,0.0,0.0,0.0,0.0,0.0,0.0,0.0,0.0,0.0,0.0,0.0,0.0,0.0,0.0,0.0,0.0,0.0,0.0,0.0,0.0,0.0,0.0,0.0,0.0,0.0,0.0,0.0,0.0,0.0,0.0,0.0,0.0,0.0,0.0,0.0,0.0,0.0,0.0,0.0,0.0,0.0,0.0,0.0,0.0,0.0,0.0,0.0,0.0,0.0,0.0,0.0,0.0,0.0,0.0,0.0,0.0,0.0,0.0,0.0,0.0,0.0,0.0,0.0,0.0,0.0,0.0,0.0,0.0,0.0,0.0,0.0,0.0,0.0,0.0,0.0,0.0,0.0,0.0,0.0,0.0,0.0,0.0,0.0,0.0,0.0,0.0,0.0,0.0,0.0,0.0,0.0,0.0,0.0,0.0,0.0,0.0,0.0,0.0,0.0,0.0,0.0,0.0,0.0,0.0,0.0,0.0,0.0,0.0,0.0,0.0,0.0,0.0,0.0,0.0,0.0,0.0,0.0,0.0,0.0,0.0,0.0,0.0,0.0,0.0,0.0,0.0,0.0,0.0,0.0,0.0,0.0,0.0,0.0,0.0,0.0,0.0,0.0,0.0,0.0,0.0,0.0,0.0,0.0,0.0,0.0,0.0,0.0,0.0,0.0,0.0,0.0,0.0,0.0,0.0,0.0,0.0,0.0,0.0,0.0,0.0,0.0,0.0,0.0,0.0,0.0,0.0,0.0,0.0,0.0,0.0,0.0,0.0,0.0,0.0,0.0,0.0,0.0,0.0,0.0,0.0,0.0,0.0,0.0,0.0,0.0,0.0,0.0,0.0,0.0,0.0,0.0,0.0,0.0,0.0,0.0,0.0,0.0,0.0,0.0,0.0,0.0,0.0,0.0,0.0,0.0,0.0,0.0,0.0,0.0,0.0,0.0,0.0,0.0,0.0,0.0,0.0,0.0,0.0,0.0,0.0,0.0,0.0,0.0,0.0,0.0,0.0,0.0,0.0,0.0,0.0,0.0,0.0,0.0,0.0,0.0,0.0,0.0,0.0,0.0,0.0,0.0,0.0,0.0,0.0,0.0,0.0,0.0,0.0,0.0,0.0,0.0,0.0,0.0,0.0,0.0,0.0,0.0,0.0,0.0,0.0,0.0,0.0,0.0,0.0,0.0,0.0,0.0,0.0,0.0,0.0,0.0,0.0,0.0,0.0,0.0,0.0,0.0,0.0,0.0,0.0,0.0,0.0,0.0,0.0,0.0,0.0,0.0,0.0,0.0,0.0,0.0,0.0,0.0,0.0,0.0,0.0,0.0,0.0,0.0,0.0,0.0,0.0,0.0,0.0,-2.9824,0.0,0.0,0.0,0.0,0.0,0.0,0.0,0.0,0.0,0.0,0.0,0.0,0.0,0.0,0.0,0.0,0.0,0.0,0.0,0.0,0.0,0.0,0.0,0.0,-1.8676,-1.9499,-2.0437,-2.1059,-2.1541,-2.1939,0.0,0.0,0.0,0.0,0.0,-1.8809,-1.8427,-1.8351,-1.8534,-1.9219,-1.9767,-2.0228,-2.0321,-2.0727,-2.1357,0.0,0.0,0.0,0.0,0.0,0.0,0.0,0.0,0.0,0.0,0.0,0.0,0.0,0.0,0.0,0.0,0.0,0.0,0.0,0.0,0.0,0.0,0.0,0.0,0.0,0.0,0.0,0.0,0.0,0.0,0.0,0.0,0.0,0.0,0.0,0.0,0.0,0.0,0.0,0.0,0.0,0.0,0.0,0.0,0.0,0.0,0.0,0.0,0.0,0.0,0.0,0.0,0.0,0.0,0.0,0.0,0.0,0.0,0.0,0.0,0.0,0.0,0.0,0.0,0.0,0.0,0.0,0.0,0.0,0.0,0.0,-3.0449,0.0,0.0,0.0,0.0,0.0,0.0,0.0,0.0,0.0,0.0,0.0,0.0,0.0,0.0,0.0,0.0,0.0,0.0,0.0,0.0,0.0,-1.6096,-1.8025,-1.9052,-1.9793,-2.0259,-2.1214,-2.1764,-2.1685,-2.1642,0.0,0.0,0.0,-1.9373,-1.8965,-1.8563,-1.8547,-1.8866,-1.9506,-2.0286,-2.1189,-2.1189,-2.1726,-2.2672,-2.2503,0.0,0.0,0.0,0.0,0.0,0.0,0.0,0.0,0.0,0.0,0.0,0.0,0.0,0.0,0.0,0.0,0.0,0.0,0.0,0.0,0.0,0.0,0.0,0.0,0.0,0.0,0.0,0.0,0.0,0.0,0.0,0.0,0.0,0.0,0.0,0.0,0.0,0.0,0.0,0.0,0.0,0.0,0.0,0.0,0.0,0.0,0.0,0.0,0.0,0.0,0.0,0.0,0.0,0.0,0.0,0.0,0.0,0.0,0.0,0.0,0.0,0.0,0.0,-3.2092,-3.1829,-3.138,-3.1186,-3.1048,-3.1001,-3.1733,-3.1489,-3.0605,0.0,0.0,0.0,0.0,0.0,0.0,0.0,0.0,0.0,0.0,0.0,0.0,0.0,0.0,0.0,0.0,0.0,0.0,0.0,0.0,-1.6649,-1.8211,-1.9565,-2.0888,-2.2203,-2.2473,-2.241,-2.2055,-2.1766,0.0,0.0,-2.0225,-1.9989,-1.9597,-1.9244,-1.9086,-1.915,-1.9639,-2.0601,-2.1952,-2.1952,-2.2455,-2.331,-2.2274,-2.213,-2.263,0.0,0.0,0.0,0.0,0.0,0.0,0.0,0.0,0.0,0.0,0.0,0.0,0.0,0.0,0.0,0.0,0.0,0.0,0.0,0.0,0.0,0.0,0.0,0.0,0.0,0.0,0.0,0.0,0.0,0.0,0.0,0.0,0.0,0.0,0.0,0.0,0.0,0.0,0.0,0.0,0.0,-2.8691,-2.9671,0.0,0.0,0.0,0.0,0.0,0.0,0.0,0.0,0.0,0.0,0.0,0.0,0.0,-3.0953,-3.2505,-3.1765,-3.1733,-3.2423,-3.2423,-3.2191,-3.1758,-3.2103,-3.205,-3.1725,-3.2627,0.0,-3.0594,-3.0626,0.0,0.0,0.0,0.0,0.0,0.0,0.0,0.0,0.0,0.0,0.0,0.0,0.0,0.0,0.0,0.0,0.0,0.0,0.0,0.0,0.0,-1.9681,-2.1106,-2.191,-2.2206,-2.2359,-2.2378,-2.1284,-2.0543,-2.0316,-1.9796,-1.9434,-1.9244,-1.8808,-1.8865,-1.9409,-1.9881,-2.0576,-2.1472,-2.1472,-2.1788,-2.2367,-2.206,-2.2536,-2.3548,-2.3279,0.0,0.0,0.0,0.0,0.0,0.0,0.0,0.0,0.0,0.0,0.0,0.0,0.0,0.0,0.0,0.0,0.0,0.0,0.0,0.0,0.0,0.0,0.0,0.0,0.0,0.0,0.0,0.0,0.0,0.0,0.0,0.0,0.0,0.0,0.0,0.0,0.0,0.0,0.0,-2.7799,-2.9427,-3.0632,-3.0936,-3.0954,0.0,0.0,0.0,0.0,0.0,0.0,0.0,0.0,0.0,-3.1869,-3.1356,-3.1934,-3.3722,-3.2757,-3.2441,-3.2791,-3.2336,-3.1879,-3.147,-3.1915,-3.1986,-3.1843,-3.25,-3.2256,-3.1382,-3.1138,-3.0624,-2.9946,0.0,0.0,0.0,0.0,-2.8498,-2.831,0.0,0.0,0.0,0.0,0.0,0.0,0.0,0.0,0.0,0.0,0.0,0.0,-1.7484,-1.9487,-2.0909,-2.1301,-2.1794,-2.2031,0.0,0.0,-1.9743,-1.9526,-1.9001,-1.8688,-1.8688,-1.8302,-1.8468,-1.9225,-1.9567,-1.9976,-2.0436,-2.0584,-2.083,-2.1192,-2.1703,-2.2688,-2.3925,-2.3685,-2.3208,0.0,0.0,0.0,0.0,0.0,0.0,0.0,0.0,0.0,0.0,0.0,0.0,0.0,0.0,0.0,0.0,0.0,0.0,0.0,0.0,0.0,0.0,0.0,0.0,0.0,0.0,0.0,0.0,0.0,0.0,0.0,0.0,0.0,0.0,0.0,0.0,0.0,0.0,-2.8848,-2.9932,-3.107,-3.1315,-3.1247,0.0,0.0,0.0,0.0,0.0,0.0,-3.0511,-3.0529,-3.1198,-3.2598,-3.2373,-3.2891,-3.4364,-3.3348,-3.2831,-3.2814,-3.202,-3.1488,-3.121,-3.1507,-3.1641,-3.166,-3.2127,-3.2181,-3.1929,-3.166,-3.1034,-3.0136,-2.9537,-2.9123,-2.8778,-2.8175,-2.7891,-2.7724,0.0,0.0,0.0,0.0,0.0,0.0,0.0,0.0,0.0,0.0,0.0,-1.6073,-1.728,0.0,-2.0342,-2.105,-2.1711,-2.1493,0.0,0.0,-1.8968,-1.7525,-1.7885,-1.8145,-1.8145,-1.8125,-1.8112,-1.8171,-1.819,-1.8454,-1.8908,-1.9429,-1.9876,-2.0291,-2.1161,-2.2082,-2.2986,-2.3343,-2.3142,-2.263,0.0,0.0,0.0,0.0,0.0,0.0,0.0,0.0,0.0,0.0,0.0,0.0,0.0,0.0,0.0,0.0,0.0,0.0,0.0,0.0,0.0,0.0,0.0,0.0,0.0,0.0,0.0,0.0,0.0,0.0,0.0,0.0,0.0,0.0,0.0,0.0,0.0,0.0,0.0,-3.0716,-3.1067,0.0,0.0,0.0,0.0,-3.009,-3.009,-3.0565,-3.1668,-3.17,-3.2221,-3.332,-3.333,-3.3363,-3.3452,-3.2707,-3.2334,-3.2334,-3.1568,-3.123,-3.119,-3.123,-3.123,-3.1252,-3.166,-3.1826,-3.1829,-3.1931,-3.1274,-3.021,-3.0173,-2.943,-2.8433,-2.8379,-2.817,-2.7832,0.0,0.0,0.0,0.0,0.0,-1.0221,-1.1062,-1.1393,-1.2107,-1.3701,-1.4623,-1.5418,0.0,-1.7876,-1.9094,-1.9345,-1.9306,-1.9121,-1.8798,0.0,-1.7648,-1.7311,-1.7481,-1.7435,-1.7076,-1.7037,-1.719,-1.7585,-1.7927,-1.819,-1.8338,-1.8564,-1.8707,-1.8881,-1.9498,-2.0148,-2.0875,-2.2311,-2.2555,-2.1998,-2.2381,-2.2107,0.0,0.0,0.0,0.0,0.0,0.0,0.0,0.0,0.0,0.0,0.0,0.0,0.0,0.0,0.0,0.0,0.0,0.0,0.0,0.0,0.0,0.0,0.0,0.0,0.0,0.0,0.0,0.0,0.0,0.0,0.0,0.0,0.0,0.0,0.0,0.0,0.0,-3.1774,-3.2401,0.0,-3.2423,-3.2561,-3.2555,-3.2254,-3.2216,-3.2398,-3.2821,-3.2818,-3.3216,-3.4066,-3.4117,-3.4336,-3.4805,-3.3609,-3.3,-3.2983,-3.1782,-3.119,-3.119,-3.119,-3.119,-3.121,-3.1351,-3.1547,-3.1756,-3.1337,-3.0774,-3.0148,-2.9631,-2.8863,-2.8075,-2.8075,-2.7992,-2.789,0.0,0.0,0.0,0.0,-0.9319,-0.9536,-1.0529,-1.0697,-1.1331,-1.3107,-1.3748,-1.4233,-1.4662,-1.6329,-1.7322,-1.7178,-1.7225,-1.7134,-1.6811,0.0,-1.6059,-1.5918,-1.6239,-1.6265,-1.5898,-1.5852,-1.6024,-1.6425,-1.6768,-1.6957,-1.6957,-1.7151,-1.7328,-1.7558,-1.8043,-1.8565,-1.9192,-2.0687,-2.1351,-2.1443,-2.1816,-2.1726,-2.1337,0.0,0.0,0.0,0.0,0.0,0.0,0.0,0.0,0.0,0.0,0.0,0.0,0.0,0.0,0.0,0.0,0.0,0.0,0.0,0.0,0.0,0.0,0.0,0.0,0.0,0.0,0.0,0.0,0.0,0.0,0.0,0.0,0.0,0.0,0.0,-3.1163,-3.1969,-3.2719,-3.3061,-3.2792,-3.3422,-3.3724,-3.3427,-3.3406,-3.3508,-3.3761,-3.3778,-3.4117,-3.4844,-3.4878,-3.5115,-3.56,-3.4129,-3.3406,-3.3389,-3.1901,-3.119,-3.119,-3.119,-3.119,-3.119,-3.119,-3.1351,-3.1568,-3.1071,-3.0594,-3.0101,-2.9332,-2.8641,-2.8032,-2.7798,-2.7604,-2.7515,0.0,0.0,0.0,-0.8887,-0.8775,-0.9084,-1.0075,-1.0215,-1.073,-1.2124,-1.2325,-1.2483,-1.2888,-1.4339,-1.5098,-1.4644,-1.5589,-1.5565,-1.4023,-1.4438,-1.4266,-1.3254,-1.4116,-1.4629,-1.4629,-1.4629,-1.4629,-1.4629,-1.4652,-1.4675,-1.4675,-1.5217,-1.578,-1.6357,-1.6889,-1.7471,-1.8052,-1.8522,-1.9561,-2.091,-2.1286,-2.1452,-2.148,0.0,0.0,0.0,0.0,0.0,0.0,0.0,0.0,0.0,0.0,0.0,0.0,0.0,0.0,0.0,0.0,0.0,0.0,0.0,0.0,0.0,0.0,0.0,0.0,0.0,0.0,0.0,0.0,0.0,0.0,0.0,0.0,0.0,-2.9953,-3.0731,-3.1188,-3.1224,-3.1904,-3.2344,-3.2361,-3.3034,-3.3474,-3.3474,-3.3474,-3.3778,-3.4489,-3.4523,-3.4861,-3.5583,-3.56,-3.56,-3.56,-3.4129,-3.3406,-3.3389,-3.1901,-3.119,-3.119,-3.119,-3.119,-3.119,-3.119,-3.119,-3.119,-3.1173,-3.0768,-3.0083,-2.9395,-2.8827,-2.8295,-2.7584,-2.7052,-2.6758,0.0,0.0,-0.9187,-0.8178,-0.7993,-0.8089,-0.8306,-0.8348,-0.879,-1.0059,-1.0487,-1.0846,-1.1354,-1.206,-1.2457,-1.2318,-1.233,-1.2311,-1.2247,0.0,-1.3205,-1.3556,-1.3403,-1.3294,-1.3243,-1.2763,-1.2763,-1.3243,-1.3742,-1.3973,-1.3996,-1.4607,-1.5016,-1.5174,-1.5319,-1.5704,-1.6252,-1.6814,-1.7518,-1.8379,-1.9922,-2.0556,-2.0638,0.0,0.0,0.0,0.0,0.0,0.0,0.0,0.0,0.0,0.0,0.0,0.0,0.0,0.0,0.0,0.0,0.0,0.0,0.0,0.0,0.0,0.0,0.0,0.0,0.0,0.0,0.0,0.0,0.0,0.0,0.0,0.0,-2.9311,-3.0117,-3.0423,-3.092,-3.1877,-3.2645,-3.3305,-3.385,-3.4573,-3.4991,-3.4991,-3.4991,-3.5076,-3.5301,-3.5295,-3.538,-3.5583,-3.56,-3.56,-3.56,-3.4129,-3.3406,-3.3389,-3.1901,-3.119,-3.119,-3.119,-3.119,-3.119,-3.119,-3.119,-3.1157,-3.0632,-3.0598,-3.084,-3.0116,-2.9058,-2.793,-2.7743,-2.725,-2.6708,0.0,-0.8396,-0.8364,-0.7375,-0.71,-0.7077,-0.7197,-0.7123,-0.7376,-0.8234,-0.8558,-0.8824,-0.9138,-0.9772,-1.0102,-0.9915,-1.0087,-1.025,-1.0384,0.0,-1.1621,-1.244,-1.2156,-1.1941,-1.1905,-1.1513,-1.1513,-1.1896,-1.2289,-1.2503,-1.2503,-1.2874,-1.3209,-1.347,-1.3773,-1.4228,-1.4778,-1.5407,-1.5881,-1.6264,-1.7655,-1.8677,-1.9385,-1.9871,-2.0194,-2.0442,-2.1087,-2.1344,-2.1456,-2.1956,0.0,0.0,0.0,0.0,0.0,0.0,0.0,0.0,0.0,0.0,0.0,0.0,0.0,0.0,0.0,0.0,0.0,0.0,0.0,0.0,0.0,0.0,0.0,0.0,-2.88,-2.9656,-3.0286,-3.0831,-3.1472,-3.2243,-3.3241,-3.4032,-3.4455,-3.5182,-3.56,-3.56,-3.56,-3.56,-3.56,-3.56,-3.56,-3.56,-3.56,-3.56,-3.56,-3.4129,-3.3406,-3.3389,-3.1901,-3.119,-3.119,-3.119,-3.119,0.0,-3.119,-3.119,-3.1157,-3.0734,-3.0818,0.0,0.0,0.0,0.0,0.0,-2.7063,-2.6691,0.0,-0.7161,-0.7218,-0.6426,-0.6105,-0.6068,-0.6406,-0.6225,-0.6177,-0.6564,0.0,-0.6533,-0.6602,-0.7469,-0.7899,-0.7541,-0.8391,-0.8812,0.0,0.0,-0.9779,-1.0418,-1.0442,-1.0391,-1.0322,-1.0322,-1.0322,-1.0322,-1.0391,-1.0475,-1.0551,-1.0628,-1.1015,-1.1637,-1.2269,-1.2874,-1.3412,-1.4088,-1.4411,-1.4526,-1.5071,-1.6316,-1.782,-1.7866,-1.8207,-1.8755,-1.9761,-2.0482,-2.109,-2.2183,0.0,0.0,0.0,0.0,0.0,0.0,0.0,0.0,0.0,0.0,0.0,0.0,0.0,0.0,0.0,0.0,0.0,0.0,0.0,0.0,0.0,0.0,0.0,0.0,-2.8888,-2.99,-3.0514,-3.1661,-3.2429,-3.2417,-3.3567,-3.4435,-3.4503,-3.5172,-3.56,-3.56,-3.56,-3.56,-3.56,0.0,0.0,0.0,0.0,-3.5532,-3.5362,-3.4004,-3.3284,-3.3267,-3.1783,-3.1131,-3.119,-3.119,-3.119,-3.119,-3.119,-3.119,-3.119,-3.119,-3.1089,-3.0751,-2.872,-2.8332,-2.8688,-2.725,-2.6691,0.0,0.0,-0.5831,-0.5846,-0.5092,-0.502,-0.5039,-0.5013,-0.468,-0.4544,-0.4848,-0.4453,-0.4341,-0.4828,-0.5081,-0.5343,-0.5738,-0.5967,-0.6439,0.0,0.0,-0.8298,-0.822,-0.8207,-0.7956,-0.7427,-0.74,-0.74,-0.74,-0.7956,-0.8528,-0.9122,-0.9669,-1.0291,-1.0981,-1.1132,-1.1249,-1.139,-1.2006,-1.2614,-1.3229,-1.3812,-1.4835,-1.6059,-1.649,-1.7023,-1.7545,-1.7774,-1.8486,-1.9385,-1.9614,-2.022,-2.0849,-2.0527,0.0,0.0,0.0,0.0,0.0,0.0,0.0,0.0,0.0,0.0,0.0,0.0,0.0,0.0,0.0,0.0,0.0,0.0,0.0,0.0,-2.9142,-2.9834,-3.055,-3.1202,-3.2037,-3.2546,-3.2479,-3.3205,-3.3932,-3.4518,-3.5193,-3.56,-3.56,-3.56,-3.56,-3.56,-3.56,0.0,-3.4807,-3.5316,-3.5091,-3.3987,-3.3129,-3.2646,-3.258,0.0,0.0,-3.119,-3.119,-3.119,-3.119,-3.119,-3.119,-3.119,-3.119,-3.0497,-2.9382,-2.8942,-2.8467,-2.7908,-2.7029,-2.6691,-2.6691,-0.3556,-0.4058,-0.4367,-0.4093,-0.3737,-0.3575,-0.3814,-0.3317,-0.2945,-0.3071,-0.2835,-0.2769,-0.3058,-0.3606,-0.4065,-0.4378,-0.5007,0.0,0.0,-0.6889,-0.6942,-0.6567,-0.656,-0.6406,-0.6067,-0.6059,-0.6224,-0.6588,-0.6945,-0.7288,-0.7661,-0.7988,-0.8357,-0.8705,-0.9056,-0.9205,-0.9257,-1.0259,-1.0914,-1.1322,-1.1981,-1.2619,-1.3327,-1.4891,-1.5692,-1.6034,-1.6629,-1.7398,-1.8274,-1.9153,-1.9979,-2.065,-2.0716,-2.1514,-2.2309,0.0,0.0,0.0,0.0,0.0,0.0,0.0,0.0,0.0,0.0,0.0,0.0,0.0,0.0,-2.7152,0.0,0.0,-2.9654,-2.9998,-3.0597,-3.1122,-3.1451,-3.1824,-3.2161,-3.2505,-3.3146,-3.3697,-3.4079,-3.4399,-3.4609,-3.4609,-3.4609,-3.4609,-3.4609,-3.4609,-3.4447,-3.4112,-3.4423,-3.4121,-3.312,-3.2377,-3.1804,-3.144,-3.0674,-3.0293,-3.0314,-3.0918,-3.1035,-3.0777,-3.1055,-3.119,-3.1157,-3.0801,-2.9989,-2.8959,-2.8552,-2.7926,-2.7199,-2.6843,-2.6691,-2.6691,-0.2081,-0.248,-0.2958,-0.3164,-0.2678,-0.2377,-0.2749,-0.2145,-0.163,-0.163,-0.1518,-0.1496,-0.1607,-0.2554,-0.3271,0.0,0.0,0.0,0.0,-0.5434,-0.5255,-0.4872,-0.4862,-0.4854,-0.4872,-0.4862,-0.5161,-0.5756,-0.5756,-0.581,-0.5973,-0.5973,-0.6109,-0.6411,-0.6945,-0.7287,-0.7479,-0.8626,-0.9165,-0.9339,-0.9933,-1.0332,-1.0814,-1.2926,-1.3903,-1.426,-1.5395,-1.6239,-1.7078,-1.8708,-1.9656,-2.0224,-2.0737,-2.1379,-2.1887,-2.1806,-2.2206,0.0,0.0,0.0,0.0,0.0,0.0,0.0,0.0,0.0,-2.4695,-2.53,-2.6724,-2.8014,-2.8631,-2.9814,-3.0702,-3.0702,-3.1137,-3.1511,-3.1511,-3.1511,-3.171,-3.2327,-3.2986,-3.3417,-3.3417,-3.3505,-3.3582,-3.3582,-3.3582,-3.3582,-3.3582,-3.3582,-3.3531,-3.3417,-3.3531,-3.3144,-3.2216,-3.1618,-3.0975,-3.0313,-3.0057,-2.9761,-2.9429,-3.0414,-3.0597,-3.0145,-3.0638,-3.0858,-3.0808,-3.0185,-2.9484,-2.8762,-2.8059,-2.7351,-2.6691,-2.6691,-2.6691,-2.6691,0.0,-0.1872,-0.1869,-0.2112,-0.2339,-0.2305,-0.1846,-0.1327,-0.1006,-0.1006,-0.0538,-0.0403,-0.094,-0.1585,-0.2465,0.0,0.0,0.0,-0.3423,-0.2936,-0.2633,-0.2559,-0.2579,-0.2579,-0.2559,-0.2579,-0.2607,-0.27,-0.27,-0.3026,-0.3676,-0.3676,-0.4358,-0.5639,-0.5689,-0.6112,-0.6718,-0.6875,-0.7282,-0.7838,-0.7917,-0.8697,-0.9859,-1.015,-1.1006,-1.2153,-1.2938,-1.3914,-1.5006,-1.6219,-1.6996,-1.7497,-1.794,-1.8729,-1.9419,-1.8931,-1.9412,-1.992,-1.9097,-1.8517,-1.8334,-1.9114,-2.004,-2.0847,0.0,0.0,-2.5041,-2.513,-2.7261,-2.9117,-2.9204,-3.041,-3.1391,-3.1391,-3.1451,-3.1511,-3.1511,-3.1511,-3.1524,-3.1611,-3.2272,-3.2722,-3.2722,-3.3235,-3.3582,-3.3582,-3.3582,-3.3582,-3.3582,-3.3582,-3.3339,-3.2749,-3.3287,-3.2678,-3.0754,-3.0695,-3.032,-2.9601,-2.8989,-2.8966,-2.9406,-2.954,-2.9563,-2.9496,-2.9563,-2.9607,-2.9603,-2.9379,-2.8874,-2.8166,-2.7898,-2.7351,-2.6691,-2.6691,-2.6691,-2.6641,0.0,-0.3119,-0.3129,-0.2813,-0.21,-0.1611,-0.1698,-0.0952,-0.0381,-0.0381,-0.0471,-0.0475,-0.0394,-0.1301,-0.2289,0.0,0.0,0.0,-0.2497,-0.23,-0.1811,-0.0947,-0.0928,-0.0708,-0.0277,-0.0708,-0.1118,-0.1556,-0.1978,-0.2367,-0.2666,-0.2666,-0.2996,-0.3572,-0.3572,-0.374,-0.4103,-0.4953,-0.549,-0.5801,-0.6661,-0.7629,-0.8528,-0.8528,-0.9155,-1.022,-1.1697,-1.2929,0.0,0.0,-1.6181,-1.6968,-1.7449,-1.7952,-1.8385,-1.8668,-1.8906,-1.8965,-1.8524,-1.867,-1.8944,-1.9019,-1.975,-2.0557,-2.0733,-2.2039,-2.3572,-2.4705,-2.6258,-2.7938,-2.9587,-3.0656,-3.1382,0.0,-3.1824,-3.1944,-3.1555,-3.1511,-3.1511,-3.1511,-3.1768,-3.1951,-3.1951,-3.2201,-3.2379,-3.2379,-3.2379,-3.2379,-3.2379,-3.2379,-3.2256,-3.1951,-3.2228,-3.1613,-2.9983,-2.9993,-2.9468,-2.8419,-2.8458,-2.8463,-2.8376,-2.9088,-2.9406,-2.9406,-2.9406,-2.9406,-2.9333,-2.8446,-2.792,-2.7547,-2.6627,-2.6098,-2.5908,-2.6487,-2.6539,-2.6262,0.0,-0.4201,-0.432,-0.3882,-0.2585,-0.1606,-0.1563,-0.0806,-0.018,-0.0023,-0.0388,-0.0556,-0.029,-0.115,-0.199,-0.2602,-0.2584,-0.2234,-0.1506,-0.1348,-0.0724,0.0556,0.0598,0.0867,0.1387,0.0868,0.0352,-0.0194,-0.0723,-0.0974,-0.0974,-0.0974,-0.1085,-0.1307,-0.1503,-0.1699,-0.1975,-0.3244,-0.3908,-0.4186,-0.5317,-0.6306,-0.7128,-0.7388,-0.789,-0.8738,-1.0585,-1.1876,0.0,0.0,-1.517,-1.6148,-1.665,-1.7069,-1.7455,-1.8081,-1.8183,-1.8031,-1.7865,-1.8405,-1.8916,-1.8402,-1.9175,-2.0071,-2.0203,-2.1012,-2.2218,-2.3887,-2.5141,-2.6676,-2.8929,-3.024,-3.0987,-3.1132,-3.1767,-3.2049,-3.157,-3.1511,-3.1511,-3.1511,-3.1511,-3.1511,-3.1511,-3.1331,-3.1301,-3.1496,-3.1167,-3.1122,-3.1481,-3.1316,-3.1316,-3.1496,-3.1316,-3.0717,-2.9621,-2.9427,-2.8753,-2.7625,-2.8042,-2.8018,-2.7625,-2.8519,-2.8904,-2.8888,-2.8699,-2.8621,-2.8533,-2.7284,-2.6778,-2.6671,-2.5623,-2.5202,-2.5297,-2.6016,-2.607,-2.5744,0.0,0.0,-0.4692,-0.4989,-0.4147,-0.2863,-0.1184,-0.0895,-0.0659,-0.0071,-0.0024,-0.0242,-0.0802,-0.1013,-0.1377,-0.1962,-0.1505,-0.0836,-0.0111,0.0613,0.134,0.2091,0.2145,0.2145,0.2174,0.2145,0.2117,0.2091,0.2091,0.2063,0.2063,0.2063,0.1697,0.0971,0.025,-0.0472,-0.1192,-0.1947,-0.2674,-0.3352,-0.3608,-0.4434,-0.5668,-0.659,-0.7268,-0.7931,-0.9347,0.0,0.0,0.0,-1.3291,-1.4255,-1.4751,-1.5458,0.0,-1.6196,-1.647,-1.666,-1.6299,-1.6485,-1.6699,-1.6294,-1.7448,-1.8775,-1.9227,-2.0401,-2.1671,-2.2577,-2.4279,-2.5888,-2.6833,-2.8833,-3.0313,-3.0329,-3.1014,-3.1525,-3.1511,-3.1511,-3.1511,-3.1511,-3.1511,-3.1511,0.0,-3.0898,-3.0806,-3.1451,-3.0357,-3.0193,-3.1436,-3.0868,-3.0823,-3.1481,-3.0881,-3.0223,-2.9621,-2.8951,-2.8263,-2.76,-2.7625,-2.7625,-2.76,-2.765,-2.766,-2.7605,-2.696,-2.669,-2.6633,-2.5783,-2.5453,-2.5455,-2.5274,-2.5202,-2.5186,-2.524,-2.524,-2.5163,0.0,0.0,0.0,-0.583,-0.553,-0.4678,-0.2904,-0.1982,-0.127,-0.0687,-0.0249,0.0,0.0,0.0,0.0,0.0,-0.0498,0.0139,0.1393,0.17,0.2147,0.2899,0.339,0.3693,0.3735,0.3693,0.3442,0.301,0.2454,0.2202,0.2202,0.2202,0.2143,0.2014,0.1756,0.1573,0.1336,-0.003,-0.0751,-0.1132,-0.2881,-0.4155,-0.5145,-0.6611,-0.7567,-0.8341,0.0,0.0,0.0,-1.3043,-1.4011,-1.4639,-1.5068,-1.5205,-1.5119,-1.4588,-1.4956,-1.5302,-1.4304,-1.4334,-1.4644,-1.4767,-1.5863,-1.703,-1.7426,-1.8792,-2.017,-2.0852,-2.243,-2.416,-2.5753,-2.7514,-2.8876,-2.9348,-3.0043,-3.0544,-3.0672,-3.0208,-3.0042,-3.0644,-3.0703,0.0,0.0,0.0,0.0,-3.1451,-3.0702,-3.0387,-3.0821,-3.0627,-3.0417,-3.0238,-3.0013,-2.9579,-2.8936,-2.8712,-2.8248,-2.76,-2.76,-2.76,-2.76,-2.76,-2.736,-2.6926,-2.6692,-2.6348,-2.5893,-2.5153,-2.488,-2.4827,-2.4328,-2.4137,-2.4137,-2.4137,-2.4137,-2.4158,0.0,0.0,0.0,0.0,0.0,0.0,0.0,0.0,0.0,0.0,0.0,0.0,0.0,0.0,0.0,0.0,0.0,0.1418,0.289,0.0,0.3445,0.4443,0.4929,0.5206,0.5254,0.5206,0.4984,0.4556,0.4024,0.3824,0.3952,0.3952,0.3912,0.3803,0.3534,0.3129,0.2552,0.1167,0.0062,-0.0946,-0.2933,-0.434,-0.5423,-0.7179,-0.8106,0.0,0.0,0.0,0.0,-1.281,-1.384,-1.46,-1.4835,-1.4772,-1.4448,-1.38,-1.4009,-1.4186,-1.3078,-1.3305,-1.3792,-1.3542,-1.4486,-1.563,-1.626,-1.7326,-1.8468,-1.9578,-2.0875,-2.2385,-2.4476,-2.608,-2.7413,-2.8387,-2.916,-2.97,-2.9822,-2.9348,-2.9223,-2.9766,-2.9858,-2.9858,0.0,0.0,0.0,-3.1393,-3.0449,-3.0028,-3.0477,-3.0073,-2.9744,-2.9606,-2.9382,-2.9026,-2.8607,-2.8353,-2.8034,-2.76,-2.76,-2.7465,-2.7255,-2.748,-2.7106,-2.6243,-2.6243,-2.5869,-2.5187,-2.4515,-2.4231,-2.4201,-2.3774,-2.3595,-2.3595,-2.3595,-2.3595,-2.3659,0.0,0.0,0.0,0.0,0.0,0.0,0.0,0.0,0.0,0.0,0.0,0.0,0.0,0.0,0.0,0.0,0.0,0.0,0.4371,0.0,0.0,0.6534,0.6642,0.6642,0.6588,0.6642,0.6642,0.6588,0.6561,0.6721,0.7074,0.6989,0.6673,0.61,0.5363,0.4066,0.2378,0.1576,-0.0216,-0.2602,-0.3639,-0.493,-0.6401,-0.8171,0.0,0.0,0.0,0.0,0.0,-1.1602,-1.2835,-1.4028,-1.4028,-1.4063,-1.3998,-1.3561,-1.3409,-1.3219,-1.2436,-1.3136,-1.3778,-1.263,-1.3297,-1.4562,-1.5699,-1.6066,-1.6702,-1.8731,-1.9666,-2.0767,0.0,0.0,-2.5993,-2.7439,-2.8357,-2.8921,-2.8967,-2.8921,-2.8907,0.0,0.0,0.0,0.0,0.0,0.0,-3.1204,0.0,-2.9098,-3.0332,-2.9241,-2.888,-2.9487,-2.8876,-2.8547,-2.8547,-2.7929,-2.7575,-2.7534,-2.7504,-2.7161,-2.6553,-2.7136,-2.6718,-2.5555,-2.5508,-2.5135,-2.45,-2.3864,-2.3595,-2.3595,-2.3595,-2.3595,-2.3595,-2.3595,-2.3595,-2.3595,0.0,0.0,0.0,0.0,0.0,0.0,0.0,0.0,0.0,0.0,0.0,0.0,0.0,0.0,0.0,0.0,0.0,0.0,0.0,0.0,0.0,0.0,0.0,0.7155,0.6615,0.7128,0.7155,0.0,0.6064,0.6119,0.6701,0.565,0.5131,0.5065,0.4312,0.3105,0.1533,0.0686,-0.0792,-0.2709,0.0,-0.5596,-0.6708,0.0,0.0,0.0,0.0,0.0,-1.1458,-1.2057,-1.2694,-1.3291,-1.3291,-1.2841,-1.2212,-1.1512,-1.0828,-1.0282,-1.0117,-1.0457,-1.1002,-1.1539,-1.2614,-1.3692,-1.4202,-1.5435,-1.6647,-1.7195,-1.8718,-2.0484,-2.2207,0.0,0.0,-2.7088,-2.7242,0.0,-2.8478,-2.7766,0.0,-2.7953,0.0,-2.8019,-2.8019,-2.8452,0.0,0.0,-2.8707,-2.8351,-2.8826,-2.855,-2.8301,-2.8113,-2.7944,-2.7854,-2.7854,-2.769,-2.7331,-2.6774,-2.6316,-2.5995,-2.5745,-2.5034,-2.4761,-2.4836,-2.4376,-2.4055,-2.3849,-2.367,-2.3595,-2.3595,-2.3595,-2.3595,-2.3595,-2.3595,-2.3595,-2.3595,0.0,0.0,0.0,0.0,0.0,0.0,0.0,0.0,0.0,0.0,0.0,0.0,0.0,0.0,0.0,0.0,0.0,0.0,0.0,0.0,0.0,0.0,0.7969,0.7996,0.7584,0.772,0.7558,0.0,0.0,0.0,0.0,0.4825,0.3903,0.338,0.2658,0.1147,-0.0842,-0.133,0.0,0.0,0.0,0.0,0.0,0.0,0.0,0.0,0.0,0.0,-1.074,-1.0673,-1.1373,-1.2158,-1.1674,-1.1159,-1.0627,-0.9808,-0.9246,-0.8926,-0.9286,-0.9581,-1.0024,-1.0987,-1.186,-1.2647,-1.3355,-1.4679,-1.5938,-1.6487,-1.8039,-1.9782,-2.1313,-2.2356,-2.3802,0.0,0.0,0.0,-2.776,-2.7112,-2.6692,0.0,-2.7162,0.0,-2.7162,-2.7604,-2.7887,0.0,-2.7981,-2.7963,-2.7822,-2.754,-2.7144,-2.6642,-2.6613,-2.6613,-2.6613,-2.6613,-2.6443,-2.6,-2.5402,-2.4963,-2.4643,-2.3996,-2.3561,-2.332,0.0,-2.3247,-2.3224,-2.3224,-2.3355,-2.3595,-2.3595,-2.3595,-2.3595,-2.3595,-2.3595,-2.3551,0.0,0.0,0.0,0.0,0.0,0.0,0.0,0.0,0.0,0.0,0.0,0.0,0.0,0.0,0.0,0.0,0.0,0.0,0.0,0.0,0.0,0.0,0.8507,0.8507,0.8507,0.7895,0.7478,0.0,0.0,0.0,0.0,0.0,0.0,0.0,0.0,0.0,0.0,0.0,0.0,0.0,0.0,0.0,0.0,0.0,0.0,0.0,0.0,-1.0229,-0.9434,-0.8528,-0.9387,-1.0735,-0.974,-0.9379,-0.9141,-0.8433,-0.8227,-0.8434,-0.9169,-0.9668,-1.0158,-1.0928,-1.1323,-1.1812,-1.2917,-1.3897,-1.4913,-1.6148,-1.7465,-1.8891,-2.0494,-2.1123,-2.2375,-2.5308,0.0,-2.5528,-2.7087,-2.6839,-2.6499,-2.6499,-2.6499,-2.6499,-2.6499,-2.6499,-2.6461,-2.6386,-2.7175,-2.7493,-2.7042,-2.6423,-2.5848,-2.5412,-2.5315,-2.5273,-2.5273,-2.5218,-2.5122,-2.5012,-2.4434,-2.3857,-2.3336,-2.3226,-2.2644,-2.1724,0.0,0.0,-2.2581,-2.2581,-2.2875,-2.3363,-2.3363,-2.3363,-2.3363,-2.3363,-2.3363,-2.3275,0.0,0.0,0.0,0.0,0.0,0.0,0.0,0.0,0.0,0.0,-0.173,-0.019,0.0,0.0,0.0,0.0,0.0,0.0,0.0,0.0,0.0,0.0,0.6993,0.6993,0.6993,0.6285,0.5602,0.4981,0.0,0.0,0.0,0.0,0.0,0.0,0.0,0.0,0.0,0.0,0.0,0.0,0.0,0.0,0.0,0.0,0.0,0.0,-0.9247,-0.8997,-0.8776,-0.7559,-0.7851,-0.874,-0.8627,-0.8122,-0.7495,-0.7358,-0.7389,-0.7659,-0.8543,-0.9585,-1.0664,-1.1512,-1.1937,-1.2201,-1.243,-1.3194,-1.4165,-1.5217,-1.6501,-1.8126,-2.0388,-2.1123,-2.2375,-2.5308,-2.5361,-2.5528,-2.7087,-2.6839,-2.6499,0.0,-2.6499,-2.6499,-2.6499,-2.6499,0.0,0.0,0.0,-2.6071,-2.6118,-2.5591,-2.5314,-2.5398,-2.4914,-2.4664,-2.4664,-2.4218,-2.3682,-2.3085,-2.2523,-2.2163,-2.1902,-2.0927,-2.0916,-2.1687,-2.1307,0.0,-2.1875,-2.1875,-2.1946,-2.2025,-2.2025,-2.2025,-2.2025,-2.2025,-2.2025,-2.2002,0.0,0.0,0.0,0.0,0.0,0.0,0.0,-0.3001,-0.306,-0.3226,-0.2289,-0.0766,0.1387,0.1977,0.2815,0.0,0.0,0.0,0.0,0.0,0.0,0.0,0.0,0.6416,0.604,0.5006,0.3868,0.2688,0.0,0.0,0.0,0.0,0.0,0.0,0.0,0.0,0.0,0.0,0.0,0.0,0.0,0.0,0.0,0.0,0.0,0.0,0.0,-0.7909,-0.7866,-0.6793,-0.6927,-0.7468,-0.7235,-0.7281,-0.7475,-0.7475,-0.7877,-0.8614,-0.9912,-1.0687,-1.1368,-1.2382,-1.2678,-1.2654,-1.2375,-1.3025,-1.3854,-1.4314,-1.5893,-1.7623,-1.9051,-2.0042,-2.1437,-2.3898,-2.3802,-2.4171,-2.6251,-2.6064,-2.5908,-2.643,-2.6499,-2.6499,-2.6499,-2.6223,-2.59,0.0,0.0,-2.4804,-2.4921,-2.4368,-2.3968,-2.3787,-2.3512,-2.3209,-2.2933,-2.2683,-2.2363,-2.2023,-2.1482,-2.1185,-2.1093,-2.0205,-2.0131,-2.0706,-2.0421,0.0,-2.1221,-2.1221,-2.1424,-2.1697,-2.1697,-2.1697,-2.1697,-2.1697,-2.1697,-2.1663,0.0,0.0,0.0,0.0,0.0,0.0,0.0,-0.3332,-0.3428,-0.3622,-0.3063,-0.1943,-0.0055,0.111,0.2395,0.0,0.0,0.0,0.0,0.0,0.0,0.0,0.0,0.5303,0.4566,0.0,0.0,-0.0218,-0.2216,0.0,0.0,0.0,0.0,0.0,0.0,0.0,0.0,0.0,0.0,0.0,0.0,0.0,0.0,0.0,0.0,0.0,0.0,-0.7624,-0.7627,-0.6867,-0.6973,-0.7372,-0.7041,-0.7443,-0.8056,-0.8274,-0.9095,-1.0235,-1.1686,-1.2226,-1.2558,-1.3372,-1.3382,-1.312,-1.2684,-1.3025,-1.3455,-1.3673,-1.5178,-1.6764,-1.7731,-1.8751,-2.019,-2.236,-2.2317,-2.2783,-2.4993,-2.5134,-2.53,-2.6094,-2.6236,0.0,-2.6058,-2.5514,0.0,0.0,0.0,0.0,-2.3816,-2.3358,-2.2844,-2.2334,-2.2196,-2.187,-2.1345,-2.1192,-2.1129,-2.1129,-2.0717,-2.0515,-2.049,-2.0012,-1.9798,-1.9798,-1.9798,0.0,0.0,-2.0597,-2.0868,-2.1304,-2.1304,-2.1304,-2.1304,-2.1304,-2.1304,-2.1232,0.0,0.0,0.0,0.0,0.0,0.0,0.0,-0.4466,-0.4767,-0.444,-0.4275,-0.3865,-0.2991,-0.105,0.1056,0.0,0.0,0.0,0.0,0.0,0.0,0.0,0.0,0.0,0.0,0.0,0.0,-0.443,-0.6229,0.0,0.0,0.0,0.0,0.0,0.0,0.0,0.0,0.0,0.0,0.0,0.0,0.0,0.0,0.0,0.0,0.0,0.0,-0.8985,-0.9063,-0.8673,-0.8788,-0.9207,-0.9866,-0.9435,-0.8895,-0.9807,-1.0955,-1.2085,-1.2719,-1.3859,-1.4776,-1.446,-1.3999,-1.3636,-1.3593,-1.2989,-1.2659,-1.3528,-1.3876,-1.4811,-1.7418,-1.7998,-1.8948,-2.1642,-2.2021,-2.2414,-2.3545,-2.4443,-2.504,-2.5123,0.0,0.0,-2.4564,-2.4006,0.0,0.0,0.0,0.0,-2.3153,-2.3133,-2.2844,-2.2334,-2.1832,-2.1333,-2.0779,-2.0225,-1.9962,-1.9962,-1.9911,-1.9874,-1.9874,-1.9823,-1.9798,-1.9798,-1.9798,0.0,0.0,-1.9901,-1.9927,-1.9965,-1.9965,-1.9965,-1.9965,-1.9965,-1.9965,-1.9965,0.0,0.0,0.0,0.0,0.0,0.0,-0.5176,-0.5449,-0.5515,-0.5155,-0.5456,-0.5276,-0.4081,-0.3761,-0.2294,0.1021,0.0,0.0,0.0,0.0,0.0,0.0,0.0,0.0,0.0,0.0,0.0,-0.7902,-0.9951,0.0,0.0,0.0,0.0,0.0,0.0,-1.3846,0.0,0.0,0.0,0.0,0.0,0.0,0.0,0.0,0.0,0.0,0.0,0.0,-1.0851,-1.0702,-1.1058,-1.1607,-1.2004,-1.2249,-1.2333,-1.2315,-1.3086,-1.4165,-1.4967,-1.5377,-1.5635,-1.5756,-1.5403,-1.4778,-1.3909,-1.3419,-1.3098,-1.2915,-1.331,-1.4379,-1.6592,-1.7496,-1.8602,-2.0813,-2.1155,-2.1489,-2.244,-2.2925,-2.3341,-2.3707,-2.3875,0.0,0.0,0.0,0.0,0.0,0.0,0.0,-2.1188,-2.2107,-2.2355,-2.1832,-2.1307,-2.0754,-2.015,-1.9911,-1.9798,-1.9798,-1.9798,-1.9798,-1.9798,-1.9798,-1.9798,-1.9798,-1.9798,0.0,0.0,-1.9307,-1.9397,-1.9747,-1.9319,-1.9423,-1.9798,-1.9798,-1.9527,-1.9202,0.0,0.0,0.0,0.0,0.0,-0.589,-0.5702,-0.6085,-0.6182,-0.5581,-0.6335,-0.6524,-0.5494,-0.6187,-0.5464,-0.2356,-0.0674,0.0,0.0,0.0,0.0,0.0,0.0,0.0,0.0,0.0,0.0,-1.157,-1.3685,-1.4749,0.0,0.0,-1.4071,-1.424,0.0,0.0,0.0,0.0,0.0,0.0,0.0,0.0,0.0,0.0,0.0,0.0,0.0,0.0,0.0,0.0,0.0,-1.4455,-1.4849,-1.5452,-1.5803,-1.4657,-1.5111,-1.6157,-1.6986,-1.7231,-1.7325,-1.7542,-1.7235,-1.6533,-1.5232,-1.449,-1.3854,-1.3028,-1.3167,-1.397,-1.5765,-1.6898,-1.8163,-1.9848,-2.0401,-2.0828,-2.1479,-2.1811,-2.2174,-2.2575,0.0,-2.2404,0.0,-2.0937,0.0,0.0,0.0,0.0,0.0,-2.0687,-2.1124,-2.0616,-2.0471,-1.999,-1.9162,-1.915,-1.915,-1.915,-1.9371,-1.9371,-1.915,-1.9371,-1.9371,-1.915,0.0,0.0,0.0,-1.8581,-1.8688,-1.9097,-1.8581,-1.8688,-1.915,-1.915,-1.8821,-1.8447,0.0,0.0,0.0,0.0,0.0,0.0,-0.5167,-0.6268,-0.6851,-0.5652,-0.6767,-0.7696,-0.767,-0.8085,-0.7982,-0.7003,-0.3585,0.0,0.0,0.0,0.0,0.0,0.0,0.0,0.0,0.0,0.0,-1.5751,-1.7419,-1.8341,-1.8507,-1.6972,-1.5918,-1.5235,0.0,0.0,0.0,0.0,0.0,0.0,0.0,0.0,0.0,0.0,0.0,0.0,0.0,0.0,0.0,0.0,0.0,0.0,0.0,-1.9131,-1.8752,-1.6689,-1.6925,-1.7974,-1.8454,-1.9543,-2.0435,-1.9974,-1.9499,-1.8944,-1.8044,-1.6381,-1.4824,-1.4298,-1.3454,-1.3337,-1.5011,-1.6182,-1.7361,-1.8775,-1.9923,-2.0605,-2.0605,-2.1413,-2.1989,0.0,0.0,-2.1702,-2.0896,0.0,0.0,0.0,0.0,0.0,0.0,-1.8956,-1.8958,-1.8532,-1.9216,-1.8959,-1.7633,-1.7633,-1.7633,-1.7633,-1.8367,-1.834,-1.766,-1.8382,-1.8301,0.0,0.0,0.0,0.0,-1.7605,-1.7633,-1.7633,-1.7605,-1.7633,-1.7633,-1.7633,-1.7633,-1.7605,0.0,0.0,0.0,0.0,0.0,0.0,0.0,-0.7366,-0.7738,-0.7084,-0.8257,-0.8771,-0.7803,-0.8639,-0.8926,-0.8047,-0.5586,0.0,0.0,0.0,0.0,0.0,0.0,0.0,0.0,0.0,-1.5014,-1.8108,-2.0169,-2.1185,-2.1171,-1.9626,-1.8379,-1.7416,-1.6107,0.0,0.0,0.0,0.0,0.0,0.0,0.0,0.0,0.0,0.0,0.0,0.0,0.0,0.0,0.0,0.0,0.0,0.0,0.0,0.0,-1.9361,-1.9457,-1.9771,-1.9942,-2.0275,-2.0546,-2.0432,-2.0285,-1.9749,-1.8221,-1.7426,-1.6655,-1.5536,-1.5073,-1.5399,-1.7153,-1.7765,-1.844,-1.9856,-2.0362,0.0,-2.0605,-2.0867,0.0,-2.0219,-1.9616,-1.9172,0.0,0.0,0.0,0.0,0.0,0.0,0.0,-1.7623,-1.8028,-1.8492,-1.8339,-1.8038,-1.7605,-1.7605,-1.7605,-1.7605,-1.7852,-1.7825,-1.7605,-1.7841,0.0,0.0,0.0,0.0,0.0,-1.7062,-1.7146,-1.755,-1.7062,-1.7174,-1.7605,-1.7605,-1.7274,-1.6922,0.0,0.0,0.0,0.0,0.0,0.0,0.0,-0.7802,-0.8358,-0.8106,-0.9072,-0.9477,-0.8587,-0.9472,-0.9941,-0.9401,-0.8792,0.0,0.0,0.0,0.0,0.0,0.0,0.0,0.0,-1.4295,-1.7314,-2.0129,-2.2469,-2.3343,-2.2865,-2.1507,-2.0273,-1.9056,-1.7336,0.0,0.0,0.0,0.0,0.0,0.0,0.0,0.0,0.0,0.0,0.0,0.0,0.0,0.0,0.0,0.0,0.0,0.0,0.0,0.0,0.0,-2.1542,-2.1479,-2.1164,-2.1322,-2.1542,-2.1542,-2.1542,-2.1078,-1.9313,-1.8655,-1.7993,-1.6552,-1.5956,-1.6095,-1.7319,-1.7899,-1.8493,-1.9373,-1.9976,-2.0361,0.0,0.0,0.0,-1.9141,0.0,0.0,0.0,0.0,0.0,0.0,0.0,0.0,0.0,-1.6759,-1.6952,-1.7316,-1.7242,-1.7052,-1.6771,-1.6771,-1.6771,-1.6771,-1.7052,-1.7052,-1.6771,-1.7052,0.0,0.0,0.0,0.0,0.0,-1.6283,-1.6368,-1.6715,-1.6255,-1.6368,-1.6771,-1.6771,-1.6472,-1.6151,0.0,0.0,0.0,0.0,0.0,0.0,0.0,-0.7887,-0.8874,-0.8945,-0.9622,-1.0056,-0.9997,-1.0655,-1.111,-1.113,0.0,0.0,0.0,0.0,0.0,0.0,0.0,0.0,0.0,-1.7235,-1.9433,-2.1823,-2.423,-2.4864,-2.3795,-2.2802,-2.1653,-2.0289,-1.8385,0.0,0.0,0.0,0.0,0.0,0.0,0.0,0.0,0.0,0.0,0.0,0.0,0.0,0.0,0.0,0.0,0.0,0.0,0.0,0.0,0.0,0.0,0.0,0.0,-2.2537,-2.3108,-2.3108,-2.3108,-2.2659,-2.0974,-1.9933,0.0,-1.7429,-1.6439,-1.5918,-1.6233,-1.7119,-1.7867,-1.7894,-1.9052,-1.9951,0.0,-1.9863,0.0,0.0,-1.8568,0.0,0.0,0.0,0.0,0.0,0.0,0.0,0.0,-1.626,-1.586,-1.542,-1.6034,-1.6063,-1.541,-1.5381,-1.5381,-1.541,-1.6093,-1.6065,-1.541,-1.6122,0.0,0.0,0.0,0.0,0.0,-1.541,-1.541,-1.541,-1.541,-1.541,-1.541,-1.541,-1.541,-1.541,0.0,0.0,0.0,0.0,0.0,0.0,0.0,0.0,0.0,0.0,-1.2305,-1.2551,-1.1944,-1.2658,-1.3218,0.0,0.0,0.0,0.0,0.0,0.0,0.0,0.0,0.0,0.0,-1.8979,-2.0861,-2.2923,-2.458,-2.525,-2.4974,-2.417,-2.3143,-2.187,-1.9844,0.0,0.0,0.0,0.0,0.0,0.0,0.0,0.0,0.0,0.0,0.0,-1.836,-1.8476,0.0,0.0,0.0,0.0,0.0,0.0,0.0,0.0,-2.3108,-2.3078,-2.2884,0.0,-2.3108,-2.3108,-2.3108,-2.2659,0.0,-2.044,-1.9878,-1.8516,-1.8048,-1.8122,-1.8845,-1.9221,-1.9487,-1.9851,-2.0226,-2.0293,-1.9961,0.0,0.0,-1.8627,-1.8315,0.0,0.0,0.0,0.0,0.0,0.0,0.0,0.0,-1.5801,-1.5518,-1.5391,-1.5268,-1.5249,-1.541,-1.5088,-1.5098,-1.541,-1.5584,-1.5584,-1.541,-1.5584,0.0,0.0,0.0,0.0,-1.541,-1.541,-1.541,-1.541,-1.541,-1.541,-1.541,-1.541,-1.541,-1.541,0.0,0.0,0.0,0.0,0.0,0.0,0.0,0.0,0.0,0.0,0.0,0.0,0.0,0.0,0.0,0.0,0.0,0.0,0.0,0.0,0.0,0.0,0.0,0.0,-1.9971,-2.1069,-2.2401,-2.3937,-2.5546,-2.6034,-2.5476,-2.4987,-2.4065,-2.2668,-1.9963,0.0,0.0,0.0,0.0,0.0,0.0,0.0,0.0,0.0,0.0,0.0,-1.7463,-1.7577,0.0,-1.9135,-1.9762,-2.0159,0.0,0.0,0.0,0.0,-2.2823,-2.3108,-2.3108,-2.3108,-2.317,-2.3434,-2.3296,-2.2733,-2.1291,-2.0791,-2.0183,-1.8626,-1.8315,-1.8461,-1.8955,-1.9199,-1.9404,-1.9639,-1.9844,0.0,0.0,0.0,-1.8529,-1.8344,-1.8144,0.0,0.0,0.0,0.0,0.0,0.0,0.0,0.0,-1.5644,-1.541,-1.541,-1.4496,-1.4372,-1.5117,-1.4697,-1.4707,-1.5127,-1.5127,-1.5225,-1.541,-1.541,-1.541,0.0,0.0,0.0,-1.54,-1.5205,-1.5127,-1.5107,-1.4902,-1.4618,-1.4355,-1.4515,-1.462,-1.4677,0.0,0.0,0.0,0.0,0.0,0.0,0.0,0.0,0.0,0.0,0.0,0.0,0.0,0.0,0.0,0.0,0.0,0.0,0.0,0.0,0.0,0.0,0.0,-2.0776,-2.2656,-2.3311,-2.3971,-2.4679,-2.6307,-2.6534,-2.5427,-2.5267,-2.4348,-2.2667,-1.965,0.0,0.0,0.0,0.0,0.0,0.0,0.0,0.0,0.0,0.0,0.0,0.0,0.0,0.0,-1.8583,-1.8868,-1.8693,-2.0314,0.0,0.0,0.0,0.0,0.0,-2.2695,-2.2811,-2.3099,-2.371,-2.3471,-2.2782,-2.1575,-2.0925,-2.0107,-1.8361,-1.8008,-1.8047,-1.8174,-1.8461,-1.8744,0.0,0.0,0.0,-1.8444,-1.8213,-1.8005,-1.7798,0.0,0.0,0.0,0.0,0.0,0.0,0.0,0.0,0.0,-1.5615,-1.5323,-1.5168,-1.3867,-1.3562,-1.4362,-1.4032,-1.4125,-1.4645,-1.4757,-1.501,-1.541,-1.541,-1.541,0.0,0.0,0.0,-1.5139,-1.4781,-1.4541,-1.4361,-1.3943,-1.3486,-1.3048,-1.3297,-1.3487,-1.3652,0.0,0.0,0.0,0.0,0.0,0.0,0.0,0.0,0.0,0.0,0.0,0.0,0.0,0.0,0.0,0.0,0.0,0.0,0.0,0.0,0.0,0.0,-2.5365,-2.4289,-2.4004,-2.5358,-2.555,-2.4531,-2.5438,-2.549,-2.4754,-2.4716,-2.355,-2.1441,-2.0155,-1.853,-1.6716,0.0,0.0,0.0,0.0,0.0,0.0,0.0,0.0,0.0,0.0,0.0,0.0,-1.7103,-1.7792,-1.83,-1.9496,0.0,0.0,0.0,0.0,0.0,-2.0891,-2.1542,-2.2334,-2.3056,-2.317,-2.2684,-2.1097,-2.0679,-2.0107,-1.8361,-1.8008,-1.8232,-1.8955,-1.9141,-1.9424,0.0,0.0,-1.7944,0.0,0.0,-1.6,0.0,0.0,0.0,0.0,0.0,0.0,0.0,0.0,0.0,0.0,-1.5449,-1.4975,-1.4079,-1.3723,-1.3139,-1.2348,-1.2618,-1.3157,-1.3949,-1.4523,-1.501,-1.541,-1.541,-1.541,0.0,0.0,-1.4888,-1.4032,-1.3977,-1.3372,-1.2505,-1.2453,-1.2513,-1.2645,-1.242,-1.2521,-1.278,0.0,0.0,0.0,0.0,0.0,0.0,0.0,0.0,0.0,0.0,0.0,0.0,0.0,0.0,0.0,0.0,0.0,0.0,0.0,0.0,0.0,-2.7271,-2.6725,-2.6404,-2.6346,-2.6754,-2.6496,-2.5525,-2.5585,-2.545,-2.5143,-2.5118,-2.4056,-2.2172,-2.0996,-1.9601,-1.8078,0.0,0.0,0.0,0.0,0.0,0.0,0.0,0.0,0.0,0.0,0.0,0.0,0.0,-1.6925,-1.6869,-1.8541,0.0,0.0,0.0,0.0,0.0,-1.9831,-2.0357,-2.0935,-2.1285,-2.2125,-2.2558,-2.132,-2.0456,-1.9529,-1.8269,-1.8008,-1.8203,-1.8818,0.0,-1.9267,-1.9156,0.0,-1.6605,-1.6188,-1.5591,0.0,0.0,0.0,0.0,0.0,0.0,0.0,0.0,0.0,0.0,0.0,0.0,-1.4487,-1.4326,-1.2893,-1.2112,-1.2022,-1.1529,-1.1802,-1.2781,-1.3263,-1.364,-1.3898,-1.4055,-1.4085,-1.4085,0.0,-1.3753,-1.3122,-1.2876,-1.2389,-1.1741,-1.1514,-1.1393,-1.1355,-1.1435,-1.1636,-1.1876,0.0,0.0,0.0,0.0,0.0,0.0,0.0,0.0,0.0,0.0,0.0,0.0,0.0,0.0,0.0,0.0,0.0,0.0,0.0,0.0,-2.644,-2.6627,-2.7045,-2.7341,-2.7411,-2.7238,-2.6792,-2.6167,-2.5637,-2.5442,-2.5606,-2.5544,-2.4724,-2.3268,-2.1793,-2.0475,-1.9212,-1.8045,-1.7715,0.0,0.0,0.0,0.0,0.0,0.0,0.0,0.0,0.0,0.0,0.0,0.0,0.0,0.0,0.0,0.0,-1.7998,-1.8329,-1.8561,-1.8682,-1.9089,-1.9488,-1.9457,-2.0834,-2.2013,-2.123,-2.0201,-1.9199,-1.8316,-1.812,-1.8217,-1.8539,-1.8805,0.0,-1.7575,-1.6326,-1.5288,-1.4814,0.0,0.0,0.0,0.0,0.0,0.0,0.0,0.0,0.0,0.0,0.0,0.0,0.0,-1.3548,-1.3877,-1.1938,-1.1105,-1.1535,-1.0609,-1.0647,-1.1577,-1.1991,-1.2294,-1.2501,-1.2688,-1.2783,-1.2783,-1.2783,-1.2525,-1.2086,-1.1727,-1.1293,-1.0857,-1.0535,-1.0314,-1.0195,-1.0594,-1.0785,-1.0894,0.0,0.0,0.0,0.0,0.0,0.0,0.0,0.0,0.0,0.0,0.0,0.0,0.0,0.0,0.0,0.0,0.0,0.0,0.0,0.0,-2.6558,-2.729,-2.7325,-2.6722,-2.5432,-2.6167,-2.6206,-2.5456,-2.4919,-2.4993,-2.5606,-2.5544,-2.4961,-2.3971,-2.237,-2.0773,-1.9233,-1.8331,-1.7978,-1.8008,0.0,0.0,0.0,0.0,0.0,0.0,0.0,0.0,0.0,0.0,0.0,0.0,0.0,0.0,-1.7314,-1.6939,-1.661,-1.6405,-1.6799,-1.7585,-1.8292,-1.815,-1.945,-2.0629,-2.0103,-1.9949,-1.962,-1.8724,-1.8559,-1.8568,0.0,-1.8253,-1.7538,-1.6159,-1.5133,-1.4235,0.0,0.0,0.0,0.0,0.0,0.0,0.0,0.0,0.0,0.0,0.0,0.0,0.0,0.0,0.0,-1.1192,-1.0999,-1.0572,-0.9882,-0.9775,-1.0017,-1.0609,-1.1271,-1.1766,-1.2136,-1.2161,-1.217,-1.217,-1.217,-1.1602,-1.0647,-1.0616,-0.997,-0.9017,-0.9241,-0.9498,-0.9773,-1.0063,-1.0009,-0.9822,0.0,0.0,0.0,0.0,0.0,0.0,0.0,0.0,0.0,0.0,0.0,0.0,0.0,0.0,0.0,0.0,0.0,0.0,0.0,0.0,-2.5137,-2.5116,-2.4669,-2.4354,-2.4153,-2.5602,-2.6002,-2.5282,-2.524,-2.5542,-2.6163,-2.66,-2.6596,-2.612,-2.4108,-2.2595,-2.1491,-1.9596,-1.8821,-1.871,-1.7584,0.0,0.0,0.0,0.0,0.0,0.0,0.0,0.0,0.0,-1.5996,-1.5976,0.0,-1.6434,-1.6182,-1.6279,-1.6006,-1.5693,-1.5839,-1.6575,-1.7264,-1.7211,-1.8092,-1.9085,-1.9452,-1.9305,-1.9078,-1.9056,-1.8792,0.0,0.0,0.0,-1.5538,-1.503,-1.3748,0.0,0.0,0.0,0.0,0.0,0.0,0.0,0.0,0.0,0.0,0.0,0.0,0.0,0.0,0.0,0.0,-1.1274,-1.0356,-0.9946,-1.0196,-0.9652,-0.9418,-0.9447,-1.0069,-1.0353,-1.0315,-1.052,-1.0608,-1.0608,-1.0608,-1.0263,-0.9694,-0.9694,-0.9439,-0.9098,-0.957,-0.9824,-0.9947,-0.9873,-0.978,-0.9633,0.0,0.0,0.0,0.0,0.0,0.0,0.0,0.0,0.0,0.0,0.0,0.0,0.0,0.0,0.0,0.0,0.0,0.0,0.0,-2.5446,-2.4545,-2.3923,-2.3101,-2.2826,-2.3139,-2.4639,-2.5349,-2.5202,-2.5648,-2.597,-2.6208,-2.7151,-2.7465,-2.7102,-2.5033,-2.3687,-2.2867,-2.0642,-1.9562,-1.9199,-1.7964,-1.6825,0.0,0.0,0.0,0.0,0.0,0.0,0.0,0.0,-1.4974,0.0,0.0,0.0,0.0,0.0,-1.5194,-1.5161,-1.4853,-1.5619,-1.6459,-1.6291,-1.6931,-1.7733,-1.8328,-1.8542,-1.8685,-1.9023,-1.8482,-1.7593,-1.6338,0.0,0.0,0.0,0.0,0.0,0.0,0.0,0.0,0.0,0.0,0.0,0.0,0.0,0.0,0.0,0.0,0.0,0.0,0.0,0.0,0.0,-0.9677,-0.9412,-1.007,-0.9412,-0.8978,-0.8811,-0.9218,-0.9299,-0.9084,-0.9312,-0.9406,-0.9406,-0.9406,-0.9292,-0.9084,-0.9178,-0.9324,-0.9531,-0.993,-1.0083,-1.0094,-0.9893,-0.9706,-0.9486,0.0,0.0,0.0,0.0,0.0,0.0,0.0,0.0,0.0,0.0,0.0,0.0,0.0,0.0,0.0,0.0,0.0,0.0,0.0,-2.6295,-2.5191,-2.4302,-2.3185,-2.252,-2.2413,-2.3123,-2.4055,-2.5198,-2.5998,-2.6081,-2.5545,-2.6944,-2.7203,-2.6443,-2.4843,-2.3703,-2.2915,-2.1307,-2.0139,-1.9332,-1.9299,-1.7942,0.0,0.0,0.0,0.0,0.0,0.0,0.0,0.0,-1.3271,-1.3534,0.0,0.0,0.0,-1.3116,-1.3913,-1.4684,-1.3663,-1.4697,-1.5938,-1.5414,-1.5991,-1.6654,-1.6592,-1.763,-1.8562,-1.8562,-1.7497,-1.5992,-1.4055,-1.3702,0.0,0.0,0.0,0.0,0.0,0.0,0.0,0.0,0.0,0.0,0.0,0.0,0.0,0.0,0.0,0.0,0.0,0.0,0.0,0.0,-0.8931,-0.8918,-0.9204,-0.8924,-0.8804,-0.8804,-0.8804,-0.8804,-0.8804,-0.8804,-0.8804,-0.8804,-0.8804,-0.8804,-0.8831,-0.9098,-0.9564,-1.0083,-1.0083,-1.0083,-1.0083,-1.0077,-0.971,-0.9211,0.0,0.0,0.0,0.0,0.0,0.0,0.0,0.0,0.0,0.0,0.0,0.0,0.0,0.0,0.0,0.0,0.0,0.0,0.0,-2.4868,-2.3603,-2.2331,-2.1667,-2.1494,-2.1831,-2.3241,-2.4416,-2.5278,-2.5644,-2.6208,-2.6924,-2.7373,-2.7484,-2.7229,-2.6226,-2.5156,-2.3953,-2.2324,-2.1494,-2.0981,-1.8625,-1.7539,0.0,0.0,0.0,0.0,0.0,0.0,0.0,0.0,0.0,0.0,0.0,0.0,0.0,-1.3085,-1.3411,-1.3739,-1.3262,-1.3721,-1.4287,-1.4147,-1.4705,-1.5296,-1.5274,-1.6474,-1.7432,-1.6765,-1.5591,-1.4443,-1.3588,0.0,0.0,0.0,0.0,0.0,0.0,0.0,0.0,0.0,0.0,0.0,0.0,0.0,0.0,0.0,0.0,0.0,0.0,0.0,0.0,0.0,-0.8851,-0.8844,-0.8904,-0.8851,-0.8804,-0.8804,-0.8804,-0.8804,-0.8804,-0.8804,-0.8804,-0.8804,-0.8804,-0.8804,-0.8844,-0.9345,-0.9773,-1.0083,-1.0083,-1.0083,-1.0037,-0.9624,-0.9364,-0.9184,0.0,0.0,0.0,0.0,0.0,0.0,0.0,0.0,0.0,0.0,0.0,0.0,0.0,0.0,0.0,0.0,0.0,0.0,0.0,0.0,-2.3953,-2.1969,-2.1638,-2.1631,-2.1918,-2.3261,-2.4437,-2.5375,-2.5708,-2.6307,-2.7111,-2.7166,-2.747,-2.7904,-2.6374,-2.5557,-2.513,-2.3379,-2.2255,-2.1502,-1.9486,-1.8123,-1.7085,0.0,0.0,0.0,0.0,0.0,0.0,0.0,0.0,0.0,-1.2066,-1.2165,-1.2263,-1.2088,-1.2515,-1.2893,-1.2471,-1.2981,-1.3612,-1.3644,-1.4062,-1.4411,-1.4175,-1.5319,-1.61,0.0,-1.4216,-1.3418,-1.2674,-1.1916,0.0,0.0,0.0,0.0,0.0,0.0,0.0,0.0,0.0,0.0,0.0,0.0,0.0,0.0,0.0,0.0,0.0,0.0,0.0,0.0,-0.8646,-0.8804,-0.8804,-0.8804,-0.8804,-0.8804,-0.8507,-0.8507,-0.8804,-0.8804,-0.8804,-0.8804,-0.8804,-0.8871,-0.8978,-0.9359,-0.9679,-0.991,-0.9605,-0.9451,-0.9311,-0.8943,-0.8518,-0.8181,0.0,0.0,0.0,0.0,0.0,0.0,0.0,0.0,0.0,0.0,0.0,0.0,0.0,0.0,0.0,0.0,0.0,0.0,0.0,0.0,-2.5493,-2.2836,-2.2712,-2.2591,-2.2414,-2.3295,-2.4329,-2.55,-2.6041,-2.6385,-2.6515,-2.6634,-2.7239,-2.8099,-2.5745,-2.5233,-2.6102,-2.4215,-2.2644,-2.139,-2.1209,-1.9395,-1.6771,-1.6254,0.0,0.0,0.0,0.0,0.0,0.0,0.0,0.0,-1.0593,-1.0613,-1.0626,-1.06,-1.1397,-1.2145,-1.1512,-1.231,-1.3388,-1.3457,-1.3661,-1.374,-1.3251,-1.403,-1.4516,-1.3379,0.0,-1.2735,-1.1573,-1.1329,0.0,0.0,0.0,0.0,0.0,0.0,0.0,0.0,0.0,0.0,0.0,0.0,0.0,0.0,0.0,0.0,0.0,0.0,0.0,-0.7616,-0.8235,-0.8586,-0.8586,-0.8586,-0.8586,0.0,-0.791,-0.7937,-0.8586,-0.8586,-0.8586,-0.8613,-0.8672,-0.8803,-0.901,-0.9072,-0.9271,-0.944,-0.8732,-0.8316,-0.8111,-0.8059,-0.7439,-0.6727,0.0,0.0,0.0,0.0,0.0,0.0,0.0,0.0,0.0,0.0,0.0,0.0,0.0,0.0,0.0,0.0,0.0,0.0,0.0,0.0,0.0,0.0,0.0,0.0,0.0,0.0,0.0,0.0,0.0,-2.6559,-2.6584,-2.7027,-2.6811,-2.6059,-2.6008,-2.5557,-2.4787,-2.3987,-2.3384,-2.2851,-2.1157,-2.0364,-1.9906,-1.7297,-1.5849,0.0,0.0,0.0,0.0,0.0,0.0,0.0,-1.0593,-1.0747,-1.0855,-1.066,-1.0923,-1.1211,-1.0853,-1.1147,-1.1549,-1.1585,-1.1777,-1.1942,-1.184,-1.2006,-1.2137,-1.1868,-1.1641,-1.1423,-1.1129,0.0,0.0,0.0,0.0,0.0,0.0,0.0,0.0,0.0,0.0,0.0,0.0,0.0,0.0,0.0,0.0,0.0,0.0,0.0,0.0,-0.6831,-0.6993,-0.7074,-0.7074,-0.7074,-0.7074,0.0,-0.6912,-0.6912,-0.7074,-0.7074,-0.7074,-0.7101,-0.7696,-0.7788,-0.7599,-0.8167,-0.8229,-0.7935,-0.7575,-0.7387,-0.7295,-0.7027,-0.6899,-0.6867,0.0,0.0,0.0,0.0,0.0,0.0,0.0,0.0,0.0,0.0,0.0,0.0,0.0,0.0,0.0,0.0,0.0,0.0,0.0,0.0,-2.6645,-2.4955,0.0,0.0,0.0,0.0,0.0,0.0,-2.6388,-2.6752,-2.7076,-2.7037,-2.6964,-2.6839,-2.5946,-2.5485,-2.5329,-2.4149,-2.3437,-2.3021,-2.1909,-2.1068,-2.0296,-1.8623,-1.7009,-1.5546,-1.4638,0.0,0.0,0.0,0.0,0.0,0.0,0.0,-1.0787,-1.0633,-1.07,-1.0814,-1.0801,-1.0875,-1.1022,-1.1169,-1.097,-1.0726,-1.0634,-1.0251,-0.9938,-0.9785,-1.0427,-1.0949,-1.0847,0.0,0.0,0.0,0.0,0.0,0.0,0.0,0.0,0.0,0.0,0.0,0.0,0.0,0.0,0.0,0.0,0.0,0.0,-0.6421,-0.6448,-0.6091,-0.6421,-0.6588,-0.6588,-0.6588,-0.6588,-0.6588,-0.6231,-0.5905,-0.5605,-0.6285,-0.6588,-0.6615,-0.6993,-0.7062,-0.6897,-0.7285,-0.7304,-0.7033,-0.6519,-0.6332,-0.6323,-0.6132,-0.594,-0.5802,0.0,0.0,0.0,0.0,0.0,0.0,0.0,0.0,0.0,0.0,0.0,0.0,0.0,0.0,0.0,0.0,0.0,0.0,0.0,-2.8738,-2.7695,-2.616,0.0,0.0,0.0,0.0,0.0,0.0,-2.6401,-2.6836,-2.757,-2.6904,-2.7126,-2.8046,-2.5758,-2.5324,-2.6187,-2.4373,-2.3312,-2.2867,-2.274,-2.1697,-2.018,-1.9838,-1.8185,-1.6017,-1.5648,-1.4593,-1.3386,-1.3243,0.0,0.0,0.0,0.0,-1.073,-1.0431,-1.0317,-1.0332,-1.0387,-1.0575,-1.0784,-1.1039,-1.0557,-0.9936,-0.9504,-0.8836,-0.8279,-0.803,-0.9329,-1.0393,0.0,0.0,0.0,0.0,0.0,0.0,0.0,0.0,0.0,0.0,0.0,0.0,0.0,0.0,0.0,0.0,0.0,0.0,-0.5378,-0.5905,-0.5959,-0.5351,-0.5928,-0.6236,-0.6236,-0.6236,-0.6236,-0.6236,-0.5628,-0.503,-0.4546,-0.5714,-0.6236,-0.6231,-0.6367,-0.634,-0.6231,-0.6367,-0.634,-0.6182,-0.5574,-0.5324,-0.5324,-0.5324,-0.4994,-0.4612,0.0,0.0,0.0,0.0,0.0,0.0,0.0,0.0,0.0,0.0,-3.0041,-3.0382,-3.0003,-2.9526,0.0,0.0,0.0,0.0,-3.0357,0.0,0.0,0.0,0.0,0.0,0.0,0.0,0.0,0.0,-2.5697,-2.6363,-2.7595,-2.6794,-2.6517,-2.6646,-2.5716,-2.5398,-2.5472,-2.4148,-2.3551,-2.3443,-2.2897,-2.2543,-2.21,-2.0356,-1.9466,-1.8869,-1.7002,-1.5746,-1.4906,-1.4246,-1.3515,0.0,0.0,0.0,-1.1317,-0.9698,-0.9205,-0.904,-0.8204,-0.8813,-0.9736,-0.9904,-0.9837,-0.9499,-0.8451,-0.8138,-0.803,0.0,-0.8214,0.0,0.0,0.0,0.0,0.0,0.0,0.0,0.0,0.0,0.0,0.0,0.0,0.0,0.0,0.0,0.0,0.0,0.0,0.0,-0.468,-0.4736,-0.4736,-0.4625,-0.4736,-0.4791,-0.4791,-0.4791,-0.4791,-0.4791,-0.468,-0.4598,-0.4519,-0.4708,-0.4791,-0.4818,-0.5382,-0.5328,-0.4818,-0.541,-0.5304,-0.4763,-0.468,-0.4625,-0.4625,-0.4625,-0.4657,-0.4689,0.0,0.0,0.0,0.0,0.0,0.0,0.0,0.0,0.0,0.0,0.0,-3.0732,-3.0273,-3.0021,0.0,0.0,0.0,0.0,-3.0199,-2.8453,0.0,0.0,0.0,0.0,0.0,0.0,0.0,-2.5048,-2.5041,-2.553,-2.6486,-2.6513,-2.6912,-2.7585,-2.6547,-2.5864,-2.5432,-2.4153,-2.3595,-2.3573,-2.3312,-2.3009,-2.2603,-2.172,-2.0678,-1.9582,-1.8629,-1.7153,-1.5611,-1.5514,-1.452,-1.3308,-1.3206,0.0,0.0,0.0,-0.927,-0.8632,-0.8057,-0.8189,-0.8557,-0.8909,-0.8494,-0.788,-0.7391,-0.6887,-0.6535,-0.6535,-0.6535,0.0,0.0,0.0,0.0,0.0,0.0,0.0,0.0,0.0,0.0,0.0,0.0,0.0,0.0,0.0,0.0,0.0,0.0,-0.4814,-0.4519,-0.4491,-0.4491,-0.4491,-0.4491,-0.4491,-0.4491,-0.4491,-0.4491,-0.4491,-0.4491,-0.4491,-0.4491,-0.4491,-0.4491,-0.4519,-0.4814,-0.4759,-0.4515,-0.4814,-0.4759,-0.4491,-0.4491,-0.4491,-0.4491,-0.4491,-0.4532,-0.459,0.0,0.0,0.0,0.0,0.0,0.0,0.0,0.0,0.0,0.0,0.0,0.0,-3.0444,0.0,0.0,0.0,0.0,0.0,-2.9473,0.0,0.0,0.0,0.0,0.0,0.0,0.0,-2.5884,-2.4888,-2.4361,-2.4617,-2.5593,-2.61,-2.7064,-2.8296,-2.7275,-2.6378,-2.5516,-2.4358,-2.3864,-2.3849,-2.367,-2.3334,-2.292,-2.2777,-2.1781,-2.0431,-2.0067,-1.852,-1.6674,-1.6729,-1.5517,-1.3998,-1.4021,-1.2861,0.0,0.0,0.0,-0.7799,-0.7685,-0.7449,-0.7373,-0.7779,-0.7246,-0.6566,-0.642,0.0,-0.5395,0.0,0.0,0.0,0.0,0.0,0.0,0.0,0.0,0.0,0.0,0.0,0.0,0.0,0.0,0.0,0.0,0.0,0.0,0.0,0.0,-0.4491,-0.4491,-0.4491,-0.4491,-0.4491,-0.4491,-0.4491,-0.4491,-0.4491,-0.4491,-0.4491,-0.4491,-0.4491,-0.4491,-0.4491,-0.4491,-0.4491,-0.4491,-0.4491,-0.4491,-0.4491,-0.4491,-0.4491,-0.4491,-0.4491,-0.4491,-0.4491,-0.4491,-0.4491,0.0,0.0,0.0,0.0,0.0,0.0,0.0,0.0,0.0,0.0,0.0,0.0,0.0,0.0,0.0,0.0,0.0,0.0,0.0,0.0,0.0,0.0,0.0,0.0,0.0,-2.6896,-2.5998,-2.5355,-2.3629,-2.3726,-2.5517,-2.5593,-2.6338,-2.7554,-2.7558,-2.6811,-2.5555,-2.4844,-2.4545,-2.4485,-2.3864,-2.3573,-2.3486,-2.292,-2.2626,-2.2369,-2.1027,-1.9769,-1.861,-1.7756,-1.6353,-1.4842,-1.3923,-1.283,-1.1511,0.0,0.0,0.0,-0.6037,-0.6114,-0.6139,-0.644,-0.6472,-0.6256,-0.5621,0.0,-0.5395,-0.5395,0.0,0.0,0.0,0.0,0.0,0.0,0.0,0.0,0.0,0.0,0.0,0.0,0.0,0.0,0.0,0.0,0.0,0.0,0.0,-0.4491,-0.4491,-0.4491,-0.4491,-0.4491,-0.4491,-0.4491,-0.4491,-0.4491,-0.4491,-0.4491,-0.4491,-0.4491,-0.4491,-0.4491,-0.4491,-0.4491,-0.4491,-0.4491,-0.4491,-0.4491,-0.4491,-0.4491,-0.4491,-0.4491,-0.4491,-0.4491,-0.4491,-0.4491,0.0,0.0,0.0,0.0,0.0,0.0,0.0,0.0,0.0,0.0,0.0,0.0,0.0,-3.0458,-3.0225,-3.0564,0.0,0.0,0.0,0.0,0.0,0.0,0.0,0.0,0.0,-2.5985,-2.5118,-2.4182,-2.3186,-2.3031,-2.3702,-2.4185,-2.4625,-2.5116,-2.6377,-2.6437,-2.554,-2.4433,-2.3969,-2.3939,-2.3699,-2.3595,-2.3573,-2.3355,-2.3046,-2.2634,-2.2118,-2.0928,0.0,0.0,0.0,-1.5731,-1.5236,-1.3779,-1.1838,-0.9534,-0.7373,-0.5712,-0.5837,-0.5598,-0.5303,-0.5425,-0.5498,-0.5491,-0.5264,-0.5324,-0.5395,-0.5395,0.0,0.0,0.0,0.0,0.0,0.0,0.0,0.0,0.0,0.0,0.0,0.0,0.0,0.0,0.0,0.0,0.0,0.0,0.0,0.0,-0.4491,-0.4491,-0.4491,-0.4491,-0.4491,-0.4491,-0.4491,-0.4491,-0.4491,-0.4491,-0.4491,-0.4491,-0.4491,-0.4491,-0.4208,-0.3732,-0.3763,-0.379,-0.3763,-0.3234,-0.3037,-0.3037,-0.3037,-0.3314,-0.3732,-0.379,-0.379,-0.3873,0.0,0.0,0.0,0.0,0.0,0.0,0.0,0.0,0.0,-3.1797,0.0,0.0,0.0,0.0,-3.1449,-3.1358,-2.9874,0.0,0.0,0.0,0.0,0.0,0.0,0.0,0.0,-2.5559,-2.4839,-2.406,-2.3143,-2.2686,-2.2688,-2.3139,-2.3348,-2.3378,-2.4708,-2.5398,-2.5555,-2.4657,-2.4268,-2.4238,-2.3774,-2.3595,-2.3595,-2.3595,-2.3355,-2.3009,-2.3009,0.0,0.0,0.0,0.0,-1.6755,-1.617,-1.4122,-1.1498,-0.9335,-0.7448,-0.6018,-0.576,-0.5053,-0.44,-0.4463,-0.4516,-0.46,-0.4659,-0.498,-0.5202,-0.4929,0.0,0.0,0.0,0.0,0.0,0.0,0.0,0.0,0.0,0.0,0.0,0.0,0.0,0.0,0.0,0.0,0.0,0.0,0.0,0.0,-0.4491,-0.4491,-0.4491,-0.4491,-0.4491,-0.4377,-0.4125,-0.4125,-0.3984,-0.3735,-0.3735,-0.3735,-0.3735,-0.3735,-0.3428,-0.2926,-0.2704,-0.276,-0.2954,-0.2425,-0.2202,-0.2202,-0.2202,-0.2508,-0.2926,-0.2982,-0.301,-0.3065,0.0,0.0,0.0,0.0,0.0,0.0,0.0,0.0,-3.2422,-3.1924,0.0,0.0,0.0,0.0,0.0,-3.2817,-3.1333,-2.9826,-2.8456,-2.764,0.0,0.0,0.0,0.0,-2.6674,-2.5709,-2.5202,-2.5182,-2.3498,-2.2672,-2.2597,-2.2622,-2.2612,-2.2578,-2.2647,-2.3745,-2.5546,-2.5508,-2.5531,-2.5435,-2.4118,-2.3595,-2.3595,-2.3595,-2.3595,-2.3595,-2.3595,-2.2891,0.0,-2.169,0.0,0.0,-1.6612,-1.3731,-1.0577,-0.9174,-0.778,-0.6522,0.0,0.0,0.0,-0.3595,0.0,0.0,-0.3754,0.0,-0.4797,-0.3955,0.0,0.0,0.0,0.0,0.0,0.0,0.0,0.0,0.0,0.0,0.0,0.0,0.0,0.0,0.0,0.0,0.0,0.0,0.0,-0.4436,-0.4436,-0.4436,-0.4432,-0.446,-0.4432,-0.4098,-0.3372,-0.3372,-0.2982,-0.2202,-0.2202,-0.2202,-0.2202,-0.2202,-0.2174,-0.212,-0.1424,-0.1507,-0.2148,-0.2148,-0.2148,-0.2148,-0.2148,-0.2147,-0.2174,-0.2174,-0.2174,-0.2174,0.0,0.0,0.0,0.0,0.0,-3.3749,-3.2967,-3.2721,-3.2768,0.0,0.0,0.0,-3.277,-3.2962,-3.2909,-3.2546,-3.1535,-3.057,-2.974,-2.8395,-2.7487,-2.7198,-2.6877,-2.6556,-2.6209,-2.5542,-2.5012,-2.4632,-2.3333,-2.2689,-2.2653,-2.1759,-2.1547,-2.1953,-2.2028,-2.287,-2.4197,-2.3708,-2.3754,-2.4118,-2.3744,-2.3595,0.0,0.0,0.0,0.0,0.0,-2.3389,-2.3039,0.0,-2.1098,-1.8977,-1.6005,-1.3748,-1.1984,-1.0611,-0.9463,-0.8318,-0.6905,0.0,0.0,0.0,0.0,0.0,0.0,0.0,0.0,0.0,0.0,0.0,0.0,0.0,0.0,0.0,0.0,0.0,0.0,0.0,0.0,0.0,0.0,0.0,0.0,0.0,0.0,0.0,-0.2843,-0.2843,-0.2843,-0.2843,-0.3093,-0.3622,-0.3121,-0.2732,-0.2538,-0.2536,-0.2425,-0.2202,-0.2202,-0.2202,-0.2202,-0.2202,-0.1898,-0.1396,-0.1202,-0.0923,-0.0615,-0.0615,-0.0615,-0.0615,-0.0615,-0.0923,-0.1396,-0.1396,-0.1396,-0.148,0.0,0.0,0.0,0.0,0.0,-3.3752,-3.3013,-3.3023,-3.3275,0.0,0.0,0.0,-3.423,-3.3827,-3.3479,-3.3405,-3.2549,-3.1644,-3.0754,-2.9489,-2.8376,-2.754,-2.7105,-2.649,-2.567,-2.5144,-2.4697,-2.441,-2.3522,-2.2957,-2.2672,-2.1643,-2.1221,-2.1307,-2.1088,-2.1536,-2.2466,-2.2339,-2.2938,0.0,-2.3714,0.0,0.0,-2.3595,-2.3595,0.0,0.0,0.0,-2.3551,-2.3187,-2.1719,0.0,0.0,0.0,-1.3098,-1.1645,-1.0553,-0.9492,-0.8053,-0.7002,0.0,0.0,0.0,0.0,0.0,-0.3032,0.0,0.0,0.0,0.0,0.0,0.0,0.0,0.0,0.0,0.0,0.0,0.0,0.0,0.0,0.0,0.0,0.0,0.0,0.0,-0.2209,-0.221,-0.2208,-0.2204,-0.2202,-0.2397,-0.2815,-0.2425,-0.2063,-0.1758,-0.173,-0.1591,-0.1284,-0.1284,-0.1284,-0.1284,-0.1284,-0.1062,-0.0643,-0.0643,-0.0392,0.0,0.0,0.0,0.0,0.0,-0.0252,-0.0643,-0.0643,-0.0643,-0.0699,0.0,0.0,-3.2927,-3.1565,-3.2554,-3.3317,-3.2731,-3.3265,-3.3821,0.0,-3.4512,-3.5028,-3.5502,-3.4833,-3.4477,-3.4767,-3.3923,-3.2848,-3.1602,-3.0609,-2.9225,-2.7302,-2.7142,-2.6482,-2.5141,-2.4731,-2.4446,-2.4307,-2.3837,-2.3334,-2.2785,-2.2053,-2.14,-2.087,-2.0131,-2.0143,-2.0752,-2.1421,-2.2666,-2.4142,-2.3767,-2.3595,0.0,0.0,-2.3595,-2.3595,-2.352,-2.349,-2.3468,-2.3271,-2.1672,0.0,0.0,0.0,0.0,-1.2409,-1.1386,-1.0532,-0.9329,-0.8027,-0.6666,0.0,0.0,0.0,-0.3347,-0.2795,-0.2285,0.0,0.0,0.0,0.0,0.0,0.0,0.0,0.0,0.0,0.0,0.0,0.0,0.0,0.0,0.0,0.0,-0.197,-0.1966,-0.1966,-0.197,-0.1994,-0.2068,-0.2009,-0.1981,-0.2063,-0.2009,-0.1647,-0.0978,-0.0978,-0.0643,0.0,0.0,0.0,0.0,0.0,0.0,0.0,0.0,0.0,0.0,0.0,0.0,0.0,0.0,0.0,0.0,0.0,0.0,0.0,0.0,-3.2926,-3.2872,-3.2204,-3.2651,-3.321,-3.3421,-3.3378,-3.3924,-3.5595,-3.5732,-3.5581,-3.5302,-3.5258,-3.5122,-3.4825,-3.4239,-3.3403,-3.2351,-3.0747,-2.9292,-2.805,-2.7486,-2.6368,-2.4588,-2.4989,-2.4725,-2.3767,-2.3659,-2.353,-2.3399,-2.2248,-2.1639,-2.1472,-2.0333,-1.9926,-2.0231,-2.1257,0.0,-2.1733,-2.3071,0.0,-2.3595,-2.3595,-2.3595,-2.3535,-2.3062,-2.2882,-2.2631,-2.1141,-1.9737,-1.8349,0.0,0.0,0.0,-1.3282,-1.2994,-1.2806,-1.1364,-1.0605,0.0,0.0,0.0,0.0,-0.3569,-0.2303,-0.1183,0.0,0.0,0.0,0.0,0.0,0.0,0.0,0.0,0.0,0.0,0.0,0.0,0.0,0.0,0.0,0.0,-0.0438,-0.0432,-0.0432,-0.0419,-0.0695,-0.1287,-0.0755,-0.0699,-0.1284,-0.0727,-0.0364,-0.0224,-0.0224,-0.014,0.0,0.0,0.0,0.0,0.0,0.0,0.0,0.0,0.0,0.0,0.0,0.0,0.0,0.0,0.0,0.0,0.0,0.0,0.0,-3.2509,-3.2707,-3.2748,-3.1899,-3.2436,-3.3153,-3.3634,-3.3745,-3.4398,-3.6076,-3.595,-3.5518,-3.5005,-3.5047,-3.4933,-3.4544,-3.4067,-3.3428,-3.2549,-3.1427,-3.0053,-2.8364,-2.7658,-2.6425,-2.4539,-2.4502,-2.4206,-2.3595,-2.3595,-2.3443,-2.312,-2.2156,-2.1544,-2.1197,-2.0232,-1.9837,-1.994,-2.0573,-2.1028,-2.1433,-2.2977,0.0,-2.2694,-2.3025,-2.2946,-2.2585,-2.201,-2.1629,-2.1297,-2.0584,-1.9605,0.0,0.0,-1.669,-1.6298,0.0,-1.4831,-1.5038,-1.3435,0.0,0.0,-1.0249,0.0,0.0,0.0,-0.3509,-0.1974,-0.1256,-0.0811,0.0,0.0,0.0,0.0,0.0,0.0,0.0,0.0,0.0,0.0,0.0,0.0,0.0,0.0,0.0,0.0,0.0,0.0,-0.0149,-0.0517,-0.0198,-0.0168,-0.0532,-0.0196,0.0,0.0,0.0,0.0,0.0,0.0,0.0,0.0,0.0,0.0,0.0,0.0,0.0,0.0,0.0,0.0,0.0,0.0,0.0,0.0,0.0,0.0,0.0,-3.1861,-3.2271,-3.2436,-3.1373,-3.2,-3.2904,-3.3581,-3.402,-3.4741,-3.6117,-3.6105,-3.5737,-3.5144,-3.5124,-3.5021,-3.4714,-3.4234,-3.3637,-3.291,-3.2162,-3.0859,-2.8791,-2.7885,-2.6581,-2.4806,-2.4118,-2.3729,-2.3595,-2.3486,-2.3179,-2.2672,-2.1889,-2.1269,-2.0771,-2.0105,-1.9749,-1.9664,-1.989,0.0,-2.1287,0.0,-2.2608,-2.1953,-2.2382,-2.2132,-2.1483,-2.0909,-2.0217,-1.9623,-2.0106,-1.9521,-1.8432,-1.7422,-1.7336,0.0,0.0,0.0,0.0,0.0,0.0,0.0,0.0,0.0,-0.859,0.0,0.0,0.0,-0.2773,0.0,0.0,0.0,0.0,0.0,0.0,0.0,0.0,0.0,0.0,0.0,0.0,0.0,0.0,0.0,0.0,0.0,0.0,0.0,0.0,0.0,0.0,0.0,0.0,0.0,0.0,0.0,0.0,0.0,0.0,0.0,0.0,0.0,0.0,0.0,0.0,0.0,0.0,0.0,0.0,0.0,0.0,0.0,0.0,0.0,0.0,0.0,0.0,-3.1447,-3.1632,-3.1781,-3.1288,-3.1317,-3.1924,-3.3458,-3.3753,-3.4388,-3.6087,-3.7072,-3.7322,-3.6559,-3.667,-3.6716,-3.6454,-3.5715,0.0,-3.423,0.0,-3.1072,-2.9869,-2.8324,-2.6818,-2.5437,-2.479,-2.4201,-2.3595,-2.3054,-2.2777,-2.2672,-2.1465,-2.087,-2.0771,-2.0105,-1.9535,-1.9143,0.0,-1.9728,0.0,-2.068,-2.1767,0.0,-2.2127,-2.1583,-2.0904,-2.0241,-1.898,-1.7697,0.0,-1.7688,-1.6751,0.0,-1.6433,-1.642,-1.6047,0.0,0.0,0.0,0.0,0.0,0.0,-1.1527,0.0,0.0,0.0,-0.5752,-0.4351,0.0,0.0,0.0,0.0,0.0,0.0,0.0,0.0,0.0,0.0,0.0,0.0,0.0,0.0,0.0,0.0,0.0,0.0,0.0,0.0,0.0,0.0,0.0,0.0,0.0,0.0,0.0,0.0,0.0,0.0,0.0,0.0,0.0,0.0,0.0,0.0,0.0,0.0,0.0,0.0,0.0,0.0,0.0,0.0,0.0,0.0,0.0,0.0,-3.1329,-3.1509,-3.1678,-3.1271,-3.119,-3.1762,-3.3441,-3.4954,-3.6178,-3.6897,-3.7385,-3.7359,-3.6565,-3.6576,-3.6584,-3.6486,-3.6159,-3.5509,0.0,0.0,-3.2406,-3.0609,-2.8803,-2.7295,-2.6103,-2.4734,-2.3879,-2.3595,-2.2987,-2.2498,-2.21,0.0,-2.0597,-2.0194,-1.9927,-1.9674,-1.946,0.0,-1.9664,0.0,0.0,0.0,0.0,-2.0966,-1.9925,-1.8803,-1.8848,-1.7984,-1.696,0.0,-1.7426,0.0,0.0,0.0,0.0,0.0,0.0,0.0,0.0,0.0,0.0,0.0,0.0,0.0,-1.0204,0.0,-0.783,0.0,0.0,0.0,0.0,0.0,0.0,0.0,0.0,0.0,0.0,0.0,0.0,0.0,0.0,0.0,0.0,0.0,0.0,0.0,0.0,0.0,0.0,0.0,0.0,0.0,0.0,0.0,0.0,0.0,0.0,0.0,0.0,0.0,0.0,0.0,0.0,0.0,0.0,0.0,0.0,0.0,0.0,0.0056,0.0476,0.0364,0.0,0.0,0.0,0.0056,-3.1269,-3.143,-3.1528,-3.1252,-3.119,-3.185,-3.3741,-3.5998,-3.7584,-3.7804,-3.7841,-3.7621,-3.7019,-3.6964,-3.6964,-3.6964,-3.6762,-3.6238,0.0,0.0,-3.3586,-3.1738,-2.9542,-2.7952,-2.7052,-2.4944,-2.3879,-2.3879,-2.2902,-2.217,-2.1673,0.0,-2.0283,-1.9798,-1.9798,-1.98,-1.9764,0.0,-1.9586,-2.0469,-1.9956,-1.996,-2.0245,-1.9653,-1.8445,-1.7146,-1.7686,-1.7291,-1.6636,-1.7613,-1.7312,0.0,-1.7011,0.0,0.0,0.0,0.0,0.0,-1.6219,0.0,0.0,0.0,0.0,0.0,0.0,0.0,0.0,0.0,0.0,0.0,0.0,0.0,0.0,0.0,0.0,0.0,0.0,0.0,0.0,0.0,0.0,0.0,0.0,0.0,0.0,0.0,0.0,0.0,0.0,0.0,0.0,0.0,0.0,0.0,0.0,0.0,0.0,0.0,0.0,0.0112,0.0308,0.0308,0.042,0.0616,0.0616,0.0616,0.0616,0.0616,0.0616,0.0643,0.1202,0.1062,0.0616,0.0616,0.0616,0.0671,-3.121,-3.121,-3.121,-3.121,-3.119,-3.2021,-3.45,-3.6361,-3.7786,-3.856,-3.867,0.0,0.0,0.0,0.0,0.0,0.0,-3.7437,-3.7404,0.0,-3.4166,-3.3632,-3.0702,-2.8846,0.0,-2.5867,-2.4575,-2.4575,-2.2653,-2.172,-2.1673,0.0,0.0,0.0,-1.9798,-1.9786,-1.9761,-1.9246,-1.9309,-1.9774,-1.9258,-1.9032,-1.8982,0.0,-1.7546,-1.6595,-1.7126,0.0,0.0,-1.7131,-1.6964,0.0,0.0,0.0,0.0,0.0,0.0,0.0,0.0,0.0,0.0,-1.3089,0.0,0.0,0.0,0.0,-1.1419,0.0,0.0,0.0,0.0,0.0,0.0,0.0,0.0,0.0,0.0,0.0,0.0,0.0,0.0,0.0,0.0,0.0,0.0,0.0,0.0,0.0,0.0,0.0,0.0,0.0,0.0,0.0,0.0,0.0,0.0,0.0,0.0,0.0364,0.1062,0.1062,0.1452,0.212,0.212,0.212,0.212,0.212,0.212,0.212,0.2147,0.2147,0.212,0.212,0.212,0.212,-3.119,-3.119,-3.119,-3.119,-3.119,-3.204,-3.4518,-3.6082,-3.7192,0.0,-3.7915,0.0,0.0,-3.711,-3.7331,0.0,0.0,-3.7492,-3.7492,-3.6347,0.0,-3.3771,-3.1376,-2.9563,0.0,-2.6736,-2.5446,-2.4605,-2.3093,-2.2135,-2.1673,-2.0395,-1.9798,0.0,0.0,-1.9798,0.0,0.0,0.0,0.0,0.0,-1.9309,-1.8907,0.0,0.0,-1.7058,-1.685,-1.6659,0.0,-1.671,-1.6659,-1.65,-1.65,-1.65,-1.65,-1.65,-1.6073,0.0,0.0,0.0,-1.3661,-1.3065,0.0,0.0,0.0,0.0,0.0,0.0,0.0,0.0,0.0,0.0,0.0,0.0,0.0,0.0,0.0,0.0,0.0,0.0,0.0,0.0,0.0,0.0,0.0,0.0,0.0,0.0,0.0,0.0,0.0,0.0,0.0,0.0,0.0,0.0,0.0,0.0,0.0504,0.0866,0.1118,0.1619,0.1952,0.2202,0.2202,0.2202,0.2202,0.2202,0.2202,0.2259,0.2788,0.2954,0.2871,0.2369,0.2202,0.2286,-3.1241,-3.119,-3.119,-3.119,-3.1791,-3.2726,-3.4057,-3.5648,-3.6731,0.0,-3.6978,0.0,-3.6127,0.0,-3.6258,0.0,-3.6919,-3.7005,-3.7074,-3.6409,0.0,-3.3771,-3.1934,0.0,-2.879,-2.7513,-2.613,-2.4657,-2.3348,-2.2259,-2.1366,-2.0308,-1.9798,0.0,0.0,-1.9798,-1.9798,-1.9798,-1.9798,0.0,0.0,-1.9497,0.0,0.0,-1.7574,-1.7322,0.0,-1.65,-1.65,-1.65,-1.65,-1.65,-1.65,-1.65,-1.6457,-1.6238,-1.5754,-1.5141,-1.4537,-1.3944,0.0,-1.2992,-1.2905,0.0,-1.2905,0.0,0.0,0.0,0.0,0.0,0.0,0.0,0.0,0.0,0.0,0.0,0.0,0.1238,0.0,0.0,0.0,0.0,0.0,0.0,0.0337,0.0034,0.0,0.0,0.0,0.0,0.0,0.0,0.0,0.0,0.0,0.0252,0.0392,0.0392,0.1146,0.1619,0.1898,0.2369,0.276,0.301,0.301,0.301,0.301,0.301,0.301,0.3065,0.3594,0.3763,0.3677,0.3204,0.301,0.3093,-3.1427,-3.1309,-3.1309,-3.1309,-3.2867,0.0,0.0,0.0,-3.6312,0.0,-3.5891,-3.5999,-3.5503,-3.5455,-3.5455,-3.5491,-3.5738,-3.5985,-3.6219,-3.5722,0.0,0.0,-3.2354,-3.0927,-2.9429,-2.8175,-2.6616,-2.4722,0.0,-2.2067,-2.081,-2.0144,-1.9798,-1.9798,-1.9798,0.0,-1.9849,-1.9811,-1.9798,-1.9798,-1.9798,-1.9497,-1.8945,-1.8393,-1.7865,-1.7322,-1.6722,-1.65,-1.65,-1.65,-1.65,-1.6488,-1.6466,-1.6457,-1.6337,-1.5732,-1.5118,-1.4537,-1.3956,-1.3348,-1.2905,-1.2905,0.0,0.0,0.0,0.0,-1.2801,0.0,0.0,0.0,0.0,0.0,0.0,0.0,0.0,0.0,0.0,0.0,0.0,0.0,0.0,0.0,0.0,0.1274,0.0906,0.0067,0.0,0.0,0.0,0.0,0.0031,0.0062,0.0058,0.0084,0.0112,0.0811,0.1146,0.1174,0.1898,0.2619,0.3287,0.3345,0.379,0.4491,0.4491,0.4491,0.4491,0.4491,0.4491,0.4491,0.4491,0.4491,0.4491,0.4491,0.4491,0.4491,-3.2662,-3.2848,-3.2848,0.0,-3.2802,-3.3046,0.0,0.0,0.0,0.0,-3.429,-3.4092,-3.3372,-3.3302,-3.355,-3.4137,-3.4249,0.0,0.0,0.0,0.0,-3.328,-3.228,-3.1009,-2.9429,-2.8528,-2.7176,-2.5297,0.0,0.0,-2.1352,-2.0297,-1.9798,0.0,0.0,-2.0037,-2.044,-1.9987,-1.9798,-1.9798,-1.9798,-1.9497,0.0,0.0,-1.7865,-1.7322,-1.6722,-1.65,-1.65,-1.65,-1.65,-1.6423,-1.5974,-1.582,-1.5698,-1.5107,-1.4514,-1.4003,-1.3839,-1.3348,-1.2905,-1.2905,-1.2905,-1.2905,0.0,0.0,0.0,0.0,0.0,0.0,0.0,0.0,0.0,0.0,0.0,0.0,0.0,0.0,0.0,-0.0465,0.0,0.0,0.0,0.0706,0.0236,0.0,0.0,0.0,0.0,0.0,0.0,0.0802,0.083,0.1089,0.1619,0.1813,0.1925,0.1924,0.2676,0.3121,0.3317,0.3929,0.4294,0.4491,0.4491,0.4491,0.4491,0.4491,0.4491,0.4491,0.4491,0.4491,0.4491,0.4491,0.4491,0.4491,-3.3225,-3.3406,0.0,-3.3829,0.0,0.0,-3.3259,-3.3546,0.0,-3.295,-3.3053,0.0,-3.2266,-3.2179,-3.2371,-3.2827,-3.2999,0.0,-3.3809,0.0,0.0,-3.2556,-3.205,-3.1041,-2.9451,-2.8986,0.0,-2.5065,0.0,-2.2431,-2.1185,-2.0244,0.0,0.0,0.0,-1.9987,-2.0289,-1.9936,-1.9798,-1.9798,-1.9798,0.0,0.0,-1.8393,-1.7865,-1.729,-1.6414,-1.6281,-1.6457,-1.6194,-1.6117,-1.6008,-1.5399,-1.5208,-1.5096,-1.4491,-1.4073,-1.3745,-1.3481,-1.3152,-1.2905,-1.2905,-1.2905,-1.2905,-1.2905,-1.2905,-1.2949,0.0,0.0,0.0,0.0,0.0,0.0,0.0,0.0,0.0,0.0,0.0,0.0,0.0,0.0,0.0,0.0,0.0,0.0,0.0,0.0,0.0,0.0,0.0,0.0,0.1079,0.1104,0.13,0.1703,0.2371,0.2508,0.2204,0.3314,0.3818,0.3846,0.4294,0.4491,0.4491,0.4491,0.4491,0.4491,0.4491,0.4491,0.4491,0.4491,0.4491,0.4491,0.4491,0.4491,0.4491,-3.3282,-3.3439,0.0,0.0,0.0,0.0,0.0,-3.2637,0.0,-3.1819,0.0,-3.2179,-3.1771,-3.1716,-3.1716,-3.1716,0.0,-3.2209,-3.2318,-3.2594,-3.2422,-3.1641,-3.1679,-3.0962,-2.9316,-2.9278,-2.7721,0.0,-2.3975,-2.2669,-2.0792,-2.0214,0.0,0.0,0.0,0.0,0.0,-1.9874,-1.9822,-1.9669,-1.9669,-1.9281,-1.8647,-1.8128,-1.7583,-1.6981,-1.5879,-1.5864,-1.6281,-1.5688,-1.5477,-1.5387,-1.4766,-1.4583,-1.4468,-1.3873,-1.3684,-1.3576,-1.3041,-1.2905,-1.2905,-1.2905,-1.2905,-1.2905,-1.2905,-1.2905,-1.2881,-1.2774,-1.119,-0.9614,0.0,0.0,0.0,0.0,0.0,0.0,0.0,0.0,0.0,0.0,0.0,0.0,0.0,0.0,0.0,0.0,0.0,0.0,0.0,0.0,0.0,0.1079,0.1199,0.0,0.1397,0.0,0.3148,0.2508,0.3846,0.4491,0.4491,0.4491,0.4491,0.4491,0.4491,0.4491,0.4491,0.4491,0.4491,0.4491,0.4491,0.4491,0.4491,0.4491,0.4491,0.4491,-3.2531,-3.3588,0.0,0.0,0.0,-3.3897,-3.3305,-3.2235,-3.1446,-3.131,-3.137,-3.1389,-3.131,-3.131,-3.131,-3.131,-3.1368,0.0,0.0,0.0,0.0,-3.0588,-3.1041,-3.0464,-2.8701,-2.8553,-2.744,0.0,-2.404,-2.2727,-2.1358,-2.0805,0.0,0.0,0.0,0.0,-1.9836,-2.0339,0.0,-1.8874,-1.8874,-1.8222,-1.7136,-1.6722,-1.6183,-1.5597,-1.5051,-1.5253,-1.5676,-1.505,-1.4858,-1.4744,-1.4143,-1.3956,-1.3849,-1.3238,-1.3065,-1.3041,-1.2929,-1.2905,-1.2905,-1.2905,-1.2905,-1.2905,-1.2905,-1.2905,-1.2715,-1.2129,-1.1258,-1.0391,-0.9725,0.0,0.0,0.0,0.0,0.0,0.0,0.0,0.0,0.0,0.0,0.0,0.0,0.0,0.0,0.0,0.0,0.0,0.0,0.0,0.0,0.0,0.1682,0.0,0.0,0.0,0.4236,0.4098,0.4377,0.4491,0.4491,0.4491,0.4491,0.4491,0.4491,0.4491,0.4491,0.4491,0.4491,0.4491,0.4491,0.4491,0.4491,0.4491,0.4491,0.4491,-3.2997,0.0,0.0,0.0,0.0,0.0,0.0,-3.1501,0.0,-3.1145,-3.119,-3.119,-3.119,-3.119,-3.119,-3.119,-3.119,-3.1055,-3.074,-3.074,-3.0456,-2.9848,-3.0123,0.0,-2.8535,-2.8449,-2.76,-2.5987,-2.4627,-2.3457,-2.2448,0.0,0.0,-2.0277,0.0,-2.0277,0.0,0.0,0.0,-1.8661,-1.8274,-1.7759,-1.7165,-1.6685,-1.6193,-1.5653,-1.484,-1.4596,-1.4618,-1.4329,-1.4236,-1.4131,-1.3515,-1.3324,-1.3286,-1.2992,-1.2905,-1.2822,-1.2427,-1.232,-1.2246,-1.1891,-1.2073,-1.2214,-1.171,-1.1857,-1.1929,-1.1226,-1.0541,-0.9673,-0.8383,-0.7305,0.0,0.0,0.0,0.0,0.0,0.0,0.0,0.0,0.0,0.0,0.0,0.0,0.0,0.0,0.0,0.0,0.0,0.0,0.0,0.0,0.0,0.0,0.0,0.0,0.0,0.3929,0.4322,0.4491,0.4491,0.4491,0.4491,0.4491,0.4491,0.4491,0.4491,0.4491,0.4491,0.4491,0.4491,0.4491,0.4491,0.4491,0.4491,0.4491,-3.3156,-3.3287,0.0,0.0,-3.3023,0.0,-3.1638,-3.1022,-3.0687,-3.0795,-3.0818,-3.0818,-3.0818,-3.0818,-3.0818,-3.0818,-3.0818,-3.0617,-3.0145,-3.0102,-2.9827,-2.9225,-2.9339,-2.9042,-2.8319,-2.8415,-2.7765,0.0,-2.5198,-2.4177,-2.3145,0.0,0.0,0.0,0.0,0.0,0.0,0.0,-1.9148,-1.8328,-1.7639,-1.7274,-1.7081,-1.6575,-1.6134,-1.5604,-1.4568,-1.3948,-1.3624,-1.3624,-1.3624,-1.3529,-1.3065,-1.2905,-1.2905,-1.2905,-1.2905,-1.2749,-1.1996,-1.1789,-1.1641,-1.0965,-1.1191,-1.1386,-1.0577,-1.0811,-1.1001,-1.0333,-0.97,-0.8726,-0.6929,-0.6588,0.0,0.0,0.0,0.0,0.0,0.0,0.0,0.0,0.0,0.0,0.0,0.0,0.0,0.0,0.0,0.0,0.05,0.0369,0.0,0.0,0.0,0.2511,0.251,0.0,0.4211,0.0,0.4211,0.4491,0.4491,0.4491,0.4491,0.4491,0.4491,0.4491,0.4491,0.4491,0.4491,0.4491,0.4491,0.4598,0.4708,0.4708,0.4818,0.4928,0.0,0.0,0.0,0.0,0.0,0.0,-3.1702,-3.1446,-3.0957,-2.974,-2.9563,-2.9563,-2.9563,-2.9563,-2.9563,-2.9563,-2.9563,-2.954,-2.9496,-2.9473,-2.9203,-2.8606,-2.9111,-2.8857,-2.771,-2.8238,-2.751,0.0,0.0,-2.4333,-2.2396,-2.2238,0.0,0.0,0.0,0.0,0.0,-1.9781,-1.8731,-1.7313,-1.6792,-1.6197,-1.5564,-1.5167,-1.4693,-1.4231,-1.3755,-1.3332,-1.2968,-1.2968,-1.2968,-1.2968,-1.2929,-1.2905,-1.2905,-1.2905,-1.2905,-1.2749,-1.1996,-1.1789,-1.1641,-1.0965,-1.0838,-1.0822,-1.0488,-1.0453,-1.0309,-0.9639,-0.9151,-0.8389,-0.688,-0.6588,-0.6154,0.0,0.0,0.0,0.0,0.0,-0.2029,-0.1483,0.0,0.0,0.0,0.0,0.0,0.0,0.0,0.0,0.2199,0.1587,0.1535,0.234,0.0,0.3475,0.3471,0.416,0.0,0.4405,0.446,0.4491,0.4491,0.4491,0.4491,0.4491,0.4491,0.4491,0.4491,0.4491,0.4491,0.4491,0.4491,0.4869,0.5406,0.5406,0.5819,0.6312,0.0,0.0,0.0,0.0,0.0,0.0,0.0,-3.0243,-2.955,-2.8987,-2.9194,-2.9406,-2.9406,-2.9406,-2.9406,-2.9406,-2.9406,-2.9248,-2.8873,-2.885,-2.8591,-2.7993,-2.8198,-2.81,-2.7625,-2.7403,-2.6901,0.0,0.0,-2.4304,-2.3476,-2.2693,0.0,0.0,0.0,-2.0856,-2.0255,-1.9116,-1.7915,-1.6725,-1.6078,-1.5661,-1.5391,-1.5225,-1.4893,-1.4463,-1.4007,-1.3588,-1.3213,-1.2993,-1.2905,-1.2905,-1.2905,-1.2905,-1.2905,-1.2905,-1.2584,-1.2089,-1.1391,-1.0914,-1.044,-0.9762,-0.9891,-1.0023,-0.9361,-0.9364,-0.9313,-0.8645,-0.8536,-0.8281,-0.7427,-0.6885,-0.6258,0.0,0.0,0.0,0.0,0.0,0.0,-0.1291,0.0,-0.0453,0.0,0.0,0.0,0.0,0.0,0.0,0.0,0.2229,0.0,0.2619,0.0,0.347,0.3603,0.4198,0.4491,0.4491,0.4491,0.4491,0.4491,0.4491,0.4491,0.4491,0.4491,0.4491,0.4491,0.4491,0.4732,0.5109,0.5109,0.5546,0.6145,0.6145,0.634,0.6507,-3.0777,0.0,-3.1161,0.0,-3.0627,-3.0094,-2.9902,-2.8968,-2.8213,-2.7994,-2.8498,-2.8857,-2.8857,-2.8857,-2.8857,-2.8857,-2.8857,-2.8685,-2.8247,-2.8238,-2.8042,-2.7625,-2.7382,0.0,-2.728,-2.6549,-2.6068,-2.5837,-2.4823,-2.4176,-2.3901,0.0,0.0,0.0,-2.1276,-2.0579,-1.9991,-1.8732,-1.7634,-1.6705,-1.591,-1.5605,-1.5586,-1.5459,-1.5146,-1.4774,-1.4406,-1.3948,-1.3467,-1.3164,-1.2846,-1.2608,-1.2822,-1.2905,-1.2905,-1.2905,-1.2369,-1.1665,-1.099,-1.0312,-0.964,-0.8962,-0.9159,-0.9308,-0.8563,-0.8518,-0.8475,-0.8,-0.7992,-0.7942,-0.7458,-0.6772,-0.6036,-0.5328,0.0,0.0,0.0,0.0,0.0,0.0,-0.1347,-0.0933,-0.0032,0.0,0.0,0.0,0.0,0.0,0.0,0.0,0.0,0.0,0.0,0.0,0.0,0.431,0.4491,0.4491,0.4491,0.4491,0.4491,0.4491,0.4491,0.4491,0.4491,0.4491,0.4519,0.4708,0.5085,0.5515,0.5733,0.6281,0.6912,0.6912,0.7074,0.7128,-2.9034,-2.9721,-3.0299,-3.0299,-2.981,-2.9189,-2.8539,-2.7905,-2.7285,-2.6597,-2.7178,-2.7625,-2.7625,-2.7625,-2.7625,-2.7625,-2.7625,-2.7625,-2.761,-2.7625,-2.7625,0.0,0.0,-2.651,-2.651,-2.5783,-2.5063,-2.4321,0.0,0.0,-2.3108,0.0,-2.1896,-2.1865,-2.0994,-2.0128,-1.929,-1.8795,-1.8136,-1.7318,-1.6437,-1.6085,-1.6036,-1.5576,-1.5146,-1.4813,-1.4775,-1.4228,-1.3506,-1.3496,-1.2733,-1.1947,-1.2666,-1.2905,-1.2905,-1.2905,-1.2369,-1.1665,-1.099,-1.0312,-0.964,-0.8962,-0.8811,-0.8731,-0.8462,-0.8143,-0.7905,-0.7905,-0.7592,-0.7161,-0.6709,-0.6009,-0.5296,-0.4625,0.0,0.0,0.0,0.0,0.0,0.0,-0.1671,-0.0892,0.0092,0.0,0.0,0.0,0.0,0.0,0.0,0.0,0.0,0.4864,0.4742,0.0,0.4691,0.4566,0.4491,0.4491,0.4491,0.4491,0.4491,0.4491,0.4491,0.4491,0.4491,0.4491,0.4543,0.5218,0.5487,0.5569,0.6312,0.7047,0.7696,0.7696,0.8156,0.8672,-2.9002,-2.9223,-2.9411,-2.9411,-2.8862,-2.8416,-2.828,-2.7324,-2.6567,-2.6442,-2.6227,-2.6108,-2.6108,-2.6993,-2.76,0.0,-2.7137,-2.6852,0.0,-2.6375,-2.6108,-2.6108,-2.5892,-2.5755,-2.5755,-2.5035,-2.4538,-2.4292,0.0,0.0,0.0,-2.2002,-2.1585,-2.0974,-2.0107,-1.9381,-1.8784,-1.8088,-1.7457,-1.6853,-1.633,-1.6095,-1.6046,-1.5576,-1.5322,-1.5176,-1.4893,-1.4609,-1.4233,-1.3171,-1.2571,-1.2253,-1.2172,-1.2153,-1.2153,-1.2153,-1.1674,-1.0965,-1.0287,-0.964,-0.9061,-0.8857,-0.8804,-0.8784,-0.8691,-0.805,-0.7498,-0.7498,-0.6994,-0.6551,-0.6597,-0.6009,-0.5433,-0.5218,-0.4787,0.0,0.0,0.0,0.0,0.0,-0.3013,-0.2391,0.0,-0.0287,0.0,0.0,0.0,0.0,0.0,0.0,0.0,0.0,0.4718,0.0,0.4691,0.4566,0.4491,0.4491,0.4491,0.4491,0.4491,0.4491,0.4491,0.4491,0.4491,0.4759,0.5191,0.5406,0.6086,0.7009,0.7262,0.7803,0.8454,0.8454,0.8586,0.8699,-2.8051,-2.8298,-2.8524,-2.8524,-2.8003,-2.7542,-2.7435,-2.6487,-2.5722,-2.562,-2.5492,-2.5398,-2.5398,-2.6215,0.0,-2.6771,-2.6349,-2.6095,-2.6095,-2.5646,-2.5398,-2.5398,-2.5119,-2.4979,-2.4979,0.0,0.0,-2.3855,-2.3053,-2.2384,-2.1877,-2.1227,-2.0623,-2.0074,-1.921,-1.8657,-1.8326,-1.783,-1.7461,-1.7145,-1.6738,-1.6496,-1.6229,-1.5511,-1.5104,-1.4865,-1.4312,-1.4021,-1.3753,-1.2784,-1.2168,-1.181,-1.1653,-1.1456,-1.1302,-1.1685,-1.1341,-1.0636,-0.9987,-0.9309,-0.8804,-0.8804,-0.8804,-0.8699,-0.8319,-0.7742,-0.7209,-0.6948,-0.6299,-0.5871,-0.6134,-0.5601,-0.5136,-0.5136,-0.4759,-0.4491,-0.4491,0.0,0.0,0.0,0.0,0.0,0.0,-0.1038,0.0,0.0,0.0,0.0,0.0,0.0,0.0,0.4931,0.4668,0.0,0.4634,0.4539,0.4491,0.4491,0.4491,0.4491,0.4491,0.4491,0.4491,0.4491,0.4491,0.4869,0.5515,0.5787,0.6605,0.7723,0.7996,0.8401,0.8804,0.8804,0.8804,0.8725,-2.6499,-2.7095,0.0,0.0,-2.7164,0.0,-2.61,-2.5467,-2.4872,-2.4284,-2.485,-2.5272,-2.5231,-2.5189,-2.5161,-2.5231,0.0,0.0,0.0,-2.5259,-2.5231,-2.5231,-2.4595,-2.4205,-2.4205,-2.3484,-2.3078,-2.3005,-2.2199,-2.1784,-2.169,-2.0074,-1.9266,-1.9177,-1.8361,-1.8008,-1.8008,-1.8008,-1.7974,-1.7867,-1.7549,-1.7074,-1.6424,-1.5324,-1.4574,-1.404,-1.329,-1.2764,-1.2426,-1.2342,-1.1608,-1.0799,-1.1136,-1.0817,-1.0513,-1.1412,-1.1216,-1.0593,-0.9909,-0.9283,-0.8804,-0.8804,-0.8804,-0.8547,-0.7552,-0.7288,-0.7053,-0.6293,-0.5565,-0.5129,-0.5373,-0.4921,-0.4491,-0.4491,-0.4491,-0.4491,-0.4491,0.0,0.0,0.0,0.0,0.0,0.0,-0.0895,0.0661,0.0,0.0,0.0,0.0,0.0,0.484,0.4697,0.4569,0.4491,0.4491,0.4491,0.4491,0.4491,0.4491,0.4491,0.4491,0.4491,0.4491,0.4491,0.4491,0.4869,0.5569,0.6285,0.7047,0.7777,0.8507,0.8804,0.8804,0.8804,0.8804,0.8804,0.0,0.0,-2.6782,-2.6782,-2.6298,-2.5739,-2.5205,-2.497,-2.4506,-2.3522,-2.3957,-2.415,-2.3688,-2.3105,-2.2985,-2.3577,-2.4221,-2.4567,-2.4567,-2.3989,-2.3636,-2.3636,-2.3484,-2.3395,-2.3395,-2.3198,-2.2793,-2.2199,-2.1333,-2.0558,-1.9911,-1.9497,-1.8954,-1.8303,-1.8076,-1.8008,-1.8008,-1.8008,-1.7579,-1.6964,-1.7264,-1.6453,-1.4991,-1.4943,-1.4333,-1.3536,-1.3138,-1.2929,-1.2715,-1.1838,-1.1374,-1.1129,-1.092,-1.0729,-1.0569,-1.0345,-1.0167,-0.9884,-0.9211,-0.8936,-0.8804,-0.8804,-0.8804,-0.86,-0.7779,-0.7179,-0.6561,-0.5824,-0.5132,-0.4661,-0.4725,-0.4598,-0.4491,-0.4491,-0.4491,-0.4491,-0.4491,-0.4522,0.0,0.0,-0.4453,-0.4086,-0.3196,-0.2345,-0.1129,0.0,0.0,0.0,0.0,0.4448,0.4728,0.4694,0.4569,0.4491,0.4491,0.4491,0.4491,0.4491,0.4491,0.4491,0.4491,0.4491,0.4491,0.4491,0.4491,0.4869,0.5569,0.6285,0.7047,0.7777,0.8507,0.8804,0.8804,0.8804,0.8804,0.8804,-2.6499,-2.6499,-2.6499,-2.6499,-2.6235,-2.5677,-2.4685,-2.4532,-2.4062,-2.2706,-2.2647,-2.2607,-2.2278,-2.1694,-2.1491,-2.1928,-2.2366,-2.2792,-2.3177,-2.2798,-2.2537,-2.2537,-2.2884,-2.2914,-2.2567,-2.2537,-2.2125,-2.1302,-2.043,-1.9748,-1.9299,-1.8877,-1.8462,-1.8008,-1.8008,-1.8008,-1.8008,-1.8008,-1.7725,-1.7232,-1.7085,-1.6287,-1.5078,-1.4421,-1.3632,-1.2781,-1.2254,-1.2001,-1.1819,-1.118,-1.097,-1.092,-1.0547,-1.0419,-1.0356,-0.9875,-0.987,-0.9857,-0.9023,-0.8804,-0.8804,-0.8804,-0.8804,-0.8613,-0.7857,-0.7128,-0.6394,-0.5651,-0.4976,-0.4491,-0.4491,-0.4491,-0.4491,-0.4491,-0.4491,-0.4491,-0.4491,-0.4491,0.0,-0.4491,-0.4563,-0.4149,-0.2953,-0.2556,-0.1538,0.045,0.0,0.0,0.3411,0.4182,0.4614,0.4614,0.4535,0.4491,0.4491,0.4491,0.4491,0.4491,0.4491,0.4491,0.4491,0.4491,0.4491,0.4491,0.4491,0.4869,0.5569,0.6285,0.7047,0.7777,0.8507,0.8804,0.8804,0.8804,0.8804,0.8804,-2.606,-2.606,-2.606,-2.606,-2.5985,-2.5487,-2.4187,-2.3978,-2.3468,-2.208,-2.1609,-2.1375,-2.1219,-2.0774,-2.0508,-2.0602,-2.0365,-2.0623,-2.1659,-2.169,-2.169,-2.169,-2.2353,-2.2402,-2.1721,-2.1553,-2.1132,-2.0398,-1.9529,-1.911,-1.9077,-1.8337,-1.8008,-1.8008,-1.8008,-1.8008,-1.8008,-1.8008,-1.7837,-1.751,-1.6853,-1.6119,-1.5198,-1.3824,-1.2803,-1.1967,-1.1259,-1.0841,-1.0593,-1.0593,-1.0593,-1.0546,-1.0267,-1.018,-1.0127,-0.9833,-0.9988,-1.0053,-0.9119,-0.8838,-0.8804,-0.8804,-0.8804,-0.8613,-0.7857,-0.7208,-0.6529,-0.5678,-0.5058,-0.4625,-0.4515,-0.4508,-0.4525,-0.4525,-0.4545,-0.4521,-0.4386,0.0,-0.432,-0.4184,-0.4153,-0.3635,-0.232,-0.2098,-0.1213,0.0785,0.173,0.2508,0.0,0.407,0.4491,0.4491,0.4491,0.4491,0.4491,0.4491,0.4491,0.4491,0.4491,0.4491,0.4491,0.4491,0.4491,0.4491,0.4491,0.4814,0.5406,0.6258,0.6966,0.7616,0.848,0.8804,0.8804,0.8804,0.8804,0.8804,-2.3952,-2.3952,-2.3952,-2.3952,-2.3574,-2.3195,-2.2975,-2.2928,-2.2677,-2.1976,-2.2245,-2.2133,-2.1297,-2.0473,-2.0178,-2.056,-1.9233,-1.9077,-2.0687,-2.0814,-2.0814,-2.0814,-2.091,-2.0942,-2.0814,-2.0074,-1.9628,-1.9497,-1.862,-1.8202,-1.8202,-1.8076,-1.8008,-1.8008,-1.8008,-1.8008,-1.8008,-1.8008,-1.7079,-1.5693,-1.6349,-1.5114,-1.2876,-1.3188,-1.2573,-1.1485,-1.1142,-1.0841,-1.0593,-1.0593,-1.0593,-1.0586,-1.0539,-1.0519,-1.0466,-1.0134,-1.0073,-0.9978,-0.9319,-0.8964,-0.8804,-0.8804,-0.8804,-0.8613,-0.7857,-0.7616,-0.7149,-0.5787,-0.5406,-0.5164,-0.4598,-0.4597,-0.4657,-0.4657,-0.4765,-0.4591,-0.3854,0.0,-0.3454,-0.2657,-0.2565,-0.2458,-0.2219,-0.1624,-0.0867,0.0084,0.1425,0.2508,0.3259,0.407,0.4491,0.4491,0.4491,0.4491,0.4491,0.4491,0.4491,0.4491,0.4491,0.4491,0.4491,0.4491,0.4491,0.4491,0.4491,0.457,0.4763,0.6073,0.6669,0.6912,0.8262,0.8804,0.8804,0.8804,0.8804,0.8804,-2.3514,-2.3781,-2.3916,-2.3551,-2.3007,-2.2524,-2.2341,-2.2341,-2.2045,-2.1292,-2.1204,-2.1016,-2.0554,-1.9951,-1.9656,-1.9893,-1.8943,-1.8675,-1.9463,-1.9767,-1.9911,-1.9911,-2.0365,-2.0487,-2.0213,-1.9168,-1.8708,-1.8906,-1.832,-1.8008,-1.8008,-1.8008,-1.8008,-1.8008,-1.8008,-1.7716,-1.7251,-1.7251,-1.6437,-1.5199,-1.5084,-1.4227,-1.3047,-1.2833,-1.2309,-1.165,-1.1516,-1.1209,-1.0827,-1.0827,-1.072,-1.0593,-1.0593,-1.0593,-1.0566,-1.0394,-1.002,-0.9471,-0.883,-0.8448,-0.8209,-0.8209,-0.8209,-0.8209,-0.8289,-0.767,-0.6912,-0.6226,-0.5492,-0.4869,-0.4543,-0.4614,-0.4663,-0.461,-0.4375,0.0,0.0,-0.31,-0.2692,-0.224,-0.2202,-0.2035,-0.1647,-0.1312,-0.0642,0.0502,0.1589,0.2508,0.3259,0.407,0.4491,0.4491,0.4491,0.4491,0.4491,0.4491,0.4491,0.4491,0.4491,0.4491,0.4491,0.4491,0.4491,0.4491,0.4491,0.4491,0.457,0.5605,0.6231,0.6696,0.7777,0.8454,0.8804,0.8804,0.8804,0.8804,-2.2813,-2.3257,-2.3441,-2.2925,-2.2414,-2.1973,-2.1697,-2.1659,-2.1413,-2.0673,-2.0273,-2.0029,-1.9922,-1.9619,-1.9394,-1.9297,-1.8984,-1.8754,-1.8754,-1.898,-1.9091,-1.8988,-1.9628,-1.9917,-1.9757,-1.8705,-1.8325,-1.8754,-1.8325,-1.812,-1.8154,-1.8057,-1.7862,-1.7681,-1.7681,-1.7139,-1.628,-1.628,-1.572,-1.4772,-1.4027,-1.3564,-1.331,-1.2556,-1.2124,-1.1906,-1.1906,-1.149,-1.0995,-1.0995,-1.0834,-1.0593,-1.0593,-1.0593,-1.0561,-1.0364,-0.9599,-0.8663,-0.805,-0.771,-0.7497,-0.7467,-0.745,-0.7589,-0.8156,-0.7423,-0.6561,-0.6367,-0.5496,-0.4677,-0.4515,-0.4614,-0.4624,-0.4335,0.0,0.0,0.0,-0.2335,-0.1912,-0.1709,-0.1703,-0.148,-0.0895,-0.0699,-0.0056,0.1256,0.2063,0.2788,0.3539,0.4153,0.4491,0.4491,0.4491,0.4491,0.4491,0.4491,0.4491,0.4491,0.4491,0.4491,0.4491,0.4491,0.4491,0.4491,0.4491,0.4491,0.457,0.541,0.6091,0.6696,0.7589,0.8295,0.8804,0.8804,0.8804,0.8818,-2.0828,-2.0857,-2.0857,-2.0828,-2.0789,-2.0712,-2.0712,-2.0712,-2.0673,-2.0605,-2.0576,-2.0361,-1.9961,-1.9883,-1.9707,-1.9316,-1.9258,-1.9238,-1.9238,-1.8864,-1.8487,-1.812,-1.8168,-1.8562,-1.9328,-1.8844,-1.8763,-1.9238,-1.8763,-1.8559,-1.8549,-1.8159,-1.7545,-1.6706,-1.6706,-1.6175,-1.5305,-1.5305,-1.4736,-1.381,-1.3745,-1.3164,-1.2409,-1.2342,-1.2124,-1.1906,-1.1906,-1.149,-1.0995,-1.0995,-1.0834,-1.0593,-1.0593,-1.0593,-1.0428,-0.9626,-0.8548,-0.7522,-0.7106,-0.6979,-0.6918,-0.672,-0.6669,-0.6696,-0.675,-0.6669,-0.6394,-0.5733,-0.5487,-0.5246,-0.4625,-0.4614,-0.4481,-0.3769,0.0,0.0,-0.1675,-0.1408,-0.1074,-0.0253,-0.0168,-0.014,-0.0084,0.0531,0.1256,0.2063,0.2871,0.3624,0.4377,0.446,0.4491,0.4491,0.4491,0.4491,0.4491,0.4491,0.4491,0.4491,0.4491,0.4491,0.4491,0.4491,0.4491,0.4491,0.4491,0.4491,0.4598,0.5959,0.6561,0.675,0.8156,0.8752,0.8804,0.8804,0.8804,0.8844,-2.0605,-2.0605,-2.0605,-2.0605,-2.0605,-2.0605,-2.0605,-2.0605,-2.0605,-2.0605,-2.0605,-2.0537,-2.0332,-2.0312,-2.0254,-2.0136,-1.9834,-1.9678,-1.9678,-1.9277,-1.873,-1.8037,-1.8525,-1.8955,-1.9277,-1.9131,-1.9248,-1.9678,-1.8939,-1.8598,-1.8588,-1.7587,-1.6957,-1.6558,-1.6,-1.519,-1.4279,-1.4279,-1.3702,-1.2842,-1.2842,-1.2629,-1.2305,-1.2305,-1.2231,-1.2138,-1.2138,-1.1877,-1.1571,-1.1571,-1.1336,-1.0963,-1.0254,-1.0033,-0.9735,-0.8165,-0.7348,-0.6812,-0.5994,-0.6003,-0.6176,-0.5977,-0.5923,-0.6036,-0.6507,-0.6253,-0.5842,-0.5569,-0.5164,-0.4814,-0.4546,-0.4241,-0.39,-0.3535,0.0,-0.1994,-0.1263,-0.0783,-0.0378,-0.0028,0.0,0.0168,0.0643,0.0922,0.1591,0.2788,0.3204,0.3735,0.446,0.4491,0.4491,0.4491,0.4491,0.4491,0.4491,0.4491,0.4491,0.4491,0.4491,0.4491,0.4491,0.4491,0.4491,0.4491,0.4491,0.4491,0.457,0.5519,0.6177,0.6696,0.7723,0.8401,0.8804,0.8804,0.8804,0.8824,-2.0605,-2.0605,-2.0605,-2.0605,-2.0605,-2.0605,-2.0605,-2.0605,-2.0605,-2.0605,-2.0605,-2.0605,-2.0605,-2.0284,-2.0079,-2.0079,-1.9493,-1.9093,-1.9093,-1.8833,-1.8647,-1.8607,-1.9043,-1.9414,-1.9678,-1.9245,-1.9192,-1.9611,-1.8737,-1.8175,-1.7823,-1.6986,-1.628,-1.5649,-1.5021,-1.4171,-1.3273,-1.3273,-1.2879,-1.2305,-1.2305,-1.2305,-1.2305,-1.2305,-1.2305,-1.2305,-1.2305,-1.2118,-1.1864,-1.1537,-1.1201,-1.0741,-0.9591,-0.902,-0.8506,-0.7162,-0.6539,-0.6134,-0.5329,-0.5344,-0.5537,-0.5305,-0.5207,-0.5328,-0.5823,-0.555,-0.5191,-0.5191,-0.4646,-0.4153,-0.4153,-0.3606,-0.3064,-0.2742,-0.1856,-0.1119,-0.0789,-0.0314,0.0,0.0,0.0196,0.0532,0.1062,0.1535,0.2232,0.3262,0.3594,0.3959,0.446,0.4491,0.4491,0.4491,0.4491,0.4491,0.4491,0.4491,0.4491,0.4491,0.4491,0.4491,0.4491,0.4491,0.4625,0.4814,0.4598,0.4763,0.5199,0.5655,0.6281,0.702,0.775,0.8348,0.8804,0.8804,0.8804,0.8824,-2.0566,-2.0566,-2.0566,-2.0605,-2.0605,-2.0605,-2.0605,-2.0605,-2.0605,-2.0605,-2.0566,-2.0566,-2.0605,-1.9638,-1.9006,-1.9006,-1.794,-1.7302,-1.7302,-1.7302,-1.8056,-1.9781,-1.9485,-1.9697,-2.0537,-1.9073,-1.8521,-1.9006,-1.8134,-1.7168,-1.6211,-1.6465,-1.5544,-1.3709,-1.3673,-1.3171,-1.2305,-1.2305,-1.2305,-1.2305,-1.2305,-1.2305,-1.2305,-1.2305,-1.2305,-1.2305,-1.2298,-1.2118,-1.1721,-1.0737,-1.0166,-0.9702,-0.8541,-0.7512,-0.6729,-0.6852,-0.6176,-0.5361,-0.5143,-0.51,-0.5029,-0.4765,-0.4607,-0.4494,-0.4494,-0.4494,-0.4494,-0.4491,-0.3904,-0.3403,-0.34,-0.2732,-0.1952,-0.1229,-0.109,-0.0838,-0.0112,0.0,0.0,0.0,0.0643,0.1118,0.1118,0.251,0.34,0.34,0.4098,0.4491,0.4491,0.4491,0.4491,0.4491,0.4491,0.4491,0.4491,0.4491,0.4491,0.4491,0.4491,0.4491,0.4491,0.4491,0.4869,0.546,0.4787,0.5308,0.6588,0.6615,0.7047,0.7777,0.8507,0.8804,0.8804,0.8804,0.8804,0.8844,-1.8261,-1.8261,-1.855,-1.9362,-1.9481,-1.9717,-2.0489,-1.9962,-1.9766,-2.0489,-1.9234,-1.859,-1.9402,-1.847,-1.7827,-1.7827,-1.7504,-1.7302,-1.7302,-1.7302,-1.7527,-1.8056,-1.7943,-1.7904,-1.7844,-1.7692,-1.7669,-1.7827,-1.7248,-1.6849,-1.6513,-1.5434,-1.4599,-1.4007,-1.3124,-1.2556,-1.2305,-1.2305,-1.2305,-1.2305,-1.2305,-1.2305,-1.2305,-1.2305,-1.2305,-1.2224,-1.1502,-1.1187,-1.0972,-0.9973,-0.9559,-0.9275,-0.8074,-0.6955,-0.6091,-0.6107,-0.5842,-0.5511,-0.5467,-0.5294,-0.5052,-0.4897,-0.4816,-0.4782,-0.4782,-0.4782,-0.4752,-0.4675,-0.4044,-0.3499,-0.3416,-0.2313,-0.1369,-0.1146,-0.0671,-0.0252,-0.0028,0.0,0.0196,0.0699,0.0978,0.1507,0.2538,0.3065,0.3566,0.4125,0.4377,0.4491,0.4491,0.4491,0.4491,0.4491,0.4491,0.4491,0.4491,0.4491,0.4491,0.4491,0.4491,0.4491,0.4491,0.4491,0.4869,0.5483,0.5296,0.5737,0.6642,0.7155,0.7503,0.7777,0.8507,0.8804,0.8804,0.8804,0.8804,0.8818,-1.7302,-1.7302,-1.7504,-1.823,-1.831,-1.855,-1.9195,-1.8749,-1.855,-1.9195,-1.8141,-1.7545,-1.827,-1.7334,-1.6683,-1.6683,-1.6281,-1.6041,-1.6041,-1.6041,-1.6041,-1.6041,-1.6041,-1.6302,-1.6916,-1.6774,-1.6683,-1.6683,-1.6245,-1.5873,-1.5475,-1.4711,-1.41,-1.3599,-1.2852,-1.2412,-1.2305,-1.2305,-1.2305,-1.2274,-1.1933,-1.2053,-1.2397,-1.1514,-1.1476,-1.1702,-1.0605,-1.019,-1.004,-0.9026,-0.8373,-0.7886,-0.7213,-0.6445,-0.5813,-0.5874,-0.5789,-0.5661,-0.5606,-0.5454,-0.5179,-0.468,-0.447,-0.4394,-0.4394,-0.4086,-0.3818,-0.3716,-0.3134,-0.2573,-0.2518,-0.148,-0.0654,-0.0673,-0.028,0.0,0.0,0.0,0.028,0.1006,0.1369,0.2009,0.3176,0.3594,0.3984,0.446,0.4491,0.4491,0.4491,0.4491,0.4491,0.4491,0.4491,0.4491,0.4491,0.4491,0.4625,0.4893,0.4893,0.5058,0.5336,0.5336,0.571,0.6357,0.6064,0.6524,0.7482,0.7643,0.7883,0.8182,0.8619,0.8804,0.8824,0.8911,0.8951,0.8971,-1.7009,-1.7009,-1.7058,-1.7131,-1.7172,-1.7172,-1.7302,-1.722,-1.7172,-1.7302,-1.7139,-1.7058,-1.7139,-1.6191,-1.5579,-1.5579,-1.465,-1.4088,-1.4088,-1.4088,-1.4088,-1.4088,-1.4088,-1.5026,-1.6968,-1.6067,-1.5579,-1.5579,-1.5209,-1.455,-1.3674,-1.423,-1.3924,-1.2864,-1.2837,-1.2677,-1.2385,-1.2267,-1.223,-1.2138,-1.1233,-1.1528,-1.2312,-1.0311,-1.0144,-1.0888,-0.9627,-0.9165,-0.8998,-0.8012,-0.6954,-0.6074,-0.6255,-0.6105,-0.5871,-0.601,-0.5942,-0.5789,-0.5647,-0.5599,-0.5343,-0.428,-0.3766,-0.353,-0.353,-0.2847,-0.2227,-0.2222,-0.1636,-0.1101,-0.1094,-0.05,0.0,0.0,0.0,0.0,0.0,0.0,0.0308,0.109,0.1786,0.2508,0.3317,0.407,0.4491,0.4491,0.4491,0.4491,0.4491,0.4491,0.4491,0.4491,0.4491,0.4491,0.4491,0.4491,0.4814,0.5406,0.5406,0.5787,0.6507,0.6453,0.6885,0.767,0.6912,0.7423,0.8752,0.8076,0.8182,0.8804,0.8804,0.8824,0.8851,0.9118,0.9231,0.9291,-1.4776,-1.4776,-1.5061,-1.591,-1.6067,-1.6314,-1.718,-1.6601,-1.6355,-1.7172,-1.5842,-1.5103,-1.5944,-1.5095,-1.4454,-1.4454,-1.425,-1.4088,-1.4088,-1.4088,-1.4088,-1.4088,-1.4088,-1.4334,-1.4783,-1.4573,-1.4454,-1.4454,-1.435,-1.4191,-1.3981,-1.3886,-1.3669,-1.344,-1.3213,-1.3073,-1.2935,-1.2041,-1.1676,-1.1563,-1.0458,-1.0159,-1.0319,-0.9837,-0.9727,-0.9727,-0.8666,-0.8207,-0.797,-0.6945,-0.6468,-0.6255,-0.6289,-0.6252,-0.6204,-0.6238,-0.6101,-0.5909,-0.5796,-0.5674,-0.5343,-0.428,-0.3449,-0.2892,-0.2892,-0.2728,-0.2548,-0.2463,-0.1816,-0.1224,-0.1127,-0.05,0.0,0.0,0.0,0.0,0.0,0.0,0.0476,0.1814,0.2093,0.2732,0.4098,0.4405,0.4491,0.4491,0.4491,0.4491,0.4491,0.4491,0.4491,0.4491,0.4491,0.4491,0.4491,0.4491,0.457,0.4704,0.4704,0.5085,0.5733,0.5195,0.5959,0.767,0.6912,0.7423,0.8778,0.8619,0.8646,0.8804,0.8804,0.8918,0.9124,0.9191,0.9357,0.9626,-1.4322,-1.4409,-1.4672,-1.5057,-1.5113,-1.5268,-1.5699,-1.5304,-1.5137,-1.5718,-1.4783,-1.4328,-1.4894,-1.4454,-1.4088,-1.4088,-1.4088,-1.4088,-1.4088,-1.4088,-1.4088,-1.4088,-1.4088,-1.4088,-1.4088,-1.4088,-1.4088,-1.4088,-1.4088,-1.4088,-1.4082,-1.3928,-1.374,-1.3593,-1.3447,-1.33,-1.3127,-1.1976,-1.1484,-1.1376,-0.9741,-0.9413,-0.9812,-0.8686,-0.8544,-0.8831,-0.7631,-0.7134,-0.7022,-0.649,-0.63,-0.63,-0.63,-0.63,-0.63,-0.63,-0.6242,-0.5991,-0.5353,-0.5119,-0.4676,-0.3118,-0.2379,-0.2043,-0.2048,-0.1709,-0.1403,-0.1319,-0.0987,-0.0649,-0.0589,-0.0246,0.0,0.0,0.0,0.0,0.0,0.0308,0.095,0.2063,0.2508,0.3204,0.4377,0.4491,0.4491,0.4491,0.4491,0.4491,0.4491,0.4491,0.4491,0.4491,0.4491,0.4491,0.4491,0.4814,0.4814,0.4519,0.4814,0.5519,0.6551,0.6172,0.6826,0.8209,0.7803,0.8103,0.8804,0.8804,0.8804,0.8804,0.8804,0.8958,0.9231,0.9371,0.9726,1.0157,-1.4643,-1.4796,-1.4928,-1.4636,-1.4596,-1.4516,-1.4275,-1.4235,-1.4215,-1.4168,-1.4202,-1.4202,-1.4095,-1.4088,-1.4108,-1.4155,-1.4115,-1.4088,-1.4088,-1.4088,-1.4088,-1.4088,-1.4088,-1.4088,-1.4088,-1.3906,-1.3913,-1.4088,-1.4088,-1.4088,-1.4088,-1.4088,-1.3955,-1.368,-1.368,-1.3458,-1.2986,-1.1827,-1.1248,-1.0898,-0.897,-0.8781,-0.9475,-0.7529,-0.7333,-0.8004,-0.6817,-0.6381,-0.633,-0.631,-0.63,-0.63,-0.63,-0.63,-0.6261,-0.6064,-0.6025,-0.5755,-0.4548,-0.4215,-0.3742,-0.1791,-0.1287,-0.1259,-0.1128,-0.0508,0.0,0.0,0.0,0.0,0.0,0.0,0.0,0.0,0.0,0.0029,0.017,0.0706,0.1434,0.2287,0.3065,0.3763,0.4436,0.4491,0.4491,0.4491,0.4491,0.4491,0.4491,0.4491,0.4491,0.4491,0.4491,0.4543,0.468,0.5218,0.5273,0.4873,0.541,0.633,0.7503,0.7503,0.799,0.8785,0.8725,0.8745,0.8811,0.8858,0.8858,0.8858,0.8858,0.9064,0.9397,0.9719,1.0171,1.0593,-1.4955,-1.4981,-1.4995,-1.4955,-1.4948,-1.4934,-1.4894,-1.4894,-1.4756,-1.4496,-1.4683,-1.47,-1.4142,-1.4088,-1.4188,-1.4442,-1.4229,-1.4088,-1.4088,-1.4088,-1.4088,-1.4088,-1.4088,-1.4088,-1.4088,-1.3075,-1.3069,-1.4088,-1.4088,-1.4088,-1.4088,-1.4088,-1.4068,-1.4028,-1.4028,-1.3435,-1.2355,-1.1203,-1.0138,-0.9117,-0.7796,-0.7372,-0.7497,-0.7176,-0.709,-0.7059,-0.6893,-0.6668,-0.6463,-0.634,-0.63,-0.63,-0.63,-0.63,-0.6103,-0.5196,-0.4924,-0.4663,-0.3453,-0.3129,-0.2811,-0.1609,-0.1305,-0.112,-0.036,-0.007,0.0,0.0,0.0,0.0,0.0,0.0,0.0,0.0,0.0,0.0212,0.085,0.1051,0.1643,0.3077,0.3901,0.4377,0.4491,0.4491,0.4491,0.4491,0.4491,0.4491,0.4491,0.4491,0.4491,0.4491,0.4491,0.4787,0.5351,0.546,0.5764,0.6317,0.6394,0.6556,0.675,0.675,0.7503,0.8765,0.8437,0.8488,0.8824,0.9051,0.9158,0.9158,0.9158,0.9484,1.0033,1.0365,1.0526,1.0593,-1.5237,-1.5337,-1.5398,-1.5237,-1.5204,-1.515,-1.5035,-1.5008,-1.4961,-1.4783,-1.4928,-1.4908,-1.4646,-1.462,-1.4673,-1.4756,-1.4649,-1.4509,-1.4342,-1.381,-1.3355,-1.313,-1.2573,-1.2233,-1.2132,-1.1601,-1.1601,-1.2126,-1.2126,-1.2473,-1.3075,-1.2431,-1.2126,-1.2126,-1.2126,-1.1863,-1.1295,-1.0139,-0.9362,-0.8803,-0.7577,-0.7095,-0.7088,-0.7007,-0.694,-0.6876,-0.6831,-0.6661,-0.6504,-0.6439,-0.6364,-0.6183,-0.5589,-0.5395,-0.5198,-0.4139,-0.3787,-0.3585,-0.2471,-0.2158,-0.1922,-0.0838,-0.0564,-0.0484,-0.0074,0.0,0.0,0.0,0.0,0.0,0.0,0.0,0.0,0.0,0.0,0.0282,0.109,0.1597,0.2457,0.4045,0.4539,0.4684,0.4627,0.4617,0.4583,0.4498,0.4491,0.4491,0.4491,0.4491,0.4491,0.4491,0.4491,0.4814,0.5487,0.59,0.6285,0.6615,0.7592,0.7852,0.7494,0.7494,0.805,0.9004,0.8848,0.8862,0.9031,0.9158,0.9311,0.9486,0.9486,0.9746,1.0154,1.0479,1.0593,1.0593]},{"header":{"parameterUnit":"m.s-1","parameterCategory":1,"la1":30.6,"la2":28.766,"lo1":-90.7593,"lo2":-88.6598,"dy":0.0162,"dx":0.0183,"nx":116,"ny":114,"refTime":"2024-05-19T12:00:00:Z","depth":0,"parameterNumber":3,"parameterNumberName":"V-component_of_WINDS"},"data":[0.0,0.0,0.0,0.0,0.0,0.0,0.0,0.0,0.0,0.0,0.0,0.0,0.0,0.0,0.0,0.0,0.0,0.0,0.0,0.0,0.0,0.0,0.0,0.0,0.0,0.0,0.0,0.0,0.0,0.0,0.0,0.0,0.0,0.0,0.0,0.0,0.0,0.0,0.0,0.0,0.0,0.0,0.0,0.0,0.0,0.0,0.0,0.0,0.0,0.0,0.0,0.0,0.0,0.0,0.0,0.0,0.0,0.0,0.0,0.0,0.0,0.0,0.0,0.0,0.0,0.0,0.0,0.0,0.0,0.0,0.0,0.0,0.0,0.0,0.0,0.0,0.0,0.0,0.0,0.0,0.0,0.0,0.0,0.0,0.0,0.0,0.0,0.0,0.0,0.0,0.0,0.0,0.0,0.0,0.0,0.0,0.0,0.0,0.0,0.0,0.0,0.0,0.0,0.0,0.0,0.0,0.0,0.0,0.0,0.0,0.0,0.0,0.0,0.0,0.0,0.0,0.0,0.0,0.0,0.0,0.0,0.0,0.0,0.0,0.0,0.0,0.0,0.0,0.0,0.0,0.0,0.0,0.0,0.0,0.0,0.0,0.0,0.0,0.0,0.0,0.0,0.0,0.0,0.0,0.0,0.0,0.0,0.0,0.0,0.0,0.0,0.0,0.0,0.0,0.0,0.0,0.0,0.0,0.0,0.0,0.0,0.0,0.0,0.0,0.0,0.0,0.0,0.0,0.0,0.0,0.0,0.0,0.0,0.0,0.0,0.0,0.0,0.0,0.0,0.0,0.0,0.0,0.0,0.0,0.0,0.0,0.0,0.0,0.0,0.0,0.0,0.0,0.0,0.0,0.0,0.0,0.0,0.0,0.0,0.0,0.0,0.0,0.0,0.0,0.0,0.0,0.0,0.0,0.0,0.0,0.0,0.0,0.0,0.0,0.0,0.0,0.0,0.0,0.0,0.0,0.0,0.0,0.0,0.0,0.0,0.0,0.0,0.0,0.0,0.0,0.0,0.0,0.0,0.0,0.0,0.0,0.0,0.0,0.0,0.0,0.0,0.0,0.0,0.0,0.0,0.0,0.0,0.0,0.0,0.0,0.0,0.0,0.0,0.0,0.0,0.0,0.0,0.0,0.0,0.0,0.0,0.0,0.0,0.0,0.0,0.0,0.0,0.0,0.0,0.0,0.0,0.0,0.0,0.0,0.0,0.0,0.0,0.0,0.0,0.0,0.0,0.0,0.0,0.0,0.0,0.0,0.0,0.0,0.0,0.0,0.0,0.0,0.0,0.0,0.0,0.0,0.0,0.0,0.0,0.0,0.0,0.0,0.0,0.0,0.0,0.0,0.0,0.0,0.0,0.0,0.0,0.0,0.0,0.0,0.0,0.0,0.0,0.0,0.0,0.0,0.0,0.0,0.0,0.0,0.0,0.0,0.0,0.0,0.0,0.0,0.0,0.0,0.0,0.0,0.0,0.0,0.0,0.0,0.0,0.0,0.0,0.0,0.0,0.0,0.0,0.0,0.0,0.0,0.0,0.0,0.0,0.0,0.0,0.0,0.0,0.0,0.0,0.0,0.0,0.0,0.0,0.0,0.0,0.0,0.0,0.0,0.0,0.0,0.0,0.0,0.0,0.0,0.0,0.0,0.0,0.0,0.0,0.0,0.0,0.0,0.0,0.0,0.0,0.0,0.0,0.0,0.0,0.0,0.0,0.0,0.0,0.0,0.0,0.0,0.0,0.0,0.0,0.0,0.0,0.0,0.0,0.0,0.0,0.0,0.0,0.0,0.0,0.0,0.0,0.0,0.0,0.0,0.0,0.0,0.0,0.0,0.0,0.0,0.0,0.0,0.0,0.0,0.0,0.0,0.0,0.0,0.0,0.0,0.0,0.0,0.0,0.0,0.0,0.0,0.0,0.0,0.0,0.0,0.0,0.0,0.0,0.0,0.0,0.0,0.0,0.0,0.0,0.0,0.0,0.0,0.0,0.0,0.0,0.0,0.0,0.0,0.0,0.0,0.0,0.0,0.0,0.0,0.0,0.0,0.0,0.0,0.0,0.0,0.0,0.0,0.0,0.0,0.0,0.0,0.0,0.0,0.0,0.0,0.0,0.0,0.0,0.0,0.0,0.0,0.0,0.0,0.0,0.0,0.0,0.0,0.0,0.0,0.0,0.0,0.0,0.0,0.0,0.0,0.0,0.0,0.0,0.0,0.0,0.0,0.0,0.0,0.0,0.0,0.0,0.0,0.0,0.0,0.0,0.0,0.0,0.0,0.0,0.0,0.0,0.0,0.0,0.0,0.0,0.0,0.0,0.0,0.0,0.0,0.0,0.0,0.0,0.0,0.0,0.0,0.0,0.0,0.0,0.0,0.0,0.0,0.0,0.0,0.0,0.0,0.0,0.0,0.0,0.0,0.0,0.0,0.0,0.0,0.0,0.0,0.0,0.0,0.0,0.0,0.0,0.0,0.0,0.0,0.0,0.0,0.0,0.0,0.0,0.0,0.0,0.0,0.0,0.0,0.0,0.0,0.0,0.0,0.0,0.0,0.0,0.0,0.0,0.0,0.0,0.0,0.0,0.0,0.0,0.0,0.0,0.0,0.0,0.0,0.0,0.0,0.0,0.0,0.0,0.0,0.0,0.0,0.0,0.0,0.0,0.0,0.0,0.0,0.0,0.0,0.0,0.0,0.0,0.0,0.0,0.0,0.0,0.0,0.0,0.0,0.0,0.0,0.0,0.0,0.0,0.0,0.0,0.0,0.0,0.0,0.0,0.0,0.0,0.0,0.0,0.0,0.0,0.0,0.0,0.0,0.0,0.0,0.0,0.0,0.0,0.0,0.0,0.0,0.0,0.0,0.0,0.0,0.0,0.0,0.0,0.0,0.0,0.0,0.0,0.0,0.0,0.0,0.0,0.0,0.0,0.0,0.0,0.0,0.0,0.0,0.0,0.0,0.0,0.0,0.0,0.0,0.0,0.0,0.0,0.0,0.0,0.0,0.0,0.0,0.0,0.0,0.0,0.0,0.0,0.0,0.0,0.0,0.0,0.0,0.0,0.0,0.0,0.0,0.0,0.0,0.0,0.0,0.0,0.0,0.0,0.0,0.0,0.0,0.0,0.0,0.0,0.0,0.0,0.0,0.0,0.0,0.0,0.0,0.0,0.0,0.0,0.0,0.0,0.0,0.0,0.0,0.0,0.0,0.0,0.0,0.0,0.0,0.0,0.0,0.0,0.0,0.0,0.0,0.0,0.0,0.0,0.0,0.0,0.0,0.0,0.0,0.0,0.0,0.0,0.0,0.0,0.0,0.0,0.0,0.0,0.0,0.0,0.0,0.0,0.0,0.0,0.0,0.0,0.0,0.0,0.0,0.0,0.0,0.0,0.0,0.0,0.0,0.0,0.0,0.0,0.0,0.0,0.0,0.0,0.0,0.0,0.0,0.0,0.0,0.0,0.0,0.0,0.0,0.0,0.0,0.0,0.0,0.0,0.0,0.0,0.0,0.0,0.0,0.0,0.0,0.0,0.0,0.0,0.0,0.0,0.0,0.0,0.0,0.0,0.0,0.0,0.0,0.0,0.0,0.0,0.0,0.0,0.0,0.0,0.0,0.0,0.0,0.0,0.0,0.0,0.0,0.0,0.0,0.0,0.0,0.0,0.0,0.0,0.0,0.0,0.0,0.0,0.0,0.0,0.0,0.0,0.0,0.0,0.0,0.0,0.0,0.0,0.0,0.0,0.0,0.0,0.0,0.0,0.0,0.0,0.0,0.0,0.0,0.0,0.0,0.0,0.0,0.0,0.0,0.0,0.0,0.0,0.0,0.0,0.0,0.0,0.0,0.0,0.0,0.0,0.0,0.0,0.0,0.0,0.0,0.0,0.0,0.0,0.0,0.0,0.0,0.0,0.0,0.0,0.0,0.0,0.0,0.0,0.0,0.0,0.0,0.0,0.0,0.0,0.0,0.0,0.0,0.0,0.0,0.0,0.0,0.0,0.0,0.0,0.0,0.0,0.0,0.0,0.0,0.0,0.0,0.0,0.0,0.0,0.0,0.0,0.0,0.0,0.0,0.0,0.0,0.0,0.0,0.0,0.0,0.0,0.0,0.0,0.0,0.0,0.0,0.0,0.0,0.0,0.0,0.0,0.0,0.0,0.0,0.0,0.0,0.0,0.0,0.0,0.0,0.0,0.0,0.0,0.0,0.0,0.0,0.0,0.0,0.0,0.0,0.0,0.0,0.0,0.0,0.0,0.0,0.0,0.0,0.0,0.0,0.0,0.0,0.0,0.0,0.0,0.0,0.0,0.0,0.0,0.0,0.0,0.0,0.0,0.0,0.0,0.0,0.0,0.0,0.0,0.0,0.0,0.0,0.0,0.0,0.0,0.0,0.0,0.0,0.0,0.0,0.0,0.0,0.0,0.0,0.0,0.0,0.0,0.0,0.0,0.0,0.0,0.0,0.0,0.0,0.0,0.0,0.0,0.0,0.0,0.0,0.0,0.0,0.0,0.0,0.0,0.0,0.0,0.0,0.0,0.0,0.0,0.0,0.0,0.0,0.0,0.0,0.0,0.0,0.0,0.0,0.0,0.0,0.0,0.0,0.0,0.0,0.0,0.0,0.0,0.0,0.0,0.0,0.0,0.0,0.0,0.0,0.0,0.0,0.0,0.0,0.0,0.0,0.0,0.0,0.0,0.0,0.0,0.0,0.0,0.0,0.0,0.0,0.0,0.0,0.0,0.0,0.0,0.0,0.0,0.0,0.0,0.0,0.0,0.0,0.0,0.0,0.0,0.0,0.0,0.0,0.0,0.0,0.0,0.0,0.0,0.0,0.0,0.0,0.0,0.0,0.0,0.0,0.0,0.0,0.0,0.0,0.0,0.0,0.0,0.0,0.0,0.0,0.0,0.0,0.0,0.0,0.0,0.0,0.0,0.0,0.0,0.0,0.0,0.0,0.0,0.0,0.0,0.0,0.0,0.0,0.0,0.0,0.0,0.0,0.0,0.0,0.0,0.0,0.0,0.0,0.0,0.0,0.0,0.0,0.0,0.0,0.0,0.0,0.0,0.0,0.0,0.0,0.0,0.0,0.0,0.0,0.0,0.0,0.0,0.0,0.0,0.0,0.0,0.0,0.0,0.0,0.0,0.0,0.0,0.0,0.0,0.0,0.0,0.0,0.0,0.0,0.0,0.0,0.0,0.0,0.0,0.0,0.0,0.0,0.0,0.0,0.0,0.0,0.0,0.0,0.0,0.0,0.0,0.0,0.0,0.0,0.0,0.0,0.0,0.0,0.0,0.0,0.0,0.0,0.0,0.0,0.0,0.0,0.0,0.0,0.0,0.0,0.0,0.0,0.0,0.0,0.0,0.0,0.0,0.0,0.0,0.0,0.0,0.0,0.0,0.0,0.0,0.0,0.0,0.0,0.0,0.0,0.0,0.0,0.0,0.0,0.0,0.0,0.0,0.0,0.0,0.0,0.0,0.0,0.0,0.0,0.0,0.0,0.0,0.0,0.0,0.0,0.0,0.0,0.0,0.0,0.0,0.0,0.0,0.0,0.0,0.0,0.0,0.0,0.0,0.0,0.0,0.0,0.0,0.0,0.0,0.0,0.0,0.0,0.0,0.0,0.0,0.0,0.0,0.0,0.0,0.0,0.0,0.0,0.0,0.0,0.0,0.0,0.0,0.0,0.0,0.0,0.0,0.0,0.0,0.0,0.0,0.0,0.0,0.0,0.0,0.0,0.0,0.0,0.0,0.0,0.0,0.0,0.0,0.0,0.0,0.0,0.0,0.0,0.0,0.0,0.0,0.0,0.0,0.0,0.0,0.0,0.0,0.0,0.0,0.0,0.0,0.0,0.0,0.0,0.0,0.0,0.0,0.0,0.0,0.0,0.0,0.0,0.0,0.0,0.0,0.0,0.0,0.0,0.0,0.0,0.0,0.0,0.0,0.0,0.0,0.0,0.0,0.0,0.0,0.0,0.0,0.0,0.0,0.0,0.0,0.0,0.0,0.0,0.0,0.0,0.0,0.0,0.0,0.0,0.0,0.0,0.0,0.0,0.0,0.0,0.0,0.0,0.0,0.0,0.0,0.0,0.9654,0.0,0.0,0.0,0.0,0.0,0.0,0.0,0.0,0.0,0.0,0.0,0.0,0.0,0.0,0.0,0.0,0.0,0.0,0.0,0.0,0.0,0.0,0.0,0.0,1.0219,1.0505,1.0695,1.1315,1.1818,1.2067,0.0,0.0,0.0,0.0,0.0,1.3386,1.3114,1.2849,1.2619,1.1434,1.029,0.9165,0.7775,0.5943,0.3838,0.0,0.0,0.0,0.0,0.0,0.0,0.0,0.0,0.0,0.0,0.0,0.0,0.0,0.0,0.0,0.0,0.0,0.0,0.0,0.0,0.0,0.0,0.0,0.0,0.0,0.0,0.0,0.0,0.0,0.0,0.0,0.0,0.0,0.0,0.0,0.0,0.0,0.0,0.0,0.0,0.0,0.0,0.0,0.0,0.0,0.0,0.0,0.0,0.0,0.0,0.0,0.0,0.0,0.0,0.0,0.0,0.0,0.0,0.0,0.0,0.0,0.0,0.0,0.0,0.0,0.0,0.0,0.0,0.0,0.0,0.0,0.9092,0.0,0.0,0.0,0.0,0.0,0.0,0.0,0.0,0.0,0.0,0.0,0.0,0.0,0.0,0.0,0.0,0.0,0.0,0.0,0.0,0.0,0.9768,0.9863,0.9971,0.9895,0.9609,1.0635,1.136,1.1469,1.2939,0.0,0.0,0.0,1.4632,1.3969,1.4148,1.4072,1.3675,1.2637,1.1303,0.974,0.974,0.8367,0.5863,0.5066,0.0,0.0,0.0,0.0,0.0,0.0,0.0,0.0,0.0,0.0,0.0,0.0,0.0,0.0,0.0,0.0,0.0,0.0,0.0,0.0,0.0,0.0,0.0,0.0,0.0,0.0,0.0,0.0,0.0,0.0,0.0,0.0,0.0,0.0,0.0,0.0,0.0,0.0,0.0,0.0,0.0,0.0,0.0,0.0,0.0,0.0,0.0,0.0,0.0,0.0,0.0,0.0,0.0,0.0,0.0,0.0,0.0,0.0,0.0,0.0,0.0,0.0,0.0,1.3622,1.413,1.501,1.3844,1.338,1.344,1.155,1.0345,0.965,0.0,0.0,0.0,0.0,0.0,0.0,0.0,0.0,0.0,0.0,0.0,0.0,0.0,0.0,0.0,0.0,0.0,0.0,0.0,0.0,1.0581,1.1325,1.0873,1.0758,1.1405,1.1605,1.1978,1.2541,1.3338,0.0,0.0,1.5414,1.5688,1.6083,1.5308,1.4845,1.4794,1.4106,1.3283,1.2325,1.2325,1.1165,0.9036,0.748,0.5775,0.4041,0.0,0.0,0.0,0.0,0.0,0.0,0.0,0.0,0.0,0.0,0.0,0.0,0.0,0.0,0.0,0.0,0.0,0.0,0.0,0.0,0.0,0.0,0.0,0.0,0.0,0.0,0.0,0.0,0.0,0.0,0.0,0.0,0.0,0.0,0.0,0.0,0.0,0.0,0.0,0.0,0.0,1.0372,1.0471,0.0,0.0,0.0,0.0,0.0,0.0,0.0,0.0,0.0,0.0,0.0,0.0,0.0,1.4311,1.477,1.4602,1.4671,1.4947,1.4947,1.5441,1.6313,1.5355,1.533,1.5991,1.406,0.0,0.9683,0.9583,0.0,0.0,0.0,0.0,0.0,0.0,0.0,0.0,0.0,0.0,0.0,0.0,0.0,0.0,0.0,0.0,0.0,0.0,0.0,0.0,0.0,1.0328,1.001,1.0043,1.0562,1.127,1.2119,1.33,1.4451,1.5554,1.621,1.6672,1.6951,1.6824,1.6435,1.5788,1.5221,1.4575,1.3878,1.3878,1.3189,1.1893,1.0819,0.8764,0.6063,0.5267,0.0,0.0,0.0,0.0,0.0,0.0,0.0,0.0,0.0,0.0,0.0,0.0,0.0,0.0,0.0,0.0,0.0,0.0,0.0,0.0,0.0,0.0,0.0,0.0,0.0,0.0,0.0,0.0,0.0,0.0,0.0,0.0,0.0,0.0,0.0,0.0,0.0,0.0,0.0,1.2377,1.1889,1.1263,1.0879,1.0886,0.0,0.0,0.0,0.0,0.0,0.0,0.0,0.0,0.0,1.5073,1.5506,1.5748,1.586,1.6021,1.6175,1.6304,1.6078,1.6463,1.7354,1.6393,1.621,1.6532,1.5155,1.3485,1.1655,1.095,1.0284,0.9658,0.0,0.0,0.0,0.0,0.9743,0.9748,0.0,0.0,0.0,0.0,0.0,0.0,0.0,0.0,0.0,0.0,0.0,0.0,1.0978,1.0361,0.9833,0.954,1.0337,1.1226,0.0,0.0,1.5081,1.5954,1.6959,1.7504,1.7504,1.7907,1.7679,1.6823,1.6455,1.5925,1.533,1.5197,1.479,1.4127,1.3365,1.1312,0.8326,0.71,0.5975,0.0,0.0,0.0,0.0,0.0,0.0,0.0,0.0,0.0,0.0,0.0,0.0,0.0,0.0,0.0,0.0,0.0,0.0,0.0,0.0,0.0,0.0,0.0,0.0,0.0,0.0,0.0,0.0,0.0,0.0,0.0,0.0,0.0,0.0,0.0,0.0,0.0,0.0,1.3876,1.368,1.2672,1.2375,1.2546,0.0,0.0,0.0,0.0,0.0,0.0,1.4922,1.4931,1.5385,1.6386,1.7078,1.7351,1.7133,1.7406,1.7548,1.7539,1.716,1.732,1.7974,1.7285,1.6957,1.6922,1.5974,1.5006,1.4049,1.2511,1.1526,1.0969,1.0787,1.078,1.0867,1.0639,1.0672,1.0781,0.0,0.0,0.0,0.0,0.0,0.0,0.0,0.0,0.0,0.0,0.0,1.2987,1.2962,0.0,1.1363,1.1698,1.2315,1.2883,0.0,0.0,1.6525,1.6998,1.7691,1.8066,1.8066,1.8086,1.8072,1.8013,1.7993,1.7666,1.7063,1.6557,1.5988,1.536,1.4173,1.2493,1.0506,0.9789,0.8653,0.7271,0.0,0.0,0.0,0.0,0.0,0.0,0.0,0.0,0.0,0.0,0.0,0.0,0.0,0.0,0.0,0.0,0.0,0.0,0.0,0.0,0.0,0.0,0.0,0.0,0.0,0.0,0.0,0.0,0.0,0.0,0.0,0.0,0.0,0.0,0.0,0.0,0.0,0.0,0.0,1.5693,1.4985,0.0,0.0,0.0,0.0,1.4312,1.4312,1.499,1.6573,1.6678,1.7404,1.9044,1.9146,1.9165,1.9168,1.8741,1.8527,1.8527,1.8134,1.794,1.8008,1.794,1.794,1.7862,1.6922,1.648,1.6261,1.4092,1.2319,1.0995,1.0982,1.1297,1.1741,1.1719,1.2212,1.2684,0.0,0.0,0.0,0.0,0.0,1.2101,1.3154,1.3488,1.3775,1.4219,1.3786,1.3344,0.0,1.2058,1.1416,1.1566,1.2005,1.2656,1.3502,0.0,1.6242,1.7049,1.8063,1.8779,1.9132,1.9089,1.8925,1.8612,1.8283,1.7993,1.7786,1.7578,1.7369,1.7151,1.6325,1.5355,1.4213,1.1957,1.0368,0.9309,0.8675,0.8074,0.0,0.0,0.0,0.0,0.0,0.0,0.0,0.0,0.0,0.0,0.0,0.0,0.0,0.0,0.0,0.0,0.0,0.0,0.0,0.0,0.0,0.0,0.0,0.0,0.0,0.0,0.0,0.0,0.0,0.0,0.0,0.0,0.0,0.0,0.0,0.0,0.0,1.5497,1.5411,0.0,1.6254,1.6501,1.6857,1.7467,1.7537,1.7774,1.8381,1.8426,1.8793,1.9668,1.9697,1.9824,2.0145,1.9404,1.9053,1.9043,1.835,1.8008,1.8008,1.8008,1.8008,1.7974,1.7647,1.7173,1.6531,1.5411,1.4187,1.2953,1.2769,1.2625,1.2573,1.2573,1.2757,1.2931,0.0,0.0,0.0,0.0,1.22,1.277,1.41,1.4292,1.4569,1.5313,1.4873,1.4327,1.3944,1.3105,1.2643,1.274,1.3068,1.3599,1.439,0.0,1.7071,1.7679,1.893,1.9776,2.0122,2.0108,1.9921,1.9618,1.9247,1.9082,1.9082,1.8881,1.8745,1.8584,1.8003,1.7464,1.6831,1.4519,1.2892,1.1794,1.1176,1.0567,0.9978,0.0,0.0,0.0,0.0,0.0,0.0,0.0,0.0,0.0,0.0,0.0,0.0,0.0,0.0,0.0,0.0,0.0,0.0,0.0,0.0,0.0,0.0,0.0,0.0,0.0,0.0,0.0,0.0,0.0,0.0,0.0,0.0,0.0,0.0,0.0,1.6483,1.6201,1.6492,1.6982,1.762,1.8099,1.8645,1.9251,1.9287,1.9346,1.9492,1.9502,1.9697,2.0117,2.0137,2.0273,2.0605,1.9754,1.9287,1.9277,1.8418,1.8008,1.8008,1.8008,1.8008,1.8008,1.8008,1.7647,1.7051,1.6739,1.6054,1.509,1.3951,1.3584,1.3634,1.3445,1.3575,1.3756,0.0,0.0,0.0,1.2517,1.262,1.3095,1.4523,1.4759,1.5113,1.6126,1.6244,1.6049,1.5599,1.5176,1.5065,1.5398,1.5623,1.5839,1.6096,1.7989,1.9061,1.8973,2.0301,2.1039,2.1039,2.1039,2.1039,2.1039,2.1023,2.1007,2.1007,2.0471,2.0016,1.9624,1.909,1.8612,1.8131,1.7538,1.6341,1.4778,1.4055,1.3765,1.3684,0.0,0.0,0.0,0.0,0.0,0.0,0.0,0.0,0.0,0.0,0.0,0.0,0.0,0.0,0.0,0.0,0.0,0.0,0.0,0.0,0.0,0.0,0.0,0.0,0.0,0.0,0.0,0.0,0.0,0.0,0.0,0.0,0.0,1.7687,1.7787,1.8052,1.8027,1.8373,1.8627,1.8637,1.9072,1.9326,1.9326,1.9326,1.9502,1.9912,1.9932,2.0127,2.0595,2.0605,2.0605,2.0605,1.9754,1.9287,1.9277,1.8418,1.8008,1.8008,1.8008,1.8008,1.8008,1.8008,1.8008,1.8008,1.7998,1.7764,1.7151,1.4536,1.4099,1.4887,1.4436,1.4726,1.5294,0.0,0.0,1.2275,1.2992,1.3107,1.3732,1.558,1.5868,1.6274,1.7422,1.7282,1.6943,1.6559,1.615,1.5945,1.6053,1.6363,1.6524,1.6401,0.0,1.9717,2.0726,2.145,2.1747,2.1663,2.1995,2.1995,2.1663,2.1467,2.1363,2.1348,2.0959,2.0716,2.0601,2.0468,2.01,1.9584,1.913,1.846,1.7518,1.5741,1.5004,1.4891,0.0,0.0,0.0,0.0,0.0,0.0,0.0,0.0,0.0,0.0,0.0,0.0,0.0,0.0,0.0,0.0,0.0,0.0,0.0,0.0,0.0,0.0,0.0,0.0,0.0,0.0,0.0,0.0,0.0,0.0,0.0,0.0,2.0145,1.8956,1.8872,1.8809,1.8497,1.8848,1.9228,1.9494,1.9961,2.0253,2.0253,2.0253,2.0302,2.0381,2.0429,2.0478,2.0595,2.0605,2.0605,2.0605,1.9754,1.9287,1.9277,1.8418,1.8008,1.8008,1.8008,1.8008,1.8008,1.8008,1.8008,1.7988,1.7686,1.7666,1.7716,1.6694,1.6065,1.5762,1.5616,1.5496,1.5381,0.0,1.2806,1.2849,1.3442,1.3897,1.4671,1.6165,1.673,1.7323,1.8333,1.8249,1.7992,1.779,1.7405,1.7193,1.7347,1.7383,1.7401,1.7367,0.0,2.0645,2.2157,2.2447,2.2518,2.2449,2.2718,2.2718,2.2432,2.2285,2.2211,2.2211,2.202,2.1821,2.1661,2.1516,2.1194,2.0719,2.0353,2.001,1.9599,1.8084,1.7114,1.6519,1.5806,1.5391,1.5126,1.4731,1.4669,1.4781,1.481,0.0,0.0,0.0,0.0,0.0,0.0,0.0,0.0,0.0,0.0,0.0,0.0,0.0,0.0,0.0,0.0,0.0,0.0,0.0,0.0,0.0,0.0,0.0,0.0,2.195,2.2145,2.1207,2.0407,1.9809,1.9565,1.9532,1.9648,1.9893,2.0312,2.0605,2.0605,2.0605,2.0605,2.0605,2.0605,2.0605,2.0605,2.0605,2.0605,2.0605,1.9754,1.9287,1.9277,1.8418,1.8008,1.8008,1.8008,1.8008,0.0,1.8008,1.8008,1.7988,1.7744,1.7793,0.0,0.0,0.0,0.0,0.0,1.5625,1.541,0.0,1.3468,1.3504,1.3899,1.4785,1.5704,1.6474,1.7396,1.8261,1.8996,0.0,1.9109,1.9106,1.8721,1.8608,1.8903,1.852,1.8475,0.0,0.0,2.1772,2.3262,2.3315,2.3338,2.339,2.339,2.339,2.339,2.3338,2.3322,2.3287,2.3253,2.3029,2.2655,2.2363,2.202,2.1674,2.1335,2.1165,2.1086,2.0555,1.9531,1.8333,1.826,1.7892,1.7375,1.7368,1.7035,1.6626,1.6678,0.0,0.0,0.0,0.0,0.0,0.0,0.0,0.0,0.0,0.0,0.0,0.0,0.0,0.0,0.0,0.0,0.0,0.0,0.0,0.0,0.0,0.0,0.0,0.0,2.4186,2.4648,2.3948,2.2376,2.1211,2.1052,2.047,2.0082,2.0121,2.0409,2.0605,2.0605,2.0605,2.0605,2.0605,0.0,0.0,0.0,0.0,2.0722,2.0934,1.993,1.9459,1.9449,1.8582,1.811,1.8008,1.8008,1.8008,1.8008,1.8008,1.8008,1.8008,1.8008,1.7949,1.7754,1.6623,1.6357,1.6521,1.5693,1.541,0.0,0.0,1.3947,1.3941,1.4379,1.5167,1.6044,1.6991,1.7935,1.8835,1.9625,1.9778,1.9783,1.973,1.9647,1.9597,1.9607,1.9518,1.9964,0.0,0.0,2.2877,2.4044,2.409,2.4215,2.4484,2.4492,2.4492,2.4492,2.4215,2.3999,2.3842,2.3562,2.3318,2.3088,2.3015,2.2937,2.2845,2.2461,2.2126,2.1855,2.1422,2.0654,1.9743,1.9307,1.8865,1.8489,1.8486,1.8526,1.8557,1.8572,1.861,1.8731,1.9226,0.0,0.0,0.0,0.0,0.0,0.0,0.0,0.0,0.0,0.0,0.0,0.0,0.0,0.0,0.0,0.0,0.0,0.0,0.0,0.0,2.4399,2.5034,2.5578,2.5893,2.4917,2.3755,2.2637,2.1667,2.1254,2.1569,2.0989,2.0605,2.0605,2.0605,2.0605,2.0605,2.0605,0.0,2.1697,2.1011,2.1346,2.2925,2.1207,2.04,2.0507,0.0,0.0,1.8008,1.8008,1.8008,1.8008,1.8008,1.8008,1.8008,1.8008,1.7607,1.6921,1.6668,1.6436,1.6153,1.5605,1.541,1.541,1.4813,1.4886,1.5043,1.5342,1.6516,1.757,1.8039,1.893,1.9703,2.0099,2.0173,2.0182,2.016,2.0069,1.9981,1.9955,2.027,0.0,0.0,2.2709,2.3529,2.4507,2.4164,2.4226,2.4796,2.4416,2.4394,2.4804,2.4625,2.4506,2.4391,2.4225,2.41,2.3997,2.3825,2.3747,2.3727,2.3247,2.2947,2.277,2.2474,2.2078,2.1589,2.059,2.0085,1.9889,1.9906,1.9839,1.9812,2.0139,2.0154,2.0116,2.0716,2.1327,2.1827,0.0,0.0,0.0,0.0,0.0,0.0,0.0,0.0,0.0,0.0,0.0,0.0,0.0,0.0,2.3603,0.0,0.0,2.4883,2.5172,2.5674,2.6172,2.6449,2.606,2.5297,2.4107,2.3048,2.2516,2.2717,2.2339,2.2048,2.2048,2.2048,2.2048,2.2048,2.2048,2.2264,2.2739,2.2301,2.2371,2.3084,2.189,2.1201,2.1007,1.9825,1.9299,1.9266,1.8395,1.8236,1.863,1.8202,1.8008,1.7988,1.7783,1.7314,1.6677,1.6484,1.6123,1.5703,1.5498,1.541,1.541,1.5289,1.5882,1.6356,1.6277,1.7788,1.9012,1.8962,1.9786,2.0423,2.0423,2.0432,2.0434,2.0425,2.025,2.0225,0.0,0.0,0.0,0.0,2.3421,2.4202,2.4919,2.4304,2.4265,2.4919,2.4304,2.4282,2.493,2.493,2.4917,2.4879,2.4879,2.4846,2.479,2.4524,2.4404,2.4366,2.3943,2.3721,2.3632,2.3473,2.3343,2.3124,2.1945,2.1409,2.1291,2.1238,2.102,2.0903,2.1521,2.1592,2.1546,2.2189,2.2926,2.3574,2.3436,2.397,0.0,0.0,0.0,0.0,0.0,0.0,0.0,0.0,0.0,2.4912,2.4326,2.4866,2.528,2.467,2.5239,2.5762,2.5762,2.6185,2.6499,2.6499,2.6499,2.6198,2.537,2.4409,2.3781,2.3781,2.3624,2.3514,2.3514,2.3514,2.3514,2.3514,2.3514,2.3588,2.3781,2.3588,2.3424,2.3245,2.2605,2.1992,2.1473,2.0369,2.0074,2.0558,1.9144,1.8888,1.9529,1.8821,1.8496,1.8465,1.7869,1.7367,1.69,1.6322,1.5791,1.541,1.541,1.541,1.541,0.0,1.6594,1.7419,1.6604,1.7914,1.9119,1.9169,1.9917,2.0483,2.0483,2.054,2.0543,2.0506,2.0427,2.0634,0.0,0.0,0.0,2.3976,2.4807,2.5313,2.5418,2.5338,2.5338,2.5418,2.5338,2.5335,2.5423,2.5423,2.5328,2.5162,2.5162,2.5034,2.4796,2.4765,2.4745,2.4749,2.4685,2.4487,2.4212,2.4186,2.3896,2.344,2.3274,2.2881,2.2382,2.2074,2.2052,2.2248,2.2738,2.3285,2.3863,2.4579,2.572,2.6667,2.6056,2.6841,2.7607,2.6345,2.5487,2.5234,2.655,2.6473,2.6268,0.0,0.0,2.7148,2.7066,2.6848,2.668,2.6585,2.6493,2.6399,2.6399,2.6449,2.6499,2.6499,2.6499,2.6452,2.6349,2.5441,2.4826,2.4826,2.4036,2.3514,2.3514,2.3514,2.3514,2.3514,2.3514,2.3891,2.4791,2.3963,2.407,2.5239,2.3874,2.2952,2.2509,2.1894,2.1239,2.059,2.0398,2.0365,2.0462,2.0365,2.0301,2.0203,1.8988,1.8218,1.7729,1.6557,1.5791,1.541,1.541,1.541,1.5497,0.0,1.714,1.821,1.7886,1.8986,1.9915,1.9908,2.0271,2.0563,2.0563,2.0541,2.0737,2.1266,2.166,2.201,0.0,0.0,0.0,2.4266,2.5031,2.5502,2.551,2.5002,2.4951,2.5428,2.497,2.4975,2.5441,2.549,2.5457,2.5368,2.5368,2.5312,2.5217,2.5217,2.5212,2.5195,2.5042,2.489,2.4759,2.4643,2.4381,2.4081,2.4081,2.385,2.3435,2.2712,2.2621,0.0,0.0,2.3764,2.4289,2.4978,2.5579,2.6134,2.6723,2.6938,2.6896,2.6394,2.6602,2.7054,2.7288,2.7752,2.823,2.8537,2.8336,2.8154,2.8419,2.8097,2.7635,2.741,2.7542,2.74,0.0,2.6763,2.6864,2.6537,2.6499,2.6499,2.6499,2.6129,2.5873,2.5873,2.5499,2.524,2.524,2.524,2.524,2.524,2.524,2.5429,2.5873,2.5464,2.5203,2.5159,2.4505,2.3756,2.2911,2.2234,2.1939,2.2021,2.1037,2.059,2.059,2.059,2.059,2.0491,1.9368,1.8788,1.8537,1.7416,1.6867,1.6585,1.5719,1.5671,1.6093,0.0,1.725,1.8346,1.8663,1.9635,2.0406,2.0429,2.0511,2.0663,2.0918,2.0914,2.1223,2.2127,2.2901,2.3333,2.3293,2.408,2.4606,2.4622,2.5198,2.5517,2.5502,2.4895,2.4829,2.5411,2.4868,2.4841,2.5429,2.5478,2.5509,2.5509,2.5509,2.5485,2.5474,2.5483,2.549,2.5451,2.5281,2.5207,2.5182,2.5287,2.5059,2.4654,2.4843,2.4647,2.4172,2.3294,2.3059,0.0,0.0,2.3984,2.4398,2.5096,2.5545,2.6062,2.7124,2.7149,2.6922,2.7313,2.7939,2.8444,2.8269,2.8765,2.9409,2.9603,2.9323,2.9086,2.9236,2.9049,2.8669,2.8243,2.8199,2.7962,2.7003,2.6952,2.6952,2.6549,2.6499,2.6499,2.6499,2.6499,2.6499,2.6499,2.6348,2.6323,2.6487,2.621,2.6172,2.6474,2.6336,2.6336,2.6487,2.6336,2.5774,2.48,2.4637,2.4073,2.3078,2.2506,2.2537,2.3078,2.1834,2.129,2.1279,2.114,2.1082,2.0969,1.9732,1.9233,1.9113,1.8025,1.7605,1.7468,1.6415,1.633,1.6838,0.0,0.0,1.7588,1.8378,1.9406,2.0208,2.0454,2.0508,2.0829,2.1738,2.1855,2.2167,2.2974,2.3787,2.4258,2.4257,2.5052,2.5533,2.5468,2.5559,2.557,2.55,2.5476,2.5476,2.5493,2.5476,2.5479,2.55,2.55,2.5503,2.5503,2.5503,2.5471,2.5411,2.5467,2.5464,2.5402,2.5453,2.5446,2.5464,2.6297,2.5972,2.505,2.5712,2.5346,2.4408,2.3881,0.0,0.0,0.0,2.4164,2.4629,2.5357,2.6573,0.0,2.7771,2.8312,2.9149,3.0176,2.974,2.9217,3.0246,2.9844,2.9399,3.0107,3.0318,3.0172,2.9623,2.9849,2.9978,2.9348,2.8396,2.7716,2.767,2.7019,2.6512,2.6499,2.6499,2.6499,2.6499,2.6499,2.6499,0.0,2.5984,2.585,2.6449,2.5473,2.5335,2.6436,2.5959,2.5921,2.6474,2.5912,2.536,2.48,2.4293,2.3715,2.3108,2.3078,2.3078,2.3108,2.3047,2.3005,2.301,2.2472,2.2247,2.2101,2.0326,1.9575,1.9444,1.8111,1.7605,1.7594,1.755,1.755,1.766,0.0,0.0,0.0,1.907,1.9525,1.9867,2.0183,2.0353,2.0762,2.1708,2.2831,0.0,0.0,0.0,0.0,0.0,2.5366,2.5527,2.5509,2.551,2.5496,2.5441,2.5321,2.5278,2.5371,2.5278,2.5294,2.5428,2.5488,2.5491,2.5491,2.5491,2.579,2.6329,2.6348,2.6672,2.7194,2.7226,2.7548,2.8024,2.7702,2.7599,2.7591,2.7015,2.6499,2.5959,0.0,0.0,0.0,2.421,2.4701,2.5355,2.6099,2.6336,2.6386,2.666,2.7617,2.8628,2.8769,2.8907,2.9211,3.0109,3.0231,3.0331,3.1117,3.0816,3.0402,3.0626,3.0174,2.9769,2.9888,2.957,2.9129,2.8652,2.8635,2.8359,2.7436,2.7802,2.7953,2.7351,2.7284,0.0,0.0,0.0,0.0,2.6449,2.5762,2.5498,2.5862,2.5699,2.5523,2.5372,2.5184,2.482,2.428,2.4092,2.3703,2.3108,2.3108,2.3108,2.3108,2.3108,2.2907,2.2543,2.2397,2.2108,2.1678,2.0735,2.0328,2.0239,1.9395,1.9071,1.9071,1.9071,1.9071,1.9044,0.0,0.0,0.0,0.0,0.0,0.0,0.0,0.0,0.0,0.0,0.0,0.0,0.0,0.0,0.0,0.0,0.0,2.5468,2.5363,0.0,2.5313,2.5197,2.5067,2.5031,2.5121,2.5031,2.5056,2.5197,2.5228,2.5397,2.5674,2.5674,2.6174,2.7058,2.7075,2.7459,2.8107,2.814,2.8457,2.8891,2.8502,2.8401,2.8393,2.7759,2.7258,0.0,0.0,0.0,0.0,2.4091,2.4462,2.5287,2.576,2.6044,2.6336,2.7011,2.7869,2.8609,2.8532,2.8944,2.9493,2.9888,3.0201,3.0594,3.1236,3.0859,3.051,3.0879,3.0516,3.0183,3.0293,3.02,2.9982,2.9524,2.9479,2.9186,2.83,2.8652,2.878,2.8247,2.8149,2.8149,0.0,0.0,0.0,2.6517,2.5607,2.5197,2.5573,2.5234,2.4958,2.4788,2.46,2.4356,2.4004,2.3791,2.3471,2.3108,2.3108,2.2995,2.2819,2.3007,2.2694,2.202,2.202,2.1707,2.1182,2.0616,2.0377,2.0352,1.9949,1.9798,1.9798,1.9798,1.9798,1.9721,0.0,0.0,0.0,0.0,0.0,0.0,0.0,0.0,0.0,0.0,0.0,0.0,0.0,0.0,0.0,0.0,0.0,0.0,2.5111,0.0,0.0,2.4818,2.479,2.479,2.4804,2.479,2.479,2.4804,2.4811,2.5193,2.5947,2.597,2.6517,2.7515,2.7589,2.7829,2.824,2.8296,2.83,2.8318,2.8853,2.8503,2.7728,2.8033,0.0,0.0,0.0,0.0,0.0,2.3656,2.3701,2.4669,2.4669,2.5901,2.7546,2.8673,2.9003,2.909,2.9476,2.9855,3.0059,2.9755,2.9954,3.0274,3.0646,3.0698,3.0602,3.0418,3.0869,3.1154,0.0,0.0,3.03,3.0407,2.9687,2.9111,2.9093,2.9111,2.9097,0.0,0.0,0.0,0.0,0.0,0.0,2.671,0.0,2.4633,2.5564,2.4645,2.4287,2.4687,2.423,2.3954,2.3954,2.3384,2.3138,2.3155,2.313,2.2841,2.238,2.2871,2.2518,2.1443,2.1499,2.1184,2.0603,2.0024,1.9798,1.9798,1.9798,1.9798,1.9798,1.9798,1.9798,1.9798,0.0,0.0,0.0,0.0,0.0,0.0,0.0,0.0,0.0,0.0,0.0,0.0,0.0,0.0,0.0,0.0,0.0,0.0,0.0,0.0,0.0,0.0,0.0,2.4647,2.4797,2.4654,2.4647,0.0,2.4897,2.5004,2.5118,2.5355,2.6241,2.7665,2.7812,2.8641,2.9882,2.9953,3.0243,3.0583,0.0,3.001,3.0101,0.0,0.0,0.0,0.0,0.0,2.7662,2.6229,2.6317,2.7026,2.7026,2.7458,2.8085,2.8674,2.896,2.9137,2.9381,2.9945,3.0539,3.0863,3.122,3.1679,3.2373,3.1999,3.1474,3.1423,3.1385,3.1318,3.1205,0.0,0.0,3.1857,3.1338,0.0,3.0673,3.077,0.0,3.0042,0.0,2.9981,2.9981,2.9271,0.0,0.0,2.7602,2.6787,2.6012,2.5707,2.4929,2.359,2.3396,2.3321,2.3321,2.3183,2.3395,2.4002,2.3488,2.3202,2.313,2.3243,2.2442,2.0932,2.1377,2.1003,2.0012,1.9861,1.9798,1.9798,1.9798,1.9798,1.9798,1.9798,1.9798,1.9798,0.0,0.0,0.0,0.0,0.0,0.0,0.0,0.0,0.0,0.0,0.0,0.0,0.0,0.0,0.0,0.0,0.0,0.0,0.0,0.0,0.0,0.0,2.4436,2.4428,2.4518,2.4864,2.4914,0.0,0.0,0.0,0.0,2.5564,2.6314,2.7528,2.7607,2.8395,2.9675,2.9716,0.0,0.0,0.0,0.0,0.0,0.0,0.0,0.0,0.0,0.0,2.9409,2.9225,2.8687,2.8299,2.9261,2.9649,2.9803,3.0185,3.0362,3.0376,3.0022,3.0503,3.108,3.0918,3.1305,3.1901,3.2542,3.2117,3.162,3.1756,3.1803,3.1812,3.1823,3.2151,3.2536,0.0,0.0,0.0,3.1793,3.1605,3.1322,0.0,3.0837,0.0,3.0837,3.0389,3.0103,0.0,2.8912,2.7721,2.6634,2.6364,2.559,2.4147,2.4121,2.4121,2.4121,2.4121,2.4337,2.4781,2.4106,2.3689,2.3487,2.3427,2.2555,2.1182,0.0,2.1349,2.0232,2.0232,2.008,1.9798,1.9798,1.9798,1.9798,1.9798,1.9798,1.985,0.0,0.0,0.0,0.0,0.0,0.0,0.0,0.0,0.0,0.0,0.0,0.0,0.0,0.0,0.0,0.0,0.0,0.0,0.0,0.0,0.0,0.0,2.4275,2.4275,2.4275,2.5137,2.5244,0.0,0.0,0.0,0.0,0.0,0.0,0.0,0.0,0.0,0.0,0.0,0.0,0.0,0.0,0.0,0.0,0.0,0.0,0.0,0.0,3.0683,3.11,3.1826,3.0584,2.9099,3.1129,3.179,3.1879,3.2175,3.2248,3.2033,3.1078,3.1376,3.1734,3.0753,3.1109,3.1803,3.2172,3.1867,3.1621,3.1864,3.2166,3.2394,3.2403,3.2998,3.3486,3.3509,0.0,3.2601,3.2496,3.1914,3.1511,3.1511,3.1511,3.1511,3.1511,3.1511,3.1466,3.1376,2.9591,2.816,2.7398,2.6829,2.6189,2.5412,2.5315,2.5273,2.5273,2.5163,2.5177,2.5286,2.4594,2.4066,2.3592,2.3481,2.2793,2.1724,0.0,0.0,2.0919,2.0919,2.0597,2.0042,2.0042,2.0042,2.0042,2.0042,2.0042,2.0144,0.0,0.0,0.0,0.0,0.0,0.0,0.0,0.0,0.0,0.0,2.4353,2.4843,0.0,0.0,0.0,0.0,0.0,0.0,0.0,0.0,0.0,0.0,2.4693,2.4693,2.4693,2.4862,2.4885,2.4758,0.0,0.0,0.0,0.0,0.0,0.0,0.0,0.0,0.0,0.0,0.0,0.0,0.0,0.0,0.0,0.0,0.0,0.0,3.1727,3.2306,3.2751,3.1789,3.1054,3.0734,3.1779,3.2275,3.2466,3.2518,3.2491,3.2368,3.2024,3.236,3.2699,3.2286,3.2797,3.3408,3.3469,3.3176,3.2773,3.2449,3.2649,3.2784,3.247,3.2998,3.3486,3.3509,3.2977,3.2601,3.2496,3.1914,3.1511,0.0,3.1511,3.1511,3.1511,3.1511,0.0,0.0,0.0,2.9533,2.8254,2.7624,2.6733,2.5453,2.486,2.4557,2.4557,2.4008,2.4046,2.4647,2.3995,2.3664,2.3693,2.3601,2.2875,2.1734,2.2404,0.0,2.1544,2.1544,2.1472,2.1363,2.1363,2.1363,2.1363,2.1363,2.1363,2.1387,0.0,0.0,0.0,0.0,0.0,0.0,0.0,2.2988,2.3847,2.4712,2.4915,2.5086,2.5411,2.547,2.545,0.0,0.0,0.0,0.0,0.0,0.0,0.0,0.0,2.4809,2.4802,2.531,2.5312,2.4796,0.0,0.0,0.0,0.0,0.0,0.0,0.0,0.0,0.0,0.0,0.0,0.0,0.0,0.0,0.0,0.0,0.0,0.0,0.0,3.2629,3.2921,3.284,3.2073,3.1409,3.2805,3.3535,3.3892,3.3892,3.3781,3.346,3.2548,3.2528,3.2668,3.2361,3.2602,3.3072,3.3656,3.3494,3.3139,3.2921,3.2949,3.3057,3.3249,3.3688,3.414,3.4529,3.4072,3.3499,3.3075,3.2475,3.1923,3.1568,3.1511,3.1511,3.1511,3.1182,3.0866,0.0,0.0,2.9235,2.8542,2.7909,2.7091,2.6073,2.5715,2.5384,2.5027,2.47,2.4728,2.5057,2.4388,2.4103,2.4158,2.3762,2.326,2.2696,2.3031,0.0,2.2216,2.2216,2.1993,2.1697,2.1697,2.1697,2.1697,2.1697,2.1697,2.1758,0.0,0.0,0.0,0.0,0.0,0.0,0.0,2.2982,2.3639,2.517,2.5402,2.5394,2.5312,2.5425,2.5454,0.0,0.0,0.0,0.0,0.0,0.0,0.0,0.0,2.495,2.4937,0.0,0.0,2.4999,2.598,0.0,0.0,0.0,0.0,0.0,0.0,0.0,0.0,0.0,0.0,0.0,0.0,0.0,0.0,0.0,0.0,0.0,0.0,3.2858,3.3037,3.3563,3.2982,3.2254,3.3486,3.4279,3.4722,3.4631,3.4545,3.4143,3.266,3.2378,3.2397,3.1985,3.2108,3.2574,3.3478,3.3494,3.3302,3.3214,3.3113,3.326,3.3971,3.4268,3.4621,3.5267,3.4947,3.434,3.3623,3.2979,3.2382,3.1796,3.1476,0.0,3.1471,3.0882,0.0,0.0,0.0,0.0,2.8382,2.7899,2.7285,2.6617,2.6452,2.6063,2.5382,2.5255,2.5181,2.5181,2.4634,2.4395,2.4365,2.3849,2.3595,2.3595,2.3595,0.0,0.0,2.2875,2.2575,2.2109,2.2109,2.2109,2.2109,2.2109,2.2109,2.2179,0.0,0.0,0.0,0.0,0.0,0.0,0.0,2.3247,2.4103,2.5178,2.5206,2.5114,2.5037,2.531,2.5466,0.0,0.0,0.0,0.0,0.0,0.0,0.0,0.0,0.0,0.0,0.0,0.0,2.5616,2.6324,0.0,0.0,0.0,0.0,0.0,0.0,0.0,0.0,0.0,0.0,0.0,0.0,0.0,0.0,0.0,0.0,0.0,0.0,3.3827,3.4271,3.2798,3.3233,3.4212,3.3173,3.3177,3.3487,3.3109,3.3344,3.343,3.2187,3.216,3.233,3.1637,3.2291,3.3123,3.3225,3.3508,3.3634,3.3273,3.3193,3.3364,3.4001,3.4118,3.4271,3.4634,3.4649,3.435,3.3704,3.3033,3.2559,3.252,0.0,0.0,3.137,3.0865,0.0,0.0,0.0,0.0,2.7715,2.763,2.7285,2.6617,2.6019,2.5367,2.4709,2.4103,2.3789,2.3789,2.3729,2.3684,2.3684,2.3625,2.3595,2.3595,2.3595,0.0,0.0,2.3508,2.3486,2.3428,2.3428,2.3428,2.3428,2.3428,2.3428,2.3428,0.0,0.0,0.0,0.0,0.0,0.0,2.2197,2.2695,2.3422,2.4922,2.4997,2.4956,2.506,2.5545,2.5895,2.5996,0.0,0.0,0.0,0.0,0.0,0.0,0.0,0.0,0.0,0.0,0.0,2.5646,2.5343,0.0,0.0,0.0,0.0,0.0,0.0,2.604,0.0,0.0,0.0,0.0,0.0,0.0,0.0,0.0,0.0,0.0,0.0,0.0,3.3029,3.2337,3.2114,3.2107,3.2107,3.2119,3.2233,3.272,3.2904,3.2773,3.2005,3.1615,3.1445,3.1602,3.1668,3.1964,3.2967,3.3317,3.3465,3.3536,3.3361,3.3468,3.4303,3.4246,3.4349,3.507,3.5207,3.4981,3.4309,3.3987,3.3489,3.2629,3.2045,0.0,0.0,0.0,0.0,0.0,0.0,0.0,2.8054,2.7361,2.6701,2.6019,2.5337,2.4679,2.4014,2.3729,2.3595,2.3595,2.3595,2.3595,2.3595,2.3595,2.3595,2.3595,2.3595,0.0,0.0,2.3948,2.39,2.3638,2.3964,2.3879,2.3595,2.3595,2.3794,2.4032,0.0,0.0,0.0,0.0,0.0,2.0539,2.2149,2.2512,2.3174,2.479,2.483,2.478,2.4909,2.5772,2.6413,2.6595,2.6847,0.0,0.0,0.0,0.0,0.0,0.0,0.0,0.0,0.0,0.0,2.5098,2.4437,2.4245,0.0,0.0,2.5451,2.6227,0.0,0.0,0.0,0.0,0.0,0.0,0.0,0.0,0.0,0.0,0.0,0.0,0.0,0.0,0.0,0.0,0.0,3.0563,3.1045,3.1077,3.1098,3.1977,3.2132,3.1882,3.1203,3.0689,3.0389,3.0692,3.0619,3.0849,3.2205,3.2737,3.3139,3.3828,3.3858,3.4042,3.5099,3.4936,3.4891,3.5715,3.5694,3.5447,3.4965,3.4736,3.4226,3.3233,0.0,3.2071,0.0,3.104,0.0,0.0,0.0,0.0,0.0,2.7453,2.6497,2.5802,2.5167,2.4576,2.409,2.4074,2.4074,2.4074,2.3921,2.3921,2.4074,2.3921,2.3921,2.4074,0.0,0.0,0.0,2.4491,2.441,2.4116,2.4491,2.441,2.4074,2.4074,2.4307,2.4592,0.0,0.0,0.0,0.0,0.0,0.0,2.238,2.2989,2.3697,2.4854,2.4715,2.4503,2.4512,2.5937,2.6948,2.7078,2.7462,0.0,0.0,0.0,0.0,0.0,0.0,0.0,0.0,0.0,0.0,2.3911,2.392,2.4011,2.4228,2.5163,2.5912,2.6521,0.0,0.0,0.0,0.0,0.0,0.0,0.0,0.0,0.0,0.0,0.0,0.0,0.0,0.0,0.0,0.0,0.0,0.0,0.0,3.0029,3.0083,3.0498,3.077,3.0667,2.9533,2.9318,2.9253,2.8526,2.9183,3.017,3.0785,3.1636,3.2716,3.4096,3.471,3.5319,3.6465,3.6239,3.5993,3.6356,3.5941,3.56,3.56,3.5028,3.46,0.0,0.0,3.1725,3.2331,0.0,0.0,0.0,0.0,0.0,0.0,2.7971,2.6949,2.6222,2.5675,2.5331,2.5182,2.5182,2.5182,2.5182,2.4652,2.4672,2.5163,2.4617,2.4677,0.0,0.0,0.0,0.0,2.5202,2.5182,2.5182,2.5202,2.5182,2.5182,2.5182,2.5182,2.5202,0.0,0.0,0.0,0.0,0.0,0.0,0.0,2.301,2.3382,2.4504,2.4238,2.4098,2.4469,2.582,2.6774,2.6949,2.7923,0.0,0.0,0.0,0.0,0.0,0.0,0.0,0.0,0.0,2.4381,2.3229,2.2156,2.2034,2.2853,2.3915,2.5008,2.6065,2.7007,0.0,0.0,0.0,0.0,0.0,0.0,0.0,0.0,0.0,0.0,0.0,0.0,0.0,0.0,0.0,0.0,0.0,0.0,0.0,0.0,2.9742,2.9819,2.98,2.9426,2.9364,2.9342,2.9112,2.9309,2.9837,3.0703,3.1117,3.1823,3.3507,3.3953,3.4385,3.5464,3.5533,3.5518,3.5822,3.5717,0.0,3.56,3.5424,0.0,3.3901,3.2326,3.1362,0.0,0.0,0.0,0.0,0.0,0.0,0.0,2.7863,2.6854,2.6226,2.5592,2.5231,2.5202,2.5202,2.5202,2.5202,2.5028,2.5047,2.5202,2.5012,0.0,0.0,0.0,0.0,0.0,2.5596,2.554,2.524,2.5596,2.5521,2.5202,2.5202,2.543,2.5689,0.0,0.0,0.0,0.0,0.0,0.0,0.0,2.3319,2.352,2.4227,2.3945,2.3829,2.4164,2.5505,2.6414,2.6549,2.7885,0.0,0.0,0.0,0.0,0.0,0.0,0.0,0.0,2.5461,2.3995,2.2454,2.0953,2.0835,2.1984,2.2913,2.4267,2.5989,2.6888,0.0,0.0,0.0,0.0,0.0,0.0,0.0,0.0,0.0,0.0,0.0,0.0,0.0,0.0,0.0,0.0,0.0,0.0,0.0,0.0,0.0,2.8717,2.8764,2.8996,2.888,2.8717,2.8717,2.8717,2.9011,3.0098,3.0442,3.1086,3.3017,3.3547,3.3935,3.4926,3.494,3.4872,3.504,3.5128,3.5177,0.0,0.0,0.0,3.3152,0.0,0.0,0.0,0.0,0.0,0.0,0.0,0.0,0.0,2.796,2.7063,2.6412,2.5805,2.558,2.5764,2.5764,2.5764,2.5764,2.558,2.558,2.5764,2.558,0.0,0.0,0.0,0.0,0.0,2.6122,2.6068,2.5801,2.6139,2.6068,2.5764,2.5764,2.598,2.6227,0.0,0.0,0.0,0.0,0.0,0.0,0.0,2.3744,2.3894,2.3846,2.3666,2.3548,2.3552,2.4949,2.5859,2.5829,0.0,0.0,0.0,0.0,0.0,0.0,0.0,0.0,0.0,2.5433,2.3997,2.168,2.0287,2.0224,2.1472,2.202,2.363,2.6086,2.6563,0.0,0.0,0.0,0.0,0.0,0.0,0.0,0.0,0.0,0.0,0.0,0.0,0.0,0.0,0.0,0.0,0.0,0.0,0.0,0.0,0.0,0.0,0.0,0.0,2.8018,2.76,2.76,2.76,2.7919,2.9134,2.9691,0.0,3.2607,3.3335,3.3846,3.4712,3.4524,3.4231,3.4283,3.4459,3.4556,0.0,3.4404,0.0,0.0,3.2242,0.0,0.0,0.0,0.0,0.0,0.0,0.0,0.0,2.8163,2.7401,2.6708,2.6229,2.6212,2.6691,2.664,2.664,2.6691,2.6262,2.6279,2.6691,2.6244,0.0,0.0,0.0,0.0,0.0,2.6691,2.6691,2.6691,2.6691,2.6691,2.6691,2.6691,2.6691,2.6691,0.0,0.0,0.0,0.0,0.0,0.0,0.0,0.0,0.0,0.0,2.2142,2.2071,2.2229,2.3619,2.4471,0.0,0.0,0.0,0.0,0.0,0.0,0.0,0.0,0.0,0.0,2.4679,2.3373,2.1611,2.0263,1.9772,2.0089,2.078,2.2398,2.4774,2.5342,0.0,0.0,0.0,0.0,0.0,0.0,0.0,0.0,0.0,0.0,0.0,2.6651,2.6571,0.0,0.0,0.0,0.0,0.0,0.0,0.0,0.0,2.76,2.7625,2.776,0.0,2.76,2.76,2.76,2.7919,0.0,2.9464,3.0103,3.207,3.2559,3.3031,3.435,3.4499,3.4619,3.5176,3.5299,3.5148,3.4573,0.0,0.0,3.2344,3.1802,0.0,0.0,0.0,0.0,0.0,0.0,0.0,0.0,2.7368,2.6877,2.6725,2.605,2.6017,2.6691,2.6133,2.615,2.6691,2.659,2.659,2.6691,2.659,0.0,0.0,0.0,0.0,2.6691,2.6691,2.6691,2.6691,2.6691,2.6691,2.6691,2.6691,2.6691,2.6691,0.0,0.0,0.0,0.0,0.0,0.0,0.0,0.0,0.0,0.0,0.0,0.0,0.0,0.0,0.0,0.0,0.0,0.0,0.0,0.0,0.0,0.0,0.0,0.0,2.3959,2.3554,2.2895,2.1983,2.0872,2.0386,2.0493,2.0874,2.2392,2.4846,2.6016,0.0,0.0,0.0,0.0,0.0,0.0,0.0,0.0,0.0,0.0,0.0,2.6197,2.6121,0.0,2.5566,2.6047,2.6873,0.0,0.0,0.0,0.0,2.781,2.76,2.76,2.76,2.7675,2.7989,2.7824,2.801,2.9507,2.9624,2.9852,3.1463,3.1802,3.2056,3.2831,3.3254,3.3609,3.4015,3.437,0.0,0.0,0.0,3.2175,3.1853,3.1427,0.0,0.0,0.0,0.0,0.0,0.0,0.0,0.0,2.7097,2.6691,2.6691,2.5818,2.5597,2.6184,2.5456,2.5473,2.6201,2.6201,2.637,2.6691,2.6691,2.6691,0.0,0.0,0.0,2.6674,2.6336,2.6201,2.6167,2.5812,2.5772,2.5964,2.6322,2.6442,2.6478,0.0,0.0,0.0,0.0,0.0,0.0,0.0,0.0,0.0,0.0,0.0,0.0,0.0,0.0,0.0,0.0,0.0,0.0,0.0,0.0,0.0,0.0,0.0,2.2923,2.1975,2.2365,2.2549,2.2417,2.1638,2.1296,2.1383,2.139,2.2804,2.5452,2.7295,0.0,0.0,0.0,0.0,0.0,0.0,0.0,0.0,0.0,0.0,0.0,0.0,0.0,0.0,2.5753,2.6029,2.6634,2.7391,0.0,0.0,0.0,0.0,0.0,2.7839,2.7795,2.7836,2.8319,2.8034,2.8071,2.9832,2.9815,2.9739,3.0938,3.119,3.1258,3.1478,3.2056,3.2547,0.0,0.0,0.0,3.2516,3.2355,3.2068,3.1378,0.0,0.0,0.0,0.0,0.0,0.0,0.0,0.0,0.0,2.7046,2.6674,2.6605,2.5674,2.5306,2.558,2.4802,2.4839,2.5689,2.5625,2.5998,2.6691,2.6691,2.6691,0.0,0.0,0.0,2.6554,2.5926,2.5636,2.5513,2.4897,2.4903,2.5333,2.5886,2.6117,2.6296,0.0,0.0,0.0,0.0,0.0,0.0,0.0,0.0,0.0,0.0,0.0,0.0,0.0,0.0,0.0,0.0,0.0,0.0,0.0,0.0,0.0,0.0,2.0131,2.0246,2.0912,2.1705,2.226,2.2578,2.1822,2.1247,2.0817,2.0832,2.2397,2.5327,2.7363,2.8534,2.9027,0.0,0.0,0.0,0.0,0.0,0.0,0.0,0.0,0.0,0.0,0.0,0.0,2.6782,2.7267,2.7845,2.8169,0.0,0.0,0.0,0.0,0.0,2.8953,2.8717,2.8204,2.7846,2.7675,2.7949,2.9238,2.9464,2.9739,3.0938,3.119,3.1579,3.2831,3.3152,3.3643,0.0,0.0,3.3749,0.0,0.0,3.2267,0.0,0.0,0.0,0.0,0.0,0.0,0.0,0.0,0.0,0.0,2.6759,2.6535,2.6203,2.6083,2.5857,2.553,2.45,2.4681,2.6029,2.5735,2.5998,2.6691,2.6691,2.6691,0.0,0.0,2.6516,2.6184,2.6081,2.5825,2.5497,2.5392,2.5797,2.6362,2.5821,2.6032,2.6644,0.0,0.0,0.0,0.0,0.0,0.0,0.0,0.0,0.0,0.0,0.0,0.0,0.0,0.0,0.0,0.0,0.0,0.0,0.0,0.0,0.0,2.018,1.9506,1.9183,1.9229,2.0024,2.0747,2.1418,2.1468,2.1355,2.1144,2.1834,2.3281,2.5394,2.6995,2.8453,2.9718,0.0,0.0,0.0,0.0,0.0,0.0,0.0,0.0,0.0,0.0,0.0,0.0,0.0,2.7218,2.7528,2.8551,0.0,0.0,0.0,0.0,0.0,2.8126,2.8278,2.8292,2.8054,2.8319,2.8873,2.9751,2.9903,3.0145,3.1015,3.119,3.1529,3.2594,0.0,3.371,3.4647,0.0,3.358,3.2827,3.2596,0.0,0.0,0.0,0.0,0.0,0.0,0.0,0.0,0.0,0.0,0.0,0.0,2.6203,2.5846,2.6002,2.5901,2.5491,2.4794,2.4882,2.5775,2.6101,2.6412,2.6697,2.7143,2.7348,2.7348,0.0,2.6991,2.639,2.5967,2.5401,2.4824,2.4413,2.4857,2.5731,2.5759,2.629,2.691,0.0,0.0,0.0,0.0,0.0,0.0,0.0,0.0,0.0,0.0,0.0,0.0,0.0,0.0,0.0,0.0,0.0,0.0,0.0,0.0,2.0565,2.0991,2.0058,1.9011,1.7929,1.8851,1.9645,2.0215,2.0946,2.1395,2.1534,2.2799,2.419,2.5673,2.6912,2.8507,3.0302,3.0331,3.0683,0.0,0.0,0.0,0.0,0.0,0.0,0.0,0.0,0.0,0.0,0.0,0.0,0.0,0.0,0.0,0.0,2.8873,2.8292,2.7389,2.7567,2.7904,2.8222,2.8244,2.8874,2.9681,3.0461,3.0592,3.0725,3.1328,3.1464,3.1633,3.2192,3.2985,0.0,3.3942,3.3846,3.3449,3.2506,0.0,0.0,0.0,0.0,0.0,0.0,0.0,0.0,0.0,0.0,0.0,0.0,0.0,2.5888,2.5691,2.5896,2.5925,2.5758,2.5456,2.5313,2.5331,2.5936,2.6291,2.6431,2.7055,2.7335,2.7335,2.7335,2.6937,2.6215,2.5585,2.4924,2.4242,2.3872,2.4372,2.5393,2.6138,2.6693,2.6964,0.0,0.0,0.0,0.0,0.0,0.0,0.0,0.0,0.0,0.0,0.0,0.0,0.0,0.0,0.0,0.0,0.0,0.0,0.0,0.0,2.0984,2.2747,2.1493,1.9773,1.7684,1.9275,1.9973,1.9666,2.0405,2.1018,2.1534,2.2799,2.4423,2.6275,2.7625,2.8989,3.0335,3.0888,3.114,3.119,0.0,0.0,0.0,0.0,0.0,0.0,0.0,0.0,0.0,0.0,0.0,0.0,0.0,0.0,2.9764,2.9191,2.8411,2.792,2.8662,2.8417,2.7967,2.8083,2.8768,2.9736,3.103,3.1314,3.1475,3.2107,3.2226,3.2242,0.0,3.3271,3.3961,3.3688,3.399,3.3741,0.0,0.0,0.0,0.0,0.0,0.0,0.0,0.0,0.0,0.0,0.0,0.0,0.0,0.0,0.0,2.5972,2.5991,2.6168,2.6519,2.6497,2.5925,2.4841,2.4591,2.4877,2.5588,2.5641,2.5659,2.5659,2.5659,2.5384,2.4931,2.4859,2.4599,2.4278,2.4966,2.5745,2.658,2.7369,2.7222,2.6625,0.0,0.0,0.0,0.0,0.0,0.0,0.0,0.0,0.0,0.0,0.0,0.0,0.0,0.0,0.0,0.0,0.0,0.0,0.0,0.0,2.0907,2.2074,2.2018,2.0985,1.8955,1.8988,1.8805,1.8368,2.0257,2.1911,2.3249,2.3225,2.4053,2.5612,2.6599,2.7593,2.8584,3.0031,3.0638,3.0683,3.1319,0.0,0.0,0.0,0.0,0.0,0.0,0.0,0.0,0.0,2.7706,2.774,0.0,2.8536,2.8027,2.8197,2.7723,2.7182,2.7503,2.8069,2.859,2.8645,2.9596,3.0543,3.0681,3.1349,3.2148,3.284,3.2632,0.0,0.0,0.0,3.4194,3.4057,3.3605,0.0,0.0,0.0,0.0,0.0,0.0,0.0,0.0,0.0,0.0,0.0,0.0,0.0,0.0,0.0,0.0,2.4954,2.5391,2.5576,2.5477,2.573,2.5358,2.4449,2.5317,2.5624,2.545,2.5957,2.6174,2.6174,2.6174,2.5807,2.5171,2.5171,2.5079,2.5081,2.6384,2.7082,2.7328,2.7126,2.6869,2.6465,0.0,0.0,0.0,0.0,0.0,0.0,0.0,0.0,0.0,0.0,0.0,0.0,0.0,0.0,0.0,0.0,0.0,0.0,0.0,1.9001,2.0459,2.1825,2.2357,2.1995,2.0653,1.938,1.8375,1.7605,1.9993,2.2132,2.4015,2.3395,2.3718,2.4889,2.5866,2.6714,2.7495,2.9275,3.0123,3.0356,3.1035,3.1069,0.0,0.0,0.0,0.0,0.0,0.0,0.0,0.0,2.7651,0.0,0.0,0.0,0.0,0.0,2.7553,2.7281,2.7428,2.8032,2.8724,2.9089,2.9849,3.056,3.0731,3.1557,3.2446,3.2949,3.2584,3.2318,3.2949,0.0,0.0,0.0,0.0,0.0,0.0,0.0,0.0,0.0,0.0,0.0,0.0,0.0,0.0,0.0,0.0,0.0,0.0,0.0,0.0,0.0,2.4884,2.5006,2.5001,2.5006,2.475,2.4208,2.5328,2.5548,2.5044,2.5585,2.5841,2.5841,2.5841,2.5529,2.5044,2.5301,2.5705,2.6274,2.7376,2.7798,2.7732,2.7181,2.6667,2.6062,0.0,0.0,0.0,0.0,0.0,0.0,0.0,0.0,0.0,0.0,0.0,0.0,0.0,0.0,0.0,0.0,0.0,0.0,0.0,1.7528,1.9593,2.2366,2.2635,2.2668,2.2609,2.0729,1.9049,1.7644,1.9502,2.1452,2.3408,2.3216,2.3543,2.4337,2.567,2.6674,2.743,2.8794,2.9717,3.0272,3.0293,3.046,0.0,0.0,0.0,0.0,0.0,0.0,0.0,0.0,2.8378,2.8859,0.0,0.0,0.0,2.8127,2.8135,2.8511,2.8971,2.846,2.8099,2.9298,2.9299,2.9512,3.137,3.2053,3.2313,3.2313,3.2059,3.2074,3.3011,3.3181,0.0,0.0,0.0,0.0,0.0,0.0,0.0,0.0,0.0,0.0,0.0,0.0,0.0,0.0,0.0,0.0,0.0,0.0,0.0,0.0,2.4622,2.4585,2.5374,2.4603,2.419,2.419,2.419,2.419,2.419,2.419,2.419,2.419,2.419,2.419,2.4263,2.5081,2.6366,2.7798,2.7798,2.7798,2.7798,2.778,2.677,2.5393,0.0,0.0,0.0,0.0,0.0,0.0,0.0,0.0,0.0,0.0,0.0,0.0,0.0,0.0,0.0,0.0,0.0,0.0,0.0,1.6499,1.8358,2.0642,2.2001,2.2899,2.3359,2.2297,2.1272,2.0333,2.0906,2.2334,2.4563,2.3586,2.3215,2.3514,2.4456,2.4559,2.4163,2.637,2.7449,2.7843,2.9448,3.0378,0.0,0.0,0.0,0.0,0.0,0.0,0.0,0.0,0.0,0.0,0.0,0.0,0.0,2.8142,2.8356,2.8805,2.8361,2.8446,2.8734,2.9086,2.99,3.0763,3.1317,3.2159,3.2871,3.3172,3.2964,3.263,3.2403,0.0,0.0,0.0,0.0,0.0,0.0,0.0,0.0,0.0,0.0,0.0,0.0,0.0,0.0,0.0,0.0,0.0,0.0,0.0,0.0,0.0,2.4318,2.43,2.4548,2.4318,2.419,2.419,2.419,2.419,2.419,2.419,2.419,2.419,2.419,2.419,2.43,2.5676,2.6851,2.7798,2.7798,2.7798,2.7669,2.6531,2.5815,2.5319,0.0,0.0,0.0,0.0,0.0,0.0,0.0,0.0,0.0,0.0,0.0,0.0,0.0,0.0,0.0,0.0,0.0,0.0,0.0,0.0,1.6733,1.9056,2.145,2.3145,2.4077,2.3363,2.2738,2.2253,2.1957,2.2818,2.4734,2.3408,2.2745,2.2647,2.3334,2.3163,2.2528,2.4476,2.5658,2.6317,2.77,2.9003,3.0121,0.0,0.0,0.0,0.0,0.0,0.0,0.0,0.0,0.0,2.8339,2.8658,2.8977,2.8478,2.8783,2.9301,2.9291,2.9155,2.9275,3.0377,3.0767,3.0993,3.1466,3.2207,3.2827,0.0,3.2793,3.2495,3.1869,3.1555,0.0,0.0,0.0,0.0,0.0,0.0,0.0,0.0,0.0,0.0,0.0,0.0,0.0,0.0,0.0,0.0,0.0,0.0,0.0,0.0,2.4247,2.419,2.419,2.419,2.419,2.419,2.4275,2.4275,2.419,2.419,2.419,2.419,2.419,2.4373,2.475,2.5713,2.6594,2.7321,2.7409,2.7255,2.6849,2.5881,2.5366,2.5086,0.0,0.0,0.0,0.0,0.0,0.0,0.0,0.0,0.0,0.0,0.0,0.0,0.0,0.0,0.0,0.0,0.0,0.0,0.0,0.0,1.483,1.7562,2.0949,2.3445,2.4839,2.4123,2.37,2.3572,2.2737,2.2936,2.4084,2.2798,2.2009,2.1708,2.2184,2.2177,2.1854,2.303,2.4177,2.5267,2.5445,2.6757,2.8543,2.794,0.0,0.0,0.0,0.0,0.0,0.0,0.0,0.0,2.9005,2.906,2.9097,2.9023,2.9307,2.9872,3.0893,3.0184,2.9721,3.2288,3.1607,3.0591,3.1697,3.2171,3.2319,3.2003,0.0,3.1719,3.1371,3.1231,0.0,0.0,0.0,0.0,0.0,0.0,0.0,0.0,0.0,0.0,0.0,0.0,0.0,0.0,0.0,0.0,0.0,0.0,0.0,2.4528,2.4348,2.4247,2.4247,2.4247,2.4247,0.0,2.4435,2.4426,2.4247,2.4247,2.4247,2.4238,2.4237,2.4688,2.5444,2.5443,2.5911,2.6659,2.6776,2.6376,2.5724,2.5659,2.5316,2.4888,0.0,0.0,0.0,0.0,0.0,0.0,0.0,0.0,0.0,0.0,0.0,0.0,0.0,0.0,0.0,0.0,0.0,0.0,0.0,0.0,0.0,0.0,0.0,0.0,0.0,0.0,0.0,0.0,0.0,2.2434,2.2705,2.1837,2.0947,2.0132,2.0641,2.0329,1.954,2.1316,2.2288,2.2752,2.4231,2.5429,2.6476,2.8021,2.8373,0.0,0.0,0.0,0.0,0.0,0.0,0.0,2.9005,2.9427,2.9824,2.9189,2.9508,2.9984,2.9617,2.9716,3.0086,3.0678,3.0982,3.1211,3.1459,3.1584,3.1618,3.1532,3.1033,3.0552,3.0473,0.0,0.0,0.0,0.0,0.0,0.0,0.0,0.0,0.0,0.0,0.0,0.0,0.0,0.0,0.0,0.0,0.0,0.0,0.0,0.0,2.4738,2.4693,2.467,2.467,2.467,2.467,0.0,2.4716,2.4716,2.467,2.467,2.467,2.4662,2.4503,2.4986,2.586,2.5706,2.6199,2.7003,2.6416,2.6083,2.5866,2.5231,2.5307,2.574,0.0,0.0,0.0,0.0,0.0,0.0,0.0,0.0,0.0,0.0,0.0,0.0,0.0,0.0,0.0,0.0,0.0,0.0,0.0,0.0,1.2319,1.7515,0.0,0.0,0.0,0.0,0.0,0.0,2.3141,2.2447,2.2669,2.2041,2.1352,2.0687,2.0592,2.0136,1.9479,2.0353,2.0964,2.1421,2.2393,2.3501,2.473,2.5869,2.6634,2.7131,2.7676,0.0,0.0,0.0,0.0,0.0,0.0,0.0,2.9537,2.9115,2.9299,2.961,2.9574,2.9879,3.0283,3.0687,3.1194,3.1485,3.1103,3.1088,3.1046,3.0684,3.039,3.0081,2.9702,0.0,0.0,0.0,0.0,0.0,0.0,0.0,0.0,0.0,0.0,0.0,0.0,0.0,0.0,0.0,0.0,0.0,0.0,2.4828,2.4821,2.4891,2.4828,2.4804,2.4804,2.4804,2.4804,2.4804,2.4876,2.4955,2.5024,2.4862,2.4804,2.4797,2.4693,2.4937,2.5409,2.53,2.5579,2.6019,2.5669,2.5515,2.5477,2.5061,2.5228,2.5641,0.0,0.0,0.0,0.0,0.0,0.0,0.0,0.0,0.0,0.0,0.0,0.0,0.0,0.0,0.0,0.0,0.0,0.0,0.0,0.7132,1.2512,1.9579,0.0,0.0,0.0,0.0,0.0,0.0,2.2799,2.2468,2.3083,2.2326,2.1869,2.1618,2.0858,2.037,2.0094,1.9869,2.0131,2.0635,2.0746,2.1697,2.3062,2.3382,2.452,2.6011,2.6302,2.6947,2.7675,2.7765,0.0,0.0,0.0,0.0,2.8892,2.8856,2.8835,2.8975,2.9535,2.9863,3.0244,3.1066,3.1439,3.1395,3.0609,3.0565,3.0498,2.9837,2.9927,2.9864,0.0,0.0,0.0,0.0,0.0,0.0,0.0,0.0,0.0,0.0,0.0,0.0,0.0,0.0,0.0,0.0,0.0,0.0,2.5034,2.4955,2.4942,2.504,2.493,2.4895,2.4895,2.4895,2.4895,2.4895,2.4999,2.5146,2.5298,2.5,2.4895,2.4876,2.4842,2.4849,2.4876,2.4842,2.4849,2.4908,2.5011,2.5046,2.5046,2.5046,2.5253,2.5504,0.0,0.0,0.0,0.0,0.0,0.0,0.0,0.0,0.0,0.0,0.7143,0.594,0.6789,0.594,0.0,0.0,0.0,0.0,0.2823,0.0,0.0,0.0,0.0,0.0,0.0,0.0,0.0,0.0,2.224,2.2121,2.3053,2.1409,2.0625,2.0585,2.0001,1.9709,1.9678,1.9774,1.985,1.9978,2.0572,2.093,2.1342,2.2907,2.3667,2.4097,2.5566,2.6335,2.6753,2.722,2.7634,0.0,0.0,0.0,2.8457,2.8265,2.8224,2.8134,2.7697,2.8492,2.9633,3.0482,3.073,3.059,2.9964,2.9848,2.9837,0.0,2.9746,0.0,0.0,0.0,0.0,0.0,0.0,0.0,0.0,0.0,0.0,0.0,0.0,0.0,0.0,0.0,0.0,0.0,0.0,0.0,2.5253,2.5243,2.5243,2.5264,2.5243,2.5233,2.5233,2.5233,2.5233,2.5233,2.5253,2.5269,2.5303,2.5248,2.5233,2.5228,2.5053,2.5065,2.5228,2.5047,2.509,2.5238,2.5253,2.5264,2.5264,2.5264,2.5754,2.6423,0.0,0.0,0.0,0.0,0.0,0.0,0.0,0.0,0.0,0.0,0.0,0.6183,0.5987,0.5091,0.0,0.0,0.0,0.0,0.4043,0.8192,0.0,0.0,0.0,0.0,0.0,0.0,0.0,2.2852,2.1624,2.1805,2.3177,2.2002,2.1793,2.2388,2.1498,2.0945,2.064,2.0044,1.9798,1.9824,2.0131,2.0446,2.0894,2.1673,2.2616,2.3597,2.4332,2.5016,2.5664,2.6337,2.6742,2.7061,2.761,0.0,0.0,0.0,2.7606,2.7587,2.833,2.8678,2.912,3.0442,3.0499,3.02,2.9921,2.9981,3.0099,3.0099,3.0099,0.0,0.0,0.0,0.0,0.0,0.0,0.0,0.0,0.0,0.0,0.0,0.0,0.0,0.0,0.0,0.0,0.0,0.0,2.5208,2.5303,2.5308,2.5308,2.5308,2.5308,2.5308,2.5308,2.5308,2.5308,2.5308,2.5308,2.5308,2.5308,2.5308,2.5308,2.5303,2.5208,2.5219,2.5284,2.5208,2.5219,2.5308,2.5308,2.5308,2.5308,2.5308,2.5538,2.5865,0.0,0.0,0.0,0.0,0.0,0.0,0.0,0.0,0.0,0.0,0.0,0.0,0.5505,0.0,0.0,0.0,0.0,0.0,0.5596,0.0,0.0,0.0,0.0,0.0,0.0,0.0,2.0451,2.1682,2.1037,2.1636,2.3298,2.2788,2.3166,2.422,2.3039,2.2133,2.1458,2.0439,2.0024,2.0012,1.9861,2.0105,2.0547,2.0734,2.1639,2.284,2.3135,2.3651,2.4374,2.5395,2.5698,2.5781,2.672,2.6887,0.0,0.0,0.0,2.6758,2.8311,2.8294,2.8253,2.9944,3.0037,2.9773,3.0044,0.0,3.0404,0.0,0.0,0.0,0.0,0.0,0.0,0.0,0.0,0.0,0.0,0.0,0.0,0.0,0.0,0.0,0.0,0.0,0.0,0.0,0.0,2.5308,2.5308,2.5308,2.5308,2.5308,2.5308,2.5308,2.5308,2.5308,2.5308,2.5308,2.5308,2.5308,2.5308,2.5308,2.5308,2.5308,2.5308,2.5308,2.5308,2.5308,2.5308,2.5308,2.5308,2.5308,2.5308,2.5308,2.5308,2.5308,0.0,0.0,0.0,0.0,0.0,0.0,0.0,0.0,0.0,0.0,0.0,0.0,0.0,0.0,0.0,0.0,0.0,0.0,0.0,0.0,0.0,0.0,0.0,0.0,0.0,1.8313,1.8845,1.9765,2.045,2.1693,2.3382,2.3298,2.3872,2.4974,2.3641,2.2498,2.1443,2.0893,2.0641,2.0591,2.0024,1.9824,1.9927,2.0547,2.087,2.1088,2.2158,2.2591,2.2879,2.4495,2.459,2.428,2.5777,2.5946,2.5554,0.0,0.0,0.0,2.6148,2.6351,2.6726,2.846,2.8893,2.9121,3.0144,0.0,3.0404,3.0404,0.0,0.0,0.0,0.0,0.0,0.0,0.0,0.0,0.0,0.0,0.0,0.0,0.0,0.0,0.0,0.0,0.0,0.0,0.0,2.5308,2.5308,2.5308,2.5308,2.5308,2.5308,2.5308,2.5308,2.5308,2.5308,2.5308,2.5308,2.5308,2.5308,2.5308,2.5308,2.5308,2.5308,2.5308,2.5308,2.5308,2.5308,2.5308,2.5308,2.5308,2.5308,2.5308,2.5308,2.5308,0.0,0.0,0.0,0.0,0.0,0.0,0.0,0.0,0.0,0.0,0.0,0.0,0.0,0.445,0.2977,0.2708,0.0,0.0,0.0,0.0,0.0,0.0,0.0,0.0,0.0,1.7569,1.846,1.967,2.0423,2.1524,2.2888,2.3203,2.3165,2.2864,2.2678,2.2184,2.143,2.0501,2.0112,2.0087,1.9886,1.9798,1.9824,2.008,2.0434,2.0832,2.1266,2.1577,0.0,0.0,0.0,2.3432,2.4863,2.4921,2.4475,2.4437,2.5091,2.5901,2.6193,2.6765,2.7441,2.8074,2.8617,2.9096,2.9475,3.0,3.0404,3.0404,0.0,0.0,0.0,0.0,0.0,0.0,0.0,0.0,0.0,0.0,0.0,0.0,0.0,0.0,0.0,0.0,0.0,0.0,0.0,0.0,2.5308,2.5308,2.5308,2.5308,2.5308,2.5308,2.5308,2.5308,2.5308,2.5308,2.5308,2.5308,2.5308,2.5308,2.5317,2.5352,2.5367,2.5363,2.5367,2.542,2.5425,2.5425,2.5425,2.539,2.5352,2.5363,2.5363,2.535,0.0,0.0,0.0,0.0,0.0,0.0,0.0,0.0,0.0,1.0217,0.0,0.0,0.0,0.0,0.289,0.3227,0.547,0.0,0.0,0.0,0.0,0.0,0.0,0.0,0.0,1.7118,1.8047,1.901,2.0206,2.1435,2.2639,2.2988,2.2944,2.2576,2.2443,2.2078,2.1443,2.069,2.0363,2.0338,1.9949,1.9798,1.9798,1.9798,2.008,2.0446,2.0446,0.0,0.0,0.0,0.0,2.2541,2.3748,2.3915,2.3706,2.3927,2.4845,2.5811,2.585,2.6455,2.7205,2.7788,2.8116,2.8439,2.9003,2.9564,2.9883,2.9652,0.0,0.0,0.0,0.0,0.0,0.0,0.0,0.0,0.0,0.0,0.0,0.0,0.0,0.0,0.0,0.0,0.0,0.0,0.0,0.0,2.5308,2.5308,2.5308,2.5308,2.5308,2.5308,2.533,2.533,2.5333,2.5371,2.5371,2.5371,2.5371,2.5371,2.5395,2.5438,2.5462,2.5456,2.5434,2.5471,2.5491,2.5491,2.5491,2.5463,2.5438,2.5431,2.5428,2.5421,0.0,0.0,0.0,0.0,0.0,0.0,0.0,0.0,1.1481,1.0334,0.0,0.0,0.0,0.0,0.0,0.4357,0.6839,0.9261,1.1425,1.3369,0.0,0.0,0.0,0.0,1.5439,1.6856,1.7605,1.7633,1.9761,2.1421,2.2647,2.2622,2.3262,2.4371,2.3146,2.2191,2.1483,2.1499,2.1471,2.1343,2.0238,1.9798,1.9798,1.9798,1.9798,1.9798,1.9798,1.9811,0.0,2.1175,0.0,0.0,2.2501,2.2966,2.3276,2.3822,2.4395,2.4882,0.0,0.0,0.0,2.754,0.0,0.0,2.876,0.0,2.8862,2.8141,0.0,0.0,0.0,0.0,0.0,0.0,0.0,0.0,0.0,0.0,0.0,0.0,0.0,0.0,0.0,0.0,0.0,0.0,0.0,2.5317,2.5317,2.5317,2.5298,2.5293,2.5298,2.5335,2.5402,2.5402,2.5431,2.5491,2.5491,2.5491,2.5491,2.5491,2.5493,2.5517,2.5566,2.5561,2.5515,2.5515,2.5515,2.5515,2.5515,2.5496,2.5493,2.5493,2.5493,2.5493,0.0,0.0,0.0,0.0,0.0,1.4065,1.3655,1.2642,1.1846,0.0,0.0,0.0,0.8551,0.5849,0.4406,0.5264,0.7862,1.0563,1.3202,1.4781,1.5671,1.5743,1.5518,1.5642,1.6179,1.7107,1.7841,1.8394,2.0016,2.0974,2.1356,2.2239,2.2607,2.2486,2.3011,2.2622,2.155,2.116,2.0694,2.0238,1.9924,1.9798,0.0,0.0,0.0,0.0,0.0,1.98,1.9939,0.0,2.119,2.1545,2.2387,2.2545,2.2539,2.3217,2.4652,2.5986,2.5771,0.0,0.0,0.0,0.0,0.0,0.0,0.0,0.0,0.0,0.0,0.0,0.0,0.0,0.0,0.0,0.0,0.0,0.0,0.0,0.0,0.0,0.0,0.0,0.0,0.0,0.0,0.0,2.5447,2.5447,2.5447,2.5447,2.5418,2.5368,2.5415,2.5459,2.5479,2.546,2.5471,2.5491,2.5491,2.5491,2.5491,2.5491,2.5535,2.5567,2.5597,2.5628,2.5637,2.5637,2.5637,2.5637,2.5637,2.5628,2.5567,2.5567,2.5567,2.5563,0.0,0.0,0.0,0.0,0.0,1.4851,1.4397,1.305,1.2111,0.0,0.0,0.0,0.7393,0.6003,0.549,0.6456,0.9141,1.1792,1.4137,1.5762,1.6631,1.6548,1.6286,1.6393,1.695,1.7688,1.8274,1.8688,1.9825,2.0535,2.082,2.1833,2.2216,2.2161,2.3115,2.2994,2.2029,2.1432,2.0789,0.0,1.9899,0.0,0.0,1.9798,1.9798,0.0,0.0,0.0,1.985,2.0245,2.0837,0.0,0.0,0.0,2.2974,2.2979,2.427,2.5643,2.5251,2.5684,0.0,0.0,0.0,0.0,0.0,2.7136,0.0,0.0,0.0,0.0,0.0,0.0,0.0,0.0,0.0,0.0,0.0,0.0,0.0,0.0,0.0,0.0,0.0,0.0,0.0,2.6588,2.6255,2.5883,2.551,2.5491,2.5473,2.545,2.5471,2.5503,2.5545,2.5547,2.5556,2.5573,2.5573,2.5573,2.5573,2.5573,2.5603,2.5636,2.5636,2.5661,2.5703,2.5703,2.5703,2.5703,2.5703,2.5682,2.5636,2.5636,2.5636,2.5635,0.0,0.0,1.8867,1.8178,1.6901,1.5802,1.5306,1.3651,1.2435,0.0,1.0634,0.8208,0.5187,0.5556,0.6468,0.7588,1.029,1.2692,1.4443,1.6361,1.7344,1.7268,1.7375,1.7528,1.7727,1.8425,1.8801,1.8821,1.9475,2.0105,2.0696,2.139,2.2016,2.2626,2.3312,2.3223,2.2548,2.1941,2.1229,2.0483,1.9987,1.9798,0.0,0.0,1.9798,1.9798,1.9736,1.971,1.9736,1.9788,2.0432,0.0,0.0,0.0,0.0,2.3154,2.3739,2.4513,2.4223,2.4253,2.4662,0.0,0.0,0.0,2.6311,2.6592,2.6444,0.0,0.0,0.0,0.0,0.0,0.0,0.0,0.0,0.0,0.0,0.0,0.0,0.0,0.0,0.0,0.0,2.8173,2.8115,2.8115,2.7312,2.6448,2.5561,2.5526,2.5529,2.5503,2.5526,2.5552,2.5606,2.5606,2.5636,2.5703,2.5703,2.5703,2.5703,2.5703,2.5703,2.5703,2.5703,2.5703,2.5703,2.5703,2.5703,2.5703,2.5703,2.5703,2.5703,2.5703,2.5703,2.5703,0.0,1.7369,1.7802,1.836,1.7636,1.6603,1.5673,1.434,1.332,1.3044,1.1052,0.8665,0.6185,0.6098,0.6628,0.7601,0.9697,1.2158,1.4871,1.6434,1.7384,1.7656,1.8452,1.8765,1.8486,1.9088,1.9492,1.9592,1.9721,1.9875,2.0029,2.1159,2.1781,2.1946,2.3084,2.2973,2.1886,2.1774,0.0,1.9354,1.9661,0.0,1.9798,1.9798,1.9798,1.9748,1.9309,1.9158,1.9244,1.9714,1.9954,2.0378,0.0,0.0,0.0,2.4147,2.4502,2.4535,2.4935,2.4609,0.0,0.0,0.0,0.0,2.5395,2.5678,2.5793,0.0,0.0,0.0,0.0,0.0,0.0,0.0,0.0,0.0,0.0,0.0,0.0,0.0,0.0,0.0,0.0,2.8668,2.8258,2.8258,2.7458,2.6553,2.5632,2.5633,2.5635,2.5573,2.5634,2.5661,2.5683,2.5683,2.5683,2.5703,2.5703,2.5703,2.5703,2.5703,2.5703,2.5703,2.5703,2.5703,2.5703,2.5703,2.5703,2.5703,2.5703,2.5703,2.5703,2.5703,2.5703,2.5703,1.6475,1.7072,1.7413,1.8186,1.7703,1.6847,1.5773,1.4673,1.3767,1.3264,1.1594,0.9766,0.7961,0.777,0.8185,0.9175,1.0619,1.254,1.5048,1.6273,1.7439,1.8685,1.8964,1.9287,1.9695,1.9709,1.9733,1.9798,1.9798,1.9978,2.0321,2.1256,2.1875,2.2239,2.3172,2.292,2.1809,2.1727,2.0845,1.9511,1.9711,0.0,1.9859,1.9535,1.9598,1.9806,1.9217,1.9177,1.9516,2.0183,2.0302,0.0,0.0,2.271,2.2849,0.0,2.3851,2.4182,2.3928,0.0,0.0,2.3784,0.0,0.0,0.0,2.5167,2.5431,2.5575,2.5632,0.0,0.0,0.0,0.0,0.0,0.0,0.0,0.0,0.0,0.0,0.0,0.0,0.0,0.0,2.9844,2.9414,2.8984,2.8144,2.7246,2.6343,2.5917,2.5683,2.5658,2.5683,2.5703,2.5703,2.5703,2.5703,2.5703,2.5703,2.5703,2.5703,2.5703,2.5703,2.5703,2.5703,2.5703,2.5703,2.5703,2.5703,2.5703,2.5703,2.5703,2.5703,2.5703,2.5703,2.5703,1.6498,1.6979,1.7292,1.7886,1.7647,1.6947,1.5793,1.4969,1.4169,1.3324,1.2124,1.0969,0.987,0.9576,0.9877,1.0904,1.1621,1.287,1.4868,1.5991,1.7326,1.9101,1.9254,1.9669,2.0449,2.0147,1.9911,1.9798,1.9927,2.0283,2.082,2.1558,2.217,2.2717,2.3334,2.3022,2.2032,2.1802,0.0,2.0157,0.0,2.0046,2.0072,1.9414,1.9581,2.0034,1.9159,1.9185,1.9709,2.0194,2.0437,2.0697,2.1805,2.2542,0.0,0.0,0.0,0.0,0.0,0.0,0.0,0.0,0.0,2.352,0.0,0.0,0.0,2.5317,0.0,0.0,0.0,0.0,0.0,0.0,0.0,0.0,0.0,0.0,0.0,0.0,0.0,0.0,0.0,3.0898,3.0547,2.9668,2.8945,2.8105,2.7051,2.6328,2.5879,2.5703,2.5703,2.5703,2.5703,2.5703,2.5703,2.5703,2.5703,2.5703,2.5703,2.5703,2.5703,2.5703,2.5703,2.5703,2.5703,2.5703,2.5703,2.5703,2.5703,2.5703,2.5703,2.5703,2.5703,2.5703,1.7476,1.722,1.6943,1.7837,1.7944,1.7378,1.5825,1.5516,1.4908,1.3403,1.2494,1.1857,1.1483,1.0645,1.0485,1.1494,1.1432,0.0,1.4179,0.0,1.6696,1.7288,1.9512,2.0393,1.9563,2.0254,2.0352,1.9798,2.0396,2.0734,2.082,2.2035,2.2626,2.2717,2.3334,2.3229,2.2563,0.0,2.1341,0.0,2.0725,2.0701,0.0,1.9967,2.0127,2.0498,1.8875,1.8611,1.8936,0.0,1.9051,2.0007,0.0,2.1659,2.1889,2.2812,0.0,0.0,0.0,0.0,0.0,0.0,2.2623,0.0,0.0,0.0,2.455,2.4836,0.0,0.0,0.0,0.0,0.0,0.0,0.0,0.0,0.0,0.0,0.0,0.0,0.0,0.0,0.0,0.0,3.0547,2.9668,2.9512,2.873,2.709,2.6914,2.6504,2.5723,2.5703,2.5703,2.5703,2.5703,2.5703,2.5703,2.5703,2.5703,2.5703,2.5703,2.5703,2.5703,2.5703,2.5703,2.5703,2.5703,2.5703,2.5703,2.5703,2.5703,2.5703,2.5703,2.5703,2.5703,1.7725,1.7242,1.6888,1.7828,1.8008,1.747,1.5861,1.4927,1.4205,1.3521,1.3147,1.2864,1.259,1.2194,1.2108,1.2519,1.245,1.2881,0.0,0.0,1.5849,1.745,1.8438,1.9246,1.9849,2.0074,2.0037,1.9798,2.0472,2.0979,2.1342,0.0,2.2875,2.3231,2.3486,2.3086,2.2239,0.0,2.1743,0.0,0.0,0.0,0.0,2.0379,1.9795,1.9556,1.8522,1.8663,1.9339,0.0,1.9396,0.0,0.0,0.0,0.0,0.0,0.0,0.0,0.0,0.0,0.0,0.0,0.0,0.0,2.3122,0.0,2.4009,0.0,0.0,0.0,0.0,0.0,0.0,0.0,0.0,0.0,0.0,0.0,0.0,0.0,0.0,0.0,0.0,0.0,0.0,0.0,0.0,2.9062,2.7812,2.7266,2.6602,2.5723,2.5703,2.5703,2.5703,2.5703,2.5703,2.5703,2.5703,2.5703,2.5703,2.5703,2.5703,2.5703,2.5703,2.5703,2.5703,2.5703,2.5703,2.5703,2.566,2.5661,2.5703,2.5703,2.5703,2.5683,1.7872,1.7467,1.7207,1.7862,1.8008,1.7473,1.5958,1.4499,1.3633,1.3713,1.3726,1.3646,1.3474,1.3454,1.3454,1.3454,1.338,1.3504,0.0,0.0,1.5129,1.7188,1.7576,1.8457,2.0017,2.0064,2.0037,2.0037,2.0712,2.1269,2.172,0.0,2.3179,2.3595,2.3595,2.3132,2.2388,0.0,2.2284,2.1664,2.1874,2.2265,2.2534,2.0984,1.9867,1.9043,1.8516,1.8912,1.9695,1.9648,1.9654,0.0,2.0273,0.0,0.0,0.0,0.0,0.0,2.1233,0.0,0.0,0.0,0.0,0.0,0.0,0.0,0.0,0.0,0.0,0.0,0.0,0.0,0.0,0.0,0.0,0.0,0.0,0.0,0.0,0.0,0.0,0.0,0.0,0.0,0.0,0.0,0.0,0.0,2.8691,2.7832,2.6953,2.6074,2.582,2.5703,2.5703,2.5703,2.5703,2.5703,2.5703,2.5683,2.5662,2.5662,2.5661,2.5657,2.5657,2.5657,2.5657,2.5657,2.5657,2.5636,2.5597,2.5603,2.5657,2.5657,2.5657,2.5636,1.7974,1.7974,1.7974,1.7974,1.8008,1.7567,1.6179,1.4645,1.3706,1.4035,1.4075,0.0,0.0,0.0,0.0,0.0,0.0,1.358,1.3614,0.0,1.4635,1.5638,1.7326,1.8733,0.0,2.0346,2.0666,2.0666,2.1356,2.1673,2.172,0.0,0.0,0.0,2.3595,2.358,2.3498,2.2936,2.3011,2.3462,2.29,2.2682,2.2622,0.0,2.0818,1.9603,1.9062,0.0,0.0,1.9109,1.9258,0.0,0.0,0.0,0.0,0.0,0.0,0.0,0.0,0.0,0.0,2.2166,0.0,0.0,0.0,0.0,2.3092,0.0,0.0,0.0,0.0,0.0,0.0,0.0,0.0,0.0,0.0,0.0,0.0,0.0,0.0,0.0,0.0,0.0,0.0,0.0,0.0,0.0,2.9609,2.873,2.7851,2.6992,2.6133,2.5703,2.5703,2.5703,2.5703,2.5703,2.5703,2.5661,2.5603,2.5603,2.5564,2.5517,2.5517,2.5517,2.5517,2.5517,2.5517,2.5517,2.5496,2.5496,2.5517,2.5517,2.5517,2.5517,1.8008,1.8008,1.8008,1.8008,1.8008,1.7532,1.6188,1.5269,1.451,0.0,1.3753,0.0,0.0,1.3507,1.3587,0.0,0.0,1.36,1.36,1.3545,0.0,1.5524,1.6203,1.7501,0.0,2.0147,2.0468,2.0691,2.1772,2.2087,2.172,2.3002,2.3595,0.0,0.0,2.3595,0.0,0.0,0.0,0.0,0.0,2.3062,2.2583,0.0,0.0,2.0285,1.9642,1.9548,0.0,1.9479,1.9548,1.9708,1.9708,1.9708,1.9708,1.9708,1.9982,0.0,0.0,0.0,2.1703,2.218,0.0,0.0,0.0,0.0,0.0,0.0,0.0,0.0,0.0,0.0,0.0,0.0,0.0,0.0,0.0,0.0,0.0,0.0,0.0,0.0,0.0,0.0,0.0,0.0,0.0,0.0,0.0,2.8769,2.7891,2.7031,2.6152,2.5703,2.5703,2.5703,2.5703,2.5703,2.5659,2.561,2.5601,2.5554,2.5511,2.5491,2.5491,2.5491,2.5491,2.5491,2.5491,2.5506,2.5453,2.5434,2.5444,2.5476,2.5491,2.5484,1.8037,1.8008,1.8008,1.8008,1.7941,1.7538,1.6519,1.5732,1.498,0.0,1.3642,0.0,1.3687,0.0,1.3782,0.0,1.4403,1.4344,1.3494,1.3658,0.0,1.5569,1.5791,0.0,1.9972,2.0312,2.0738,2.1293,2.2156,2.2405,2.2077,2.3106,2.3595,0.0,0.0,2.3595,2.3595,2.3595,2.3595,0.0,0.0,2.3236,0.0,0.0,2.0897,2.0598,0.0,1.9708,1.9708,1.9708,1.9708,1.9708,1.9708,1.9708,1.9744,1.9874,2.021,2.0649,2.1102,2.1522,0.0,2.2223,2.2296,0.0,2.2296,0.0,0.0,0.0,0.0,0.0,0.0,0.0,0.0,0.0,0.0,0.0,0.0,2.7668,0.0,0.0,0.0,0.0,0.0,0.0,3.0857,3.0898,0.0,0.0,0.0,0.0,2.8047,2.748,2.6328,2.5703,2.5703,2.5682,2.5661,2.5661,2.5599,2.5554,2.5535,2.5476,2.5456,2.5428,2.5428,2.5428,2.5428,2.5428,2.5428,2.5421,2.5372,2.5367,2.536,2.5404,2.5428,2.5418,1.8144,1.8076,1.8076,1.8076,1.7892,0.0,0.0,0.0,1.5227,0.0,1.3867,1.3639,1.4525,1.4641,1.4641,1.4656,1.5865,1.5693,1.3497,1.4297,0.0,0.0,1.6131,1.7721,2.0558,2.0896,2.1505,2.2456,0.0,2.2702,2.276,2.3326,2.3595,2.3595,2.3595,0.0,2.3655,2.361,2.3595,2.3595,2.3595,2.3236,2.2628,2.1969,2.1291,2.0598,1.9929,1.9708,1.9708,1.9708,1.9708,1.9693,1.9711,1.9744,1.9818,2.0227,2.0666,2.1102,2.1491,2.1943,2.2296,2.2296,0.0,0.0,0.0,0.0,2.2626,0.0,0.0,0.0,0.0,0.0,0.0,0.0,0.0,0.0,0.0,0.0,0.0,0.0,0.0,0.0,0.0,3.0716,3.0768,3.0898,3.0937,0.0,0.0,0.0,2.8398,2.8301,2.664,2.5742,2.5683,2.5632,2.5599,2.5598,2.5535,2.5451,2.5394,2.5406,2.5363,2.5308,2.5308,2.5308,2.5308,2.5308,2.5308,2.5308,2.5308,2.5308,2.5308,2.5308,2.5308,2.5308,1.8857,1.8965,1.8965,0.0,1.8653,1.8176,0.0,0.0,0.0,0.0,1.5133,1.5001,1.5033,1.5045,1.5113,1.5333,1.5653,0.0,0.0,0.0,0.0,1.6593,1.6581,1.7813,2.0558,2.1206,2.2056,2.313,0.0,0.0,2.3455,2.3555,2.3595,0.0,0.0,2.3879,2.4306,2.3819,2.3595,2.3595,2.3595,2.3236,0.0,0.0,2.1291,2.0598,1.9929,1.9708,1.9708,1.9708,1.9708,1.9747,2.0037,2.0158,2.0229,2.0698,2.1118,2.146,2.1567,2.1943,2.2296,2.2296,2.2296,2.2296,0.0,0.0,0.0,0.0,0.0,0.0,0.0,0.0,0.0,0.0,0.0,0.0,0.0,0.0,0.0,2.8414,0.0,0.0,0.0,3.0793,3.0858,3.0898,3.1504,0.0,0.0,0.0,0.0,2.827,2.7155,2.6266,2.5554,2.5522,2.5533,2.5513,2.5465,2.5415,2.5409,2.5342,2.5322,2.5308,2.5308,2.5308,2.5308,2.5308,2.5308,2.5308,2.5308,2.5308,2.5308,2.5308,2.5308,2.5308,1.9328,1.9287,0.0,1.9531,0.0,0.0,1.8152,1.7743,0.0,1.616,1.5677,0.0,1.5781,1.5825,1.5876,1.6011,1.6588,0.0,1.572,0.0,0.0,1.6812,1.6684,1.7876,2.0526,2.1012,0.0,2.3837,0.0,2.4055,2.4103,2.3755,0.0,0.0,0.0,2.3819,2.4126,2.3759,2.3595,2.3595,2.3595,0.0,0.0,2.1969,2.1291,2.0651,2.0134,1.9839,1.9744,1.9909,1.9947,2.0035,2.0482,2.06,2.0682,2.1134,2.1414,2.1627,2.1838,2.2106,2.2296,2.2296,2.2296,2.2296,2.2296,2.2296,2.2429,0.0,0.0,0.0,0.0,0.0,0.0,0.0,0.0,0.0,0.0,0.0,0.0,0.0,0.0,0.0,0.0,0.0,0.0,0.0,0.0,0.0,0.0,0.0,0.0,2.8241,2.7341,2.6452,2.5549,2.5495,2.5463,2.551,2.539,2.5359,2.5354,2.5322,2.5308,2.5308,2.5308,2.5308,2.5308,2.5308,2.5308,2.5308,2.5308,2.5308,2.5308,2.5308,2.5308,2.5308,1.9998,1.9697,0.0,0.0,0.0,0.0,0.0,1.7906,0.0,1.683,0.0,1.5869,1.6671,1.6775,1.6775,1.6775,0.0,1.7671,1.5719,1.6652,1.7194,1.6957,1.6844,1.8012,2.0719,2.0739,2.2001,0.0,2.3975,2.4046,2.4724,2.4036,0.0,0.0,0.0,0.0,0.0,2.3684,2.3728,2.3702,2.3702,2.339,2.2823,2.2138,2.1473,2.083,2.0508,2.0124,1.9839,2.0261,2.0399,2.0466,2.0943,2.1071,2.115,2.1568,2.1688,2.1779,2.2194,2.2296,2.2296,2.2296,2.2296,2.2296,2.2296,2.2296,2.231,2.2349,2.2944,2.35,0.0,0.0,0.0,0.0,0.0,0.0,0.0,0.0,0.0,0.0,0.0,0.0,0.0,0.0,0.0,0.0,0.0,0.0,0.0,0.0,0.0,2.8241,2.7454,0.0,2.5587,0.0,2.5411,2.5463,2.5354,2.5308,2.5308,2.5308,2.5308,2.5308,2.5308,2.5308,2.5308,2.5308,2.5308,2.5308,2.5308,2.5308,2.5308,2.5308,2.5308,2.5308,2.2253,2.1865,0.0,0.0,0.0,1.957,1.9228,1.8424,1.7837,1.7759,1.7613,1.7579,1.7759,1.7759,1.7759,1.7759,1.7974,0.0,0.0,0.0,0.0,1.879,1.8148,1.899,2.1628,2.1565,2.272,0.0,2.5168,2.5241,2.5397,2.4739,0.0,0.0,0.0,0.0,2.364,2.4186,0.0,2.4266,2.4266,2.4126,2.3859,2.3122,2.2427,2.1766,2.11,2.0566,2.0246,2.0715,2.0878,2.0959,2.1368,2.1491,2.1583,2.2032,2.218,2.2194,2.2282,2.2296,2.2296,2.2296,2.2296,2.2296,2.2296,2.2296,2.236,2.2573,2.2954,2.3338,2.3623,0.0,0.0,0.0,0.0,0.0,0.0,0.0,0.0,0.0,0.0,0.0,0.0,0.0,0.0,0.0,0.0,0.0,0.0,0.0,0.0,0.0,2.7996,0.0,0.0,0.0,2.5312,2.5335,2.5308,2.5308,2.5308,2.5308,2.5308,2.5308,2.5308,2.5308,2.5308,2.5308,2.5308,2.5308,2.5308,2.5308,2.5308,2.5308,2.5308,2.5308,2.3158,0.0,0.0,0.0,0.0,0.0,0.0,2.0165,0.0,1.8163,1.8008,1.8008,1.8008,1.8008,1.8008,1.8008,1.8008,1.8202,1.8654,1.8654,1.9077,1.9944,1.9562,0.0,2.1846,2.183,2.2802,2.4823,2.4897,2.5155,2.5541,0.0,0.0,2.4111,0.0,2.4111,0.0,0.0,0.0,2.443,2.4697,2.4782,2.4628,2.3939,2.3234,2.2563,2.2054,2.1488,2.1023,2.1244,2.1306,2.14,2.184,2.1957,2.2003,2.2223,2.2296,2.2321,2.2477,2.2514,2.2554,2.2721,2.2647,2.2438,2.2198,2.2009,2.197,2.2272,2.2605,2.3138,2.4091,2.4562,0.0,0.0,0.0,0.0,0.0,0.0,0.0,0.0,0.0,0.0,0.0,0.0,0.0,0.0,0.0,0.0,0.0,0.0,0.0,0.0,0.0,0.0,0.0,0.0,0.0,2.5342,2.5317,2.5308,2.5308,2.5308,2.5308,2.5308,2.5308,2.5308,2.5308,2.5308,2.5308,2.5308,2.5308,2.5308,2.5308,2.5308,2.5308,2.5308,2.4145,2.3963,0.0,0.0,2.3392,0.0,2.2102,2.1722,2.0796,1.8825,1.8563,1.8563,1.8563,1.8563,1.8563,1.8563,1.8563,1.8854,1.9529,1.9595,1.9977,2.0846,2.0687,2.1101,2.2125,2.2002,2.2786,0.0,2.46,2.4982,2.5705,0.0,0.0,0.0,0.0,0.0,0.0,0.0,2.5238,2.4997,2.525,2.543,2.5443,2.4747,2.4032,2.3353,2.2978,2.2376,2.1749,2.1749,2.1749,2.1809,2.218,2.2296,2.2296,2.2296,2.2296,2.2363,2.2621,2.2708,2.2784,2.3117,2.3009,2.2651,2.2112,2.1803,2.1707,2.2033,2.2511,2.3261,2.4569,2.4804,0.0,0.0,0.0,0.0,0.0,0.0,0.0,0.0,0.0,0.0,0.0,0.0,0.0,0.0,0.0,0.0,3.0582,3.0759,0.0,0.0,0.0,2.7326,2.5776,0.0,2.5336,0.0,2.5336,2.5308,2.5308,2.5308,2.5308,2.5308,2.5308,2.5308,2.5308,2.5308,2.5308,2.5308,2.5308,2.5269,2.5248,2.5248,2.5228,2.5206,0.0,0.0,0.0,0.0,0.0,0.0,2.2147,2.1968,2.1576,2.0487,2.0365,2.0365,2.0365,2.0365,2.0365,2.0365,2.0365,2.0398,2.0462,2.0494,2.0878,2.1753,2.1005,2.1353,2.2944,2.2261,2.3032,0.0,0.0,2.5698,2.6514,2.6443,0.0,0.0,0.0,0.0,0.0,2.5663,2.5959,2.6787,2.6169,2.6175,2.6488,2.5748,2.5007,2.4281,2.3587,2.2861,2.2237,2.2237,2.2237,2.2237,2.2282,2.2296,2.2296,2.2296,2.2296,2.2363,2.2621,2.2708,2.2784,2.3117,2.3177,2.2947,2.2176,2.1977,2.2045,2.2367,2.3307,2.4192,2.4704,2.4804,2.4915,0.0,0.0,0.0,0.0,0.0,2.7307,2.8301,0.0,0.0,0.0,0.0,0.0,0.0,0.0,0.0,2.9586,3.029,2.9921,2.8165,0.0,2.7555,2.6591,2.572,0.0,2.5303,2.5293,2.5308,2.5308,2.5308,2.5308,2.5308,2.5308,2.5308,2.5308,2.5308,2.5308,2.5308,2.5308,2.5198,2.5028,2.5028,2.4956,2.4855,0.0,0.0,0.0,0.0,0.0,0.0,0.0,2.3628,2.3087,2.2698,2.1455,2.059,2.059,2.059,2.059,2.059,2.059,2.0814,2.1365,2.1396,2.1741,2.2567,2.2279,2.2402,2.3078,2.325,2.38,0.0,0.0,2.6234,2.6535,2.657,0.0,0.0,0.0,2.6634,2.6457,2.6861,2.6812,2.6444,2.6431,2.6522,2.6657,2.637,2.5795,2.505,2.4321,2.3594,2.2885,2.2448,2.2296,2.2296,2.2296,2.2296,2.2296,2.2296,2.2412,2.2616,2.291,2.3141,2.338,2.3714,2.366,2.3329,2.2738,2.206,2.1678,2.2016,2.2831,2.3713,2.4484,2.4723,2.4869,0.0,0.0,0.0,0.0,0.0,0.0,2.8154,0.0,2.9684,0.0,0.0,0.0,0.0,0.0,0.0,0.0,2.9995,0.0,2.8846,0.0,2.7044,2.6691,2.5774,2.5308,2.5308,2.5308,2.5308,2.5308,2.5308,2.5308,2.5308,2.5308,2.5308,2.5308,2.5308,2.5224,2.5111,2.5111,2.5018,2.4877,2.4877,2.4849,2.4825,2.7229,0.0,2.685,0.0,2.6332,2.5874,2.5708,2.4906,2.4256,2.4121,2.2466,2.1353,2.1353,2.1353,2.1353,2.1353,2.1353,2.1616,2.2218,2.2261,2.2506,2.3078,2.3335,0.0,2.3454,2.4221,2.4738,2.4951,2.5987,2.6616,2.6837,0.0,0.0,0.0,2.7791,2.7875,2.7579,2.8168,2.7949,2.7193,2.7078,2.7029,2.6996,2.6776,2.6234,2.5525,2.5015,2.422,2.3325,2.2801,2.2533,2.2398,2.2321,2.2296,2.2296,2.2296,2.2487,2.2772,2.3105,2.3437,2.3785,2.4132,2.4016,2.3707,2.3134,2.2191,2.1516,2.1759,2.2489,2.3396,2.4393,2.4734,2.4904,2.5065,0.0,0.0,0.0,0.0,0.0,0.0,2.8699,2.9477,2.9199,0.0,0.0,0.0,0.0,0.0,0.0,0.0,0.0,0.0,0.0,0.0,0.0,2.5755,2.5308,2.5308,2.5308,2.5308,2.5308,2.5308,2.5308,2.5308,2.5308,2.5308,2.5303,2.5248,2.5135,2.5004,2.4955,2.4843,2.4716,2.4716,2.467,2.4654,2.8971,2.8266,2.7703,2.7703,2.7137,2.6514,2.598,2.5458,2.4892,2.4371,2.3573,2.3078,2.3078,2.3078,2.3078,2.3078,2.3078,2.3078,2.3065,2.3078,2.3078,0.0,0.0,2.4292,2.4292,2.5007,2.5728,2.6484,0.0,0.0,2.76,0.0,2.8472,2.8496,2.9095,2.9701,3.0206,2.9502,2.9523,2.992,2.8398,2.779,2.7705,2.6979,2.6234,2.5592,2.5592,2.4644,2.3393,2.3376,2.3089,2.2647,2.2388,2.2296,2.2296,2.2296,2.2487,2.2772,2.3105,2.3437,2.3785,2.4132,2.4208,2.3988,2.3171,2.2373,2.1794,2.1794,2.2607,2.3606,2.461,2.491,2.5052,2.5264,0.0,0.0,0.0,0.0,0.0,0.0,2.6373,2.7251,2.8047,0.0,0.0,0.0,0.0,0.0,0.0,0.0,0.0,2.7939,2.7068,0.0,2.6601,2.5731,2.5308,2.5308,2.5308,2.5308,2.5308,2.5308,2.5308,2.5308,2.5308,2.5308,2.5279,2.5088,2.501,2.4992,2.4855,2.4678,2.4503,2.4503,2.4375,2.4237,2.9002,2.878,2.8588,2.8588,2.8116,2.7622,2.7369,2.656,2.5881,2.5646,2.5052,2.4667,2.4667,2.3725,2.3108,0.0,2.359,2.3914,0.0,2.4381,2.4667,2.4667,2.4894,2.5035,2.5035,2.5755,2.6256,2.651,0.0,0.0,0.0,2.8415,2.8709,2.9134,2.9739,2.9845,2.9556,2.9735,2.9635,2.9264,2.8213,2.7807,2.7722,2.6979,2.6539,2.6285,2.5795,2.5304,2.4777,2.4007,2.3643,2.3413,2.2771,2.256,2.256,2.256,2.2789,2.3117,2.3448,2.3785,2.4074,2.417,2.419,2.4135,2.3878,2.3297,2.2823,2.2823,2.3146,2.3721,2.462,2.491,2.5022,2.5088,2.5214,0.0,0.0,0.0,0.0,0.0,2.7236,2.8396,0.0,2.9198,0.0,0.0,0.0,0.0,0.0,0.0,0.0,0.0,2.6755,0.0,2.6601,2.5731,2.5308,2.5308,2.5308,2.5308,2.5308,2.5308,2.5308,2.5308,2.5308,2.5219,2.5094,2.5028,2.4872,2.4648,2.4615,2.4469,2.4294,2.4294,2.4247,2.4228,2.995,2.969,2.9473,2.9473,2.8998,2.8521,2.8162,2.7368,2.6694,2.6358,2.5772,2.5398,2.5398,2.4553,0.0,2.3946,2.441,2.4709,2.4709,2.5147,2.5398,2.5398,2.5673,2.581,2.581,0.0,0.0,2.6904,2.7595,2.814,2.8511,2.895,2.9384,2.9761,3.0372,3.0372,2.9979,3.0345,3.0243,2.9771,2.8991,2.85,2.818,2.7555,2.7179,2.6887,2.6566,2.6301,2.5934,2.5227,2.4879,2.4553,2.363,2.3423,2.3432,2.2871,2.2935,2.3271,2.3599,2.3937,2.419,2.419,2.419,2.4145,2.3906,2.3565,2.3305,2.3364,2.3507,2.3879,2.4719,2.5005,2.5105,2.5105,2.5219,2.5308,2.5308,0.0,0.0,0.0,0.0,0.0,0.0,2.8809,0.0,0.0,0.0,0.0,0.0,0.0,0.0,2.8145,2.6308,0.0,2.6115,2.5577,2.5308,2.5308,2.5308,2.5308,2.5308,2.5308,2.5308,2.5308,2.5308,2.5198,2.5004,2.4943,2.4759,2.4495,2.4428,2.4312,2.419,2.419,2.419,2.4218,3.1511,3.0896,0.0,0.0,2.9839,0.0,2.8483,2.7976,2.7382,2.6676,2.6015,2.5605,2.5563,2.5577,2.5605,2.5563,0.0,0.0,0.0,2.5536,2.5563,2.5563,2.6203,2.659,2.659,2.7255,2.7625,2.766,2.8286,2.8583,2.8654,2.9761,3.0314,3.0393,3.0938,3.119,3.119,3.119,3.121,3.1181,3.0395,2.9722,2.9103,2.8594,2.7996,2.7481,2.7786,2.7451,2.6876,2.685,2.6537,2.599,2.4866,2.473,2.4691,2.3205,2.2996,2.3311,2.3631,2.3947,2.419,2.419,2.419,2.4054,2.3504,2.3383,2.3434,2.3589,2.3751,2.4129,2.4876,2.5168,2.5308,2.5308,2.5308,2.5308,2.5308,0.0,0.0,0.0,0.0,0.0,0.0,2.7329,2.7551,0.0,0.0,0.0,0.0,0.0,2.7448,2.664,2.575,2.5308,2.5308,2.5308,2.5308,2.5308,2.5308,2.5308,2.5308,2.5308,2.5308,2.5308,2.5308,2.5198,2.4992,2.4862,2.4678,2.4478,2.4275,2.419,2.419,2.419,2.419,2.419,0.0,0.0,3.1219,3.1219,3.0656,3.0004,2.9381,2.9171,2.8693,2.748,2.762,2.7659,2.713,2.7475,2.7575,2.7122,2.6549,2.6229,2.6229,2.6759,2.7071,2.7071,2.7255,2.7331,2.7331,2.7524,2.7835,2.8286,2.8896,2.9429,2.987,3.0166,3.0555,3.0995,3.1151,3.119,3.119,3.119,3.1389,3.1571,3.0513,3.0382,3.0651,2.9015,2.8514,2.862,2.8095,2.7805,2.7581,2.7225,2.7041,2.6784,2.5961,2.5744,2.5515,2.3934,2.3522,2.3642,2.3996,2.4141,2.419,2.419,2.419,2.4201,2.4211,2.4334,2.4488,2.4613,2.4807,2.4999,2.5186,2.5269,2.5308,2.5308,2.5308,2.5308,2.5308,2.5481,0.0,0.0,2.6087,2.674,2.6999,2.7498,2.7965,0.0,0.0,0.0,0.0,2.694,2.6813,2.6621,2.575,2.5308,2.5308,2.5308,2.5308,2.5308,2.5308,2.5308,2.5308,2.5308,2.5308,2.5308,2.5308,2.5198,2.4992,2.4862,2.4678,2.4478,2.4275,2.419,2.419,2.419,2.419,2.419,3.1511,3.1511,3.1511,3.1511,3.1197,3.0874,3.0551,3.0498,3.025,2.9524,2.9447,2.933,2.8967,2.892,2.8779,2.8448,2.8055,2.771,2.7439,2.778,2.8018,2.8018,2.776,2.7735,2.7993,2.8018,2.8319,2.8919,2.9518,2.9978,3.0293,3.058,3.0878,3.119,3.119,3.119,3.119,3.119,3.1329,3.1492,3.1061,3.0957,3.1,3.0319,2.974,2.9307,2.9044,2.8706,2.8358,2.8112,2.8027,2.79,2.7123,2.6879,2.6631,2.5394,2.4661,2.4245,2.4213,2.419,2.419,2.419,2.419,2.4238,2.4452,2.4654,2.4835,2.4974,2.5157,2.5308,2.5308,2.5308,2.5308,2.5308,2.5308,2.5308,2.5308,2.5308,0.0,2.5308,2.5712,2.6197,2.6693,2.6851,2.7085,2.7516,0.0,0.0,2.6126,2.6033,2.6,2.6,2.5558,2.5308,2.5308,2.5308,2.5308,2.5308,2.5308,2.5308,2.5308,2.5308,2.5308,2.5308,2.5308,2.5198,2.4992,2.4862,2.4678,2.4478,2.4275,2.419,2.419,2.419,2.419,2.419,3.1824,3.1824,3.1824,3.1824,3.1734,3.1685,3.1736,3.1748,3.1715,3.1606,3.1149,3.074,3.0516,3.0016,2.963,2.9422,2.9563,2.9384,2.8677,2.8654,2.8654,2.8654,2.8165,2.81,2.863,2.8732,2.9019,2.954,3.0145,3.0435,3.0456,3.0975,3.119,3.119,3.119,3.119,3.119,3.119,3.1288,3.1428,3.1696,3.155,3.1246,3.1793,3.1101,2.9901,3.0112,2.9684,2.9005,2.9005,2.9005,2.8877,2.8209,2.797,2.7824,2.7016,2.6104,2.5198,2.4553,2.4281,2.419,2.419,2.419,2.4238,2.4452,2.4631,2.4799,2.4968,2.5141,2.5264,2.5284,2.5404,2.55,2.55,2.5615,2.564,2.5524,0.0,2.5476,2.534,2.5326,2.5662,2.652,2.5931,2.5831,2.6629,2.5958,2.5463,0.0,2.5339,2.5308,2.5308,2.5308,2.5308,2.5308,2.5308,2.5308,2.5308,2.5308,2.5308,2.5308,2.5308,2.5308,2.5308,2.5308,2.5208,2.5028,2.4869,2.47,2.4528,2.4284,2.419,2.419,2.419,2.419,2.419,3.3271,3.3271,3.3271,3.3271,3.2821,3.2444,3.2433,3.2442,3.2237,3.1678,3.1991,3.1831,3.0628,3.0857,3.0631,2.9499,3.0335,3.0456,2.9339,2.9248,2.9248,2.9248,2.918,2.9157,2.9248,2.9761,3.0081,3.0166,3.076,3.1055,3.1055,3.1151,3.119,3.119,3.119,3.119,3.119,3.119,3.162,3.2265,3.1915,3.2411,3.3217,3.2336,3.1615,3.1028,3.0406,2.9684,2.9005,2.9005,2.9005,2.8987,2.8858,2.8803,2.8656,2.7842,2.749,2.7046,2.5603,2.4713,2.419,2.419,2.419,2.4238,2.4452,2.4528,2.4628,2.4943,2.5028,2.5099,2.5269,2.5904,2.6409,2.6409,2.7024,2.7253,2.6577,0.0,2.6238,2.5546,2.5477,2.5526,2.5686,2.5632,2.563,2.5703,2.5585,2.5463,2.5397,2.5339,2.5308,2.5308,2.5308,2.5308,2.5308,2.5308,2.5308,2.5308,2.5308,2.5308,2.5308,2.5308,2.5308,2.5308,2.5308,2.5274,2.5238,2.4935,2.4782,2.4716,2.4339,2.419,2.419,2.419,2.419,2.419,3.3582,3.3417,3.3297,3.3556,3.3553,3.3551,3.3673,3.3673,3.3704,3.3746,3.3687,3.3389,3.2734,3.2557,3.2233,3.1604,3.1683,3.1547,3.0997,3.0293,2.987,2.987,2.9563,2.974,3.0467,3.0675,3.0981,3.1386,3.1257,3.119,3.119,3.119,3.119,3.119,3.119,3.1312,3.1526,3.1526,3.1914,3.2501,3.2533,3.2916,3.3443,3.3108,3.2597,3.2008,3.1641,3.0693,2.9647,2.9647,2.9354,2.9005,2.9005,2.9005,2.8932,2.8558,2.753,2.6379,2.5734,2.4977,2.4357,2.4357,2.4357,2.4357,2.433,2.4512,2.4716,2.4857,2.503,2.5198,2.5279,2.6,2.6447,2.5981,2.7051,0.0,0.0,2.644,2.6445,2.5605,2.5491,2.5505,2.5552,2.5572,2.5597,2.5561,2.5517,2.5463,2.5397,2.5339,2.5308,2.5308,2.5308,2.5308,2.5308,2.5308,2.5308,2.5308,2.5308,2.5308,2.5308,2.5308,2.5308,2.5308,2.5308,2.5308,2.5274,2.5024,2.4876,2.4775,2.4478,2.4294,2.419,2.419,2.419,2.419,3.4062,3.3761,3.3633,3.3987,3.435,3.4657,3.4807,3.483,3.5028,3.5538,3.5115,3.4692,3.4506,3.3981,3.3592,3.3423,3.2882,3.2564,3.2564,3.1433,3.0701,3.0535,3.0081,3.0451,3.185,3.1597,3.1819,3.2564,3.1819,3.1464,3.1444,3.1275,3.1252,3.1332,3.1332,3.1565,3.1951,3.1951,3.223,3.2697,3.3045,3.3258,3.3361,3.3694,3.3311,3.2601,3.2601,3.1568,3.021,3.021,2.9666,2.9005,2.9005,2.9005,2.9017,2.9067,2.768,2.6079,2.5825,2.5317,2.481,2.4615,2.4559,2.4537,2.4375,2.4567,2.4811,2.4842,2.5049,2.5234,2.5284,2.6,2.6395,2.5731,0.0,0.0,0.0,2.6362,2.6513,2.5646,2.5549,2.5563,2.5629,2.5615,2.5586,2.5575,2.5503,2.5453,2.5379,2.5326,2.5308,2.5308,2.5308,2.5308,2.5308,2.5308,2.5308,2.5308,2.5308,2.5308,2.5308,2.5308,2.5308,2.5308,2.5308,2.5308,2.5274,2.5047,2.4891,2.4775,2.4537,2.4348,2.419,2.419,2.419,2.4226,3.5447,3.5407,3.5407,3.5447,3.547,3.5515,3.5515,3.5515,3.5538,3.56,3.5549,3.5267,3.4573,3.4438,3.4134,3.3457,3.3355,3.3322,3.3322,3.2591,3.1861,3.1148,3.1075,3.1749,3.3225,3.2557,3.2581,3.3322,3.2581,3.2226,3.2209,3.1532,3.1408,3.1752,3.1752,3.2004,3.2451,3.2451,3.2713,3.3136,3.3184,3.3419,3.3748,3.3793,3.3311,3.2601,3.2601,3.1568,3.021,3.021,2.9666,2.9005,2.9005,2.9005,2.9044,2.9299,2.8858,2.7951,2.6404,2.5933,2.5706,2.4971,2.4782,2.4775,2.476,2.4782,2.4835,2.4955,2.501,2.5082,2.5264,2.6,2.6598,2.6609,0.0,0.0,2.6901,2.6858,2.6599,2.578,2.5683,2.5683,2.5683,2.5639,2.5575,2.5503,2.5444,2.5387,2.5308,2.5293,2.5308,2.5308,2.5308,2.5308,2.5308,2.5308,2.5308,2.5308,2.5308,2.5308,2.5308,2.5308,2.5308,2.5308,2.5308,2.5308,2.5269,2.4942,2.4811,2.476,2.4375,2.4209,2.419,2.419,2.419,2.43,3.56,3.56,3.56,3.56,3.56,3.56,3.56,3.56,3.56,3.56,3.56,3.5481,3.5216,3.5182,3.5081,3.4788,3.4353,3.4083,3.4083,3.3389,3.2442,3.1241,3.2087,3.2831,3.3389,3.3136,3.3339,3.4083,3.2886,3.2293,3.2276,3.181,3.1641,3.1808,3.2092,3.2483,3.2937,3.2937,3.3181,3.3564,3.3564,3.3666,3.3807,3.3807,3.3605,3.3348,3.3348,3.2632,3.1684,3.1684,3.1146,3.0429,3.0098,2.9987,2.9962,2.982,2.961,2.9216,2.8198,2.7077,2.5975,2.5139,2.4911,2.4904,2.4825,2.485,2.493,2.4992,2.5099,2.5208,2.5298,2.6044,2.6492,2.5971,0.0,2.7643,2.6298,2.659,2.6657,2.5801,2.5703,2.5683,2.5636,2.5608,2.5556,2.5453,2.5404,2.5371,2.5293,2.5308,2.5308,2.5308,2.5308,2.5308,2.5308,2.5308,2.5308,2.5308,2.5308,2.5308,2.5308,2.5308,2.5308,2.5308,2.5308,2.5308,2.5274,2.5024,2.4889,2.4775,2.4495,2.4312,2.419,2.419,2.419,2.4245,3.56,3.56,3.56,3.56,3.56,3.56,3.56,3.56,3.56,3.56,3.56,3.56,3.56,3.5761,3.5854,3.5854,3.5531,3.5349,3.5349,3.4868,3.3901,3.231,3.2983,3.3626,3.4083,3.4015,3.4358,3.5109,3.3629,3.2957,3.3083,3.22,3.1951,3.2264,3.2583,3.2983,3.3375,3.3375,3.355,3.3807,3.3807,3.3807,3.3807,3.3807,3.3807,3.3807,3.3807,3.3293,3.2596,3.2692,3.2189,3.1418,3.0889,3.0572,3.0415,3.0418,3.0278,2.9984,2.9285,2.8149,2.6917,2.5788,2.531,2.5065,2.4975,2.5037,2.5094,2.5094,2.522,2.5326,2.5326,2.5863,2.613,2.5556,2.6537,2.6969,2.5808,2.6189,2.6367,2.5762,2.5683,2.5658,2.5603,2.5559,2.5508,2.5417,2.5372,2.5357,2.5293,2.5308,2.5308,2.5308,2.5308,2.5308,2.5308,2.5308,2.5308,2.5308,2.5308,2.5308,2.5308,2.5308,2.5264,2.5208,2.5269,2.5238,2.5132,2.4993,2.4843,2.4685,2.4486,2.433,2.419,2.419,2.419,2.4245,3.5622,3.5622,3.5622,3.56,3.56,3.56,3.56,3.56,3.56,3.56,3.5622,3.5622,3.56,3.6075,3.6412,3.6412,3.6884,3.7209,3.7209,3.7209,3.6414,3.4609,3.3833,3.4117,3.5571,3.5404,3.5674,3.6412,3.4928,3.4434,3.4765,3.2755,3.2315,3.3199,3.3214,3.3437,3.3807,3.3807,3.3807,3.3807,3.3807,3.3807,3.3807,3.3807,3.3807,3.3807,3.3788,3.3293,3.2647,3.2922,3.249,3.1734,3.1195,3.0555,3.0197,3.107,3.0873,3.0212,2.9357,2.9107,2.8703,2.7024,2.5962,2.5327,2.5327,2.5327,2.5327,2.5308,2.5365,2.5418,2.5398,2.5459,2.5511,2.5595,2.5602,2.5611,2.5683,2.5703,2.5703,2.5703,2.5636,2.5601,2.5601,2.5482,2.5398,2.5398,2.5335,2.5308,2.5308,2.5308,2.5308,2.5308,2.5308,2.5308,2.5308,2.5308,2.5308,2.5308,2.5308,2.5308,2.5308,2.5308,2.5198,2.5016,2.5214,2.5109,2.4804,2.4797,2.4678,2.4478,2.4275,2.419,2.419,2.419,2.419,2.43,3.6726,3.6726,3.6603,3.6224,3.6161,3.6032,3.5667,3.592,3.6028,3.5667,3.627,3.6583,3.6203,3.6643,3.696,3.696,3.7114,3.7209,3.7209,3.7209,3.6953,3.6414,3.6186,3.6009,3.5887,3.6375,3.6733,3.696,3.596,3.5523,3.5616,3.4262,3.3777,3.4026,3.3749,3.3694,3.3807,3.3807,3.3807,3.3807,3.3807,3.3807,3.3807,3.3807,3.3807,3.3815,3.4006,3.3926,3.377,3.4078,3.4035,3.3728,3.3152,3.2546,3.2083,3.2358,3.1911,3.1256,3.1006,3.0025,2.8838,2.7775,2.7313,2.7121,2.7121,2.7121,2.6948,2.6346,2.6273,2.6134,2.5515,2.5481,2.5588,2.5599,2.5636,2.5682,2.5703,2.5703,2.5683,2.5635,2.5606,2.5561,2.5479,2.5421,2.5376,2.533,2.5308,2.5308,2.5308,2.5308,2.5308,2.5308,2.5308,2.5308,2.5308,2.5308,2.5308,2.5308,2.5308,2.5308,2.5308,2.5308,2.5198,2.4991,2.5052,2.4974,2.479,2.4647,2.4543,2.4478,2.4275,2.419,2.419,2.419,2.419,2.4226,3.7209,3.7209,3.7114,3.6764,3.6724,3.6603,3.6291,3.6501,3.6603,3.6291,3.6786,3.7095,3.6744,3.7173,3.747,3.747,3.7667,3.7791,3.7791,3.7791,3.7791,3.7791,3.7791,3.7381,3.6484,3.7129,3.747,3.747,3.6702,3.6396,3.6567,3.5405,3.479,3.4633,3.4375,3.41,3.3807,3.3807,3.3807,3.3839,3.4292,3.4394,3.4293,3.4537,3.455,3.4474,3.4419,3.4401,3.4445,3.4745,3.4707,3.4501,3.4488,3.3745,3.2968,3.3314,3.2833,3.2102,3.1795,3.0929,2.9946,2.9138,2.842,2.7938,2.7938,2.7965,2.7825,2.7307,2.7242,2.7026,2.6149,2.6071,2.6046,2.5694,2.5662,2.5703,2.5703,2.5703,2.5682,2.5605,2.5588,2.5526,2.5408,2.5372,2.5333,2.5293,2.5308,2.5308,2.5308,2.5308,2.5308,2.5308,2.5308,2.5308,2.5308,2.5308,2.5264,2.5173,2.5173,2.5141,2.5103,2.5103,2.4981,2.4804,2.4897,2.478,2.4569,2.452,2.4444,2.4366,2.4256,2.419,2.4245,2.4566,2.4677,2.4732,3.7323,3.7323,3.7322,3.7267,3.7248,3.7248,3.7209,3.7247,3.7248,3.7209,3.7284,3.7322,3.7284,3.7685,3.7963,3.7963,3.8415,3.8707,3.8707,3.8707,3.8707,3.8707,3.8707,3.8269,3.7341,3.7737,3.7963,3.7963,3.7291,3.7176,3.7569,3.6357,3.5575,3.5224,3.5151,3.4711,3.4027,3.4049,3.4062,3.4157,3.5225,3.5479,3.5256,3.5811,3.5818,3.5476,3.5009,3.481,3.4793,3.5053,3.476,3.4449,3.525,3.4404,3.3295,3.4083,3.3699,3.2833,3.2025,3.1756,3.1503,3.0699,2.9349,2.8237,2.8237,2.8275,2.8291,2.8233,2.8273,2.8025,2.7087,2.6948,2.6719,2.584,2.5703,2.5703,2.5703,2.5703,2.5662,2.5602,2.5543,2.5463,2.5409,2.5339,2.5308,2.5308,2.5308,2.5308,2.5308,2.5308,2.5308,2.5308,2.5308,2.5308,2.5308,2.5308,2.5208,2.5028,2.5028,2.4943,2.4825,2.484,2.4723,2.4512,2.4716,2.4567,2.4209,2.4401,2.4366,2.419,2.419,2.4245,2.4401,2.5136,2.5448,2.5613,3.8366,3.8366,3.8234,3.7825,3.7737,3.7632,3.7266,3.7506,3.7614,3.7248,3.7896,3.8218,3.779,3.82,3.853,3.853,3.8627,3.8707,3.8707,3.8707,3.8707,3.8707,3.8707,3.8596,3.8385,3.8465,3.853,3.853,3.8382,3.8337,3.8414,3.7512,3.7051,3.6927,3.6303,3.5917,3.5781,3.5988,3.6067,3.6124,3.6622,3.6787,3.6742,3.6874,3.6459,3.5832,3.5923,3.5549,3.5043,3.532,3.5331,3.525,3.5442,3.5231,3.4962,3.5154,3.4603,3.3725,3.2872,3.2179,3.1503,3.0699,3.0273,3.0037,3.0037,3.0052,2.9872,2.9252,2.9162,2.8743,2.7184,2.6948,2.6719,2.584,2.5703,2.5703,2.5703,2.5703,2.566,2.5541,2.552,2.5459,2.5335,2.5303,2.5308,2.5308,2.5308,2.5308,2.5308,2.5308,2.5308,2.5308,2.5308,2.5308,2.5308,2.5308,2.5274,2.5229,2.5229,2.5135,2.4955,2.5113,2.4942,2.4512,2.4716,2.4567,2.4199,2.4256,2.4247,2.419,2.419,2.4585,2.5154,2.5338,2.5797,2.6447,3.935,3.9588,3.9637,3.897,3.8864,3.8636,3.8019,3.8117,3.8183,3.7948,3.8385,3.8578,3.83,3.853,3.8707,3.8707,3.8707,3.8707,3.8707,3.8707,3.8707,3.8707,3.8707,3.8707,3.8707,3.8707,3.8707,3.8707,3.8707,3.8707,3.8689,3.8267,3.7878,3.7474,3.707,3.6666,3.6313,3.6586,3.6702,3.6777,3.7667,3.7931,3.777,3.7624,3.7195,3.6606,3.6097,3.5661,3.5304,3.5446,3.55,3.55,3.55,3.55,3.55,3.55,3.5173,3.4642,3.3797,3.3261,3.2754,3.2016,3.1551,3.1164,3.0733,3.0695,3.0612,3.0206,3.014,2.9758,2.8431,2.8222,2.7812,2.6523,2.6328,2.6172,2.5762,2.5662,2.5607,2.5503,2.5463,2.5404,2.5308,2.5308,2.5308,2.5308,2.5308,2.5308,2.5308,2.5308,2.5308,2.5308,2.5308,2.5308,2.5308,2.5208,2.5208,2.5303,2.5208,2.5024,2.4773,2.4871,2.4719,2.4357,2.4469,2.4393,2.419,2.419,2.419,2.419,2.419,2.4695,2.5448,2.5833,2.6722,2.7813,4.023,4.0653,4.0875,4.0212,4.0102,3.9882,3.9221,3.9111,3.9056,3.8927,3.9019,3.9019,3.8726,3.8707,3.8762,3.8891,3.8781,3.8707,3.8707,3.8707,3.8707,3.8707,3.8707,3.8707,3.8707,3.8732,3.875,3.8707,3.8707,3.8707,3.8707,3.8707,3.834,3.7713,3.7713,3.7357,3.6799,3.7086,3.7224,3.7389,3.866,3.9004,3.8721,3.8509,3.8169,3.7655,3.6557,3.5962,3.5673,3.5558,3.55,3.55,3.55,3.55,3.5507,3.5521,3.5528,3.5335,3.4546,3.4332,3.4171,3.3468,3.2768,3.2046,3.1327,3.1031,3.0898,3.0898,3.0898,3.0625,2.9766,2.9609,2.9082,2.748,2.7226,2.6914,2.6035,2.5869,2.5741,2.5503,2.5421,2.5367,2.5317,2.5308,2.5308,2.5308,2.5308,2.5308,2.5308,2.5308,2.5308,2.5308,2.5308,2.5279,2.5253,2.5088,2.5077,2.5217,2.5047,2.4811,2.4543,2.4543,2.4409,2.4218,2.4384,2.4357,2.4208,2.4337,2.442,2.442,2.442,2.4989,2.5907,2.6704,2.7849,2.9005,4.0948,4.1022,4.1058,4.0948,4.093,4.0893,4.0783,4.0783,4.0543,3.9827,4.0341,4.0251,3.8854,3.8707,3.8982,3.968,3.9093,3.8707,3.8707,3.8707,3.8707,3.8707,3.8707,3.8707,3.8707,3.8937,3.8919,3.8707,3.8707,3.8707,3.8707,3.8707,3.8652,3.8542,3.8542,3.8608,3.8742,3.907,3.938,3.9689,4.0109,4.0268,4.0205,4.0185,3.9704,3.9035,3.8846,3.7815,3.6423,3.5731,3.55,3.55,3.55,3.55,3.5515,3.556,3.5599,3.5417,3.4672,3.4468,3.4279,3.3496,3.3216,3.3106,3.3045,3.1933,3.0898,3.0898,3.0898,3.0625,2.9766,2.9609,2.9277,2.8281,2.8125,2.7792,2.6861,2.6737,2.6394,2.5518,2.5346,2.5308,2.5308,2.5308,2.5308,2.5308,2.5308,2.5308,2.5308,2.5308,2.5308,2.5308,2.5308,2.5214,2.504,2.5016,2.4968,2.4874,2.4835,2.4792,2.476,2.476,2.4543,2.4246,2.5125,2.5005,2.4245,2.4952,2.5246,2.5246,2.5246,2.6146,2.7567,2.8381,2.8822,2.9005,4.1864,4.2139,4.2304,4.1864,4.1772,4.1625,4.1168,4.1095,4.0967,4.0616,4.0875,4.082,4.0104,4.0031,4.0178,4.0543,4.0249,3.9863,3.9405,3.9966,3.9915,3.896,3.9574,3.9701,3.9221,3.932,3.932,3.9203,3.9203,3.9114,3.8937,3.9127,3.9203,3.9203,3.9203,3.9262,3.9389,3.9742,3.9953,4.012,4.0389,4.0496,4.0458,3.9996,3.9611,3.9246,3.8738,3.7777,3.6654,3.6288,3.5865,3.552,3.554,3.557,3.5579,3.5639,3.5659,3.5601,3.5343,3.5286,3.5201,3.4892,3.4448,3.4098,3.4121,3.3184,3.2168,3.1719,3.1621,3.1367,3.0488,3.0332,3.0039,2.918,2.9023,2.8709,2.7752,2.759,2.739,2.6865,2.6766,2.6563,2.6077,2.6019,2.5827,2.5346,2.5308,2.5308,2.5308,2.5308,2.5308,2.5308,2.5308,2.5208,2.501,2.4936,2.4862,2.4797,2.5026,2.5191,2.53,2.53,2.5149,2.4907,2.5335,2.5289,2.4897,2.5246,2.5668,2.6062,2.6062,2.6778,2.7897,2.8693,2.9005,2.9005]}]]